<?xml version="1.0" encoding="UTF-8" standalone="no" ?>
<gpx xmlns="http://www.topografix.com/GPX/1/1" xmlns:xsi="http://www.w3.org/2001/XMLSchema-instance" xsi:schemaLocation="http://www.topografix.com/GPX/1/1 http://www.topografix.com/GPX/1/1/gpx.xsd" version="1.1" creator="VisuGPX - https://www.visugpx.com">
  <metadata>
    <name>E4 BX Pyla </name>
    <desc><![CDATA[E4 BX Pyla 140
hub03grbx

Arcachon]]></desc>
  </metadata>
  <trk>
    <name><![CDATA[Toaster Course]]></name>
    <trkseg>
      <trkpt lat="44.88944" lon="-0.61935">
        <ele>5</ele>
        <time>2013-04-29T00:00:00Z</time>
      </trkpt>
      <trkpt lat="44.88955" lon="-0.6203">
        <ele>6</ele>
        <time>2013-04-29T00:00:11Z</time>
      </trkpt>
      <trkpt lat="44.8896" lon="-0.62029">
        <ele>5</ele>
        <time>2013-04-29T00:00:12Z</time>
      </trkpt>
      <trkpt lat="44.88988" lon="-0.62026">
        <ele>5</ele>
        <time>2013-04-29T00:00:15Z</time>
      </trkpt>
      <trkpt lat="44.89016" lon="-0.62012">
        <ele>4</ele>
        <time>2013-04-29T00:00:19Z</time>
      </trkpt>
      <trkpt lat="44.88978" lon="-0.62086">
        <ele>3</ele>
        <time>2013-04-29T00:00:28Z</time>
      </trkpt>
      <trkpt lat="44.88939" lon="-0.62173">
        <ele>4</ele>
        <time>2013-04-29T00:00:40Z</time>
      </trkpt>
      <trkpt lat="44.88917" lon="-0.62247">
        <ele>5</ele>
        <time>2013-04-29T00:00:50Z</time>
      </trkpt>
      <trkpt lat="44.88905" lon="-0.62308">
        <ele>6</ele>
        <time>2013-04-29T00:00:59Z</time>
      </trkpt>
      <trkpt lat="44.88902" lon="-0.62386">
        <ele>8</ele>
        <time>2013-04-29T00:01:11Z</time>
      </trkpt>
      <trkpt lat="44.88903" lon="-0.62439">
        <ele>7</ele>
        <time>2013-04-29T00:01:16Z</time>
      </trkpt>
      <trkpt lat="44.88907" lon="-0.62484">
        <ele>6</ele>
        <time>2013-04-29T00:01:20Z</time>
      </trkpt>
      <trkpt lat="44.88909" lon="-0.62505">
        <ele>6</ele>
        <time>2013-04-29T00:01:22Z</time>
      </trkpt>
      <trkpt lat="44.88919" lon="-0.626">
        <ele>5</ele>
        <time>2013-04-29T00:01:31Z</time>
      </trkpt>
      <trkpt lat="44.88923" lon="-0.62626">
        <ele>5</ele>
        <time>2013-04-29T00:01:35Z</time>
      </trkpt>
      <trkpt lat="44.88928" lon="-0.62626">
        <ele>5</ele>
        <time>2013-04-29T00:01:36Z</time>
      </trkpt>
      <trkpt lat="44.88934" lon="-0.6263">
        <ele>6</ele>
        <time>2013-04-29T00:01:38Z</time>
      </trkpt>
      <trkpt lat="44.88938" lon="-0.62643">
        <ele>6</ele>
        <time>2013-04-29T00:01:40Z</time>
      </trkpt>
      <trkpt lat="44.88942" lon="-0.62646">
        <ele>6</ele>
        <time>2013-04-29T00:01:41Z</time>
      </trkpt>
      <trkpt lat="44.88942" lon="-0.62669">
        <ele>7</ele>
        <time>2013-04-29T00:01:45Z</time>
      </trkpt>
      <trkpt lat="44.88948" lon="-0.6274">
        <ele>9</ele>
        <time>2013-04-29T00:01:56Z</time>
      </trkpt>
      <trkpt lat="44.88975" lon="-0.63038">
        <ele>7</ele>
        <time>2013-04-29T00:02:24Z</time>
      </trkpt>
      <trkpt lat="44.89" lon="-0.63299">
        <ele>8</ele>
        <time>2013-04-29T00:02:51Z</time>
      </trkpt>
      <trkpt lat="44.89012" lon="-0.63429">
        <ele>8</ele>
        <time>2013-04-29T00:03:04Z</time>
      </trkpt>
      <trkpt lat="44.89045" lon="-0.63767">
        <ele>7</ele>
        <time>2013-04-29T00:03:36Z</time>
      </trkpt>
      <trkpt lat="44.89046" lon="-0.63778">
        <ele>6</ele>
        <time>2013-04-29T00:03:37Z</time>
      </trkpt>
      <trkpt lat="44.89073" lon="-0.64062">
        <ele>6</ele>
        <time>2013-04-29T00:04:04Z</time>
      </trkpt>
      <trkpt lat="44.89079" lon="-0.64143">
        <ele>7</ele>
        <time>2013-04-29T00:04:16Z</time>
      </trkpt>
      <trkpt lat="44.8908" lon="-0.64221">
        <ele>9</ele>
        <time>2013-04-29T00:04:27Z</time>
      </trkpt>
      <trkpt lat="44.8908" lon="-0.64279">
        <ele>8</ele>
        <time>2013-04-29T00:04:32Z</time>
      </trkpt>
      <trkpt lat="44.8908" lon="-0.64323">
        <ele>8</ele>
        <time>2013-04-29T00:04:36Z</time>
      </trkpt>
      <trkpt lat="44.89065" lon="-0.64745">
        <ele>8</ele>
        <time>2013-04-29T00:05:16Z</time>
      </trkpt>
      <trkpt lat="44.89057" lon="-0.64813">
        <ele>8</ele>
        <time>2013-04-29T00:05:23Z</time>
      </trkpt>
      <trkpt lat="44.89051" lon="-0.64847">
        <ele>8</ele>
        <time>2013-04-29T00:05:26Z</time>
      </trkpt>
      <trkpt lat="44.89045" lon="-0.64887">
        <ele>8</ele>
        <time>2013-04-29T00:05:30Z</time>
      </trkpt>
      <trkpt lat="44.89025" lon="-0.64973">
        <ele>8</ele>
        <time>2013-04-29T00:05:40Z</time>
      </trkpt>
      <trkpt lat="44.89022" lon="-0.64985">
        <ele>8</ele>
        <time>2013-04-29T00:05:41Z</time>
      </trkpt>
      <trkpt lat="44.88995" lon="-0.65073">
        <ele>9</ele>
        <time>2013-04-29T00:05:51Z</time>
      </trkpt>
      <trkpt lat="44.88988" lon="-0.6509">
        <ele>9</ele>
        <time>2013-04-29T00:05:54Z</time>
      </trkpt>
      <trkpt lat="44.8897" lon="-0.65138">
        <ele>10</ele>
        <time>2013-04-29T00:06:02Z</time>
      </trkpt>
      <trkpt lat="44.88955" lon="-0.65186">
        <ele>11</ele>
        <time>2013-04-29T00:06:09Z</time>
      </trkpt>
      <trkpt lat="44.88932" lon="-0.65269">
        <ele>13</ele>
        <time>2013-04-29T00:06:21Z</time>
      </trkpt>
      <trkpt lat="44.88918" lon="-0.65345">
        <ele>12</ele>
        <time>2013-04-29T00:06:29Z</time>
      </trkpt>
      <trkpt lat="44.8891" lon="-0.6542">
        <ele>12</ele>
        <time>2013-04-29T00:06:36Z</time>
      </trkpt>
      <trkpt lat="44.88908" lon="-0.65441">
        <ele>12</ele>
        <time>2013-04-29T00:06:39Z</time>
      </trkpt>
      <trkpt lat="44.88911" lon="-0.65532">
        <ele>13</ele>
        <time>2013-04-29T00:06:50Z</time>
      </trkpt>
      <trkpt lat="44.88913" lon="-0.65574">
        <ele>14</ele>
        <time>2013-04-29T00:06:55Z</time>
      </trkpt>
      <trkpt lat="44.88919" lon="-0.65627">
        <ele>13</ele>
        <time>2013-04-29T00:07:00Z</time>
      </trkpt>
      <trkpt lat="44.88934" lon="-0.65711">
        <ele>13</ele>
        <time>2013-04-29T00:07:09Z</time>
      </trkpt>
      <trkpt lat="44.8896" lon="-0.65828">
        <ele>13</ele>
        <time>2013-04-29T00:07:20Z</time>
      </trkpt>
      <trkpt lat="44.88979" lon="-0.65916">
        <ele>13</ele>
        <time>2013-04-29T00:07:29Z</time>
      </trkpt>
      <trkpt lat="44.88989" lon="-0.65994">
        <ele>14</ele>
        <time>2013-04-29T00:07:40Z</time>
      </trkpt>
      <trkpt lat="44.88994" lon="-0.66081">
        <ele>16</ele>
        <time>2013-04-29T00:07:52Z</time>
      </trkpt>
      <trkpt lat="44.88991" lon="-0.66157">
        <ele>15</ele>
        <time>2013-04-29T00:07:59Z</time>
      </trkpt>
      <trkpt lat="44.88981" lon="-0.66395">
        <ele>12</ele>
        <time>2013-04-29T00:08:22Z</time>
      </trkpt>
      <trkpt lat="44.88977" lon="-0.66505">
        <ele>12</ele>
        <time>2013-04-29T00:08:32Z</time>
      </trkpt>
      <trkpt lat="44.88974" lon="-0.66578">
        <ele>12</ele>
        <time>2013-04-29T00:08:39Z</time>
      </trkpt>
      <trkpt lat="44.88971" lon="-0.66635">
        <ele>12</ele>
        <time>2013-04-29T00:08:44Z</time>
      </trkpt>
      <trkpt lat="44.88966" lon="-0.66765">
        <ele>12</ele>
        <time>2013-04-29T00:08:57Z</time>
      </trkpt>
      <trkpt lat="44.88964" lon="-0.66808">
        <ele>12</ele>
        <time>2013-04-29T00:09:02Z</time>
      </trkpt>
      <trkpt lat="44.88963" lon="-0.66842">
        <ele>12</ele>
        <time>2013-04-29T00:09:06Z</time>
      </trkpt>
      <trkpt lat="44.88962" lon="-0.66861">
        <ele>12</ele>
        <time>2013-04-29T00:09:08Z</time>
      </trkpt>
      <trkpt lat="44.88957" lon="-0.66987">
        <ele>14</ele>
        <time>2013-04-29T00:09:22Z</time>
      </trkpt>
      <trkpt lat="44.88955" lon="-0.67035">
        <ele>14</ele>
        <time>2013-04-29T00:09:27Z</time>
      </trkpt>
      <trkpt lat="44.88948" lon="-0.67211">
        <ele>14</ele>
        <time>2013-04-29T00:09:44Z</time>
      </trkpt>
      <trkpt lat="44.88941" lon="-0.67395">
        <ele>15</ele>
        <time>2013-04-29T00:10:04Z</time>
      </trkpt>
      <trkpt lat="44.8894" lon="-0.67415">
        <ele>15</ele>
        <time>2013-04-29T00:10:06Z</time>
      </trkpt>
      <trkpt lat="44.88939" lon="-0.67431">
        <ele>15</ele>
        <time>2013-04-29T00:10:08Z</time>
      </trkpt>
      <trkpt lat="44.88922" lon="-0.67721">
        <ele>17</ele>
        <time>2013-04-29T00:10:39Z</time>
      </trkpt>
      <trkpt lat="44.88922" lon="-0.67733">
        <ele>16</ele>
        <time>2013-04-29T00:10:40Z</time>
      </trkpt>
      <trkpt lat="44.88921" lon="-0.67741">
        <ele>16</ele>
        <time>2013-04-29T00:10:41Z</time>
      </trkpt>
      <trkpt lat="44.88918" lon="-0.6786">
        <ele>16</ele>
        <time>2013-04-29T00:10:53Z</time>
      </trkpt>
      <trkpt lat="44.88915" lon="-0.68031">
        <ele>17</ele>
        <time>2013-04-29T00:11:11Z</time>
      </trkpt>
      <trkpt lat="44.88918" lon="-0.68204">
        <ele>18</ele>
        <time>2013-04-29T00:11:30Z</time>
      </trkpt>
      <trkpt lat="44.88923" lon="-0.6834">
        <ele>19</ele>
        <time>2013-04-29T00:11:45Z</time>
      </trkpt>
      <trkpt lat="44.88935" lon="-0.68491">
        <ele>15</ele>
        <time>2013-04-29T00:12:00Z</time>
      </trkpt>
      <trkpt lat="44.88942" lon="-0.6854">
        <ele>15</ele>
        <time>2013-04-29T00:12:05Z</time>
      </trkpt>
      <trkpt lat="44.88942" lon="-0.68546">
        <ele>15</ele>
        <time>2013-04-29T00:12:06Z</time>
      </trkpt>
      <trkpt lat="44.8896" lon="-0.68689">
        <ele>16</ele>
        <time>2013-04-29T00:12:21Z</time>
      </trkpt>
      <trkpt lat="44.88961" lon="-0.68701">
        <ele>16</ele>
        <time>2013-04-29T00:12:22Z</time>
      </trkpt>
      <trkpt lat="44.88968" lon="-0.68744">
        <ele>16</ele>
        <time>2013-04-29T00:12:28Z</time>
      </trkpt>
      <trkpt lat="44.88976" lon="-0.68799">
        <ele>17</ele>
        <time>2013-04-29T00:12:35Z</time>
      </trkpt>
      <trkpt lat="44.89006" lon="-0.68922">
        <ele>19</ele>
        <time>2013-04-29T00:12:51Z</time>
      </trkpt>
      <trkpt lat="44.89021" lon="-0.68982">
        <ele>19</ele>
        <time>2013-04-29T00:12:58Z</time>
      </trkpt>
      <trkpt lat="44.89057" lon="-0.69139">
        <ele>21</ele>
        <time>2013-04-29T00:13:18Z</time>
      </trkpt>
      <trkpt lat="44.89077" lon="-0.69226">
        <ele>19</ele>
        <time>2013-04-29T00:13:26Z</time>
      </trkpt>
      <trkpt lat="44.89093" lon="-0.69297">
        <ele>19</ele>
        <time>2013-04-29T00:13:33Z</time>
      </trkpt>
      <trkpt lat="44.89106" lon="-0.69353">
        <ele>19</ele>
        <time>2013-04-29T00:13:39Z</time>
      </trkpt>
      <trkpt lat="44.89132" lon="-0.69471">
        <ele>19</ele>
        <time>2013-04-29T00:13:51Z</time>
      </trkpt>
      <trkpt lat="44.89169" lon="-0.69619">
        <ele>20</ele>
        <time>2013-04-29T00:14:08Z</time>
      </trkpt>
      <trkpt lat="44.89213" lon="-0.69813">
        <ele>18</ele>
        <time>2013-04-29T00:14:27Z</time>
      </trkpt>
      <trkpt lat="44.89226" lon="-0.6987">
        <ele>17</ele>
        <time>2013-04-29T00:14:33Z</time>
      </trkpt>
      <trkpt lat="44.89262" lon="-0.70025">
        <ele>15</ele>
        <time>2013-04-29T00:14:48Z</time>
      </trkpt>
      <trkpt lat="44.89273" lon="-0.70073">
        <ele>15</ele>
        <time>2013-04-29T00:14:55Z</time>
      </trkpt>
      <trkpt lat="44.8929" lon="-0.70149">
        <ele>17</ele>
        <time>2013-04-29T00:15:05Z</time>
      </trkpt>
      <trkpt lat="44.89297" lon="-0.70189">
        <ele>17</ele>
        <time>2013-04-29T00:15:11Z</time>
      </trkpt>
      <trkpt lat="44.89313" lon="-0.70287">
        <ele>19</ele>
        <time>2013-04-29T00:15:24Z</time>
      </trkpt>
      <trkpt lat="44.89326" lon="-0.70378">
        <ele>17</ele>
        <time>2013-04-29T00:15:32Z</time>
      </trkpt>
      <trkpt lat="44.8933" lon="-0.70464">
        <ele>16</ele>
        <time>2013-04-29T00:15:40Z</time>
      </trkpt>
      <trkpt lat="44.8933" lon="-0.70496">
        <ele>16</ele>
        <time>2013-04-29T00:15:43Z</time>
      </trkpt>
      <trkpt lat="44.89331" lon="-0.70576">
        <ele>16</ele>
        <time>2013-04-29T00:15:51Z</time>
      </trkpt>
      <trkpt lat="44.89322" lon="-0.70718">
        <ele>16</ele>
        <time>2013-04-29T00:16:05Z</time>
      </trkpt>
      <trkpt lat="44.89311" lon="-0.70789">
        <ele>16</ele>
        <time>2013-04-29T00:16:11Z</time>
      </trkpt>
      <trkpt lat="44.89293" lon="-0.70887">
        <ele>16</ele>
        <time>2013-04-29T00:16:21Z</time>
      </trkpt>
      <trkpt lat="44.89284" lon="-0.70936">
        <ele>16</ele>
        <time>2013-04-29T00:16:26Z</time>
      </trkpt>
      <trkpt lat="44.89277" lon="-0.70977">
        <ele>16</ele>
        <time>2013-04-29T00:16:30Z</time>
      </trkpt>
      <trkpt lat="44.89272" lon="-0.71006">
        <ele>16</ele>
        <time>2013-04-29T00:16:33Z</time>
      </trkpt>
      <trkpt lat="44.89268" lon="-0.71032">
        <ele>16</ele>
        <time>2013-04-29T00:16:35Z</time>
      </trkpt>
      <trkpt lat="44.89264" lon="-0.7105">
        <ele>16</ele>
        <time>2013-04-29T00:16:38Z</time>
      </trkpt>
      <trkpt lat="44.89257" lon="-0.71121">
        <ele>17</ele>
        <time>2013-04-29T00:16:48Z</time>
      </trkpt>
      <trkpt lat="44.89255" lon="-0.71183">
        <ele>19</ele>
        <time>2013-04-29T00:16:57Z</time>
      </trkpt>
      <trkpt lat="44.89259" lon="-0.71246">
        <ele>18</ele>
        <time>2013-04-29T00:17:03Z</time>
      </trkpt>
      <trkpt lat="44.89262" lon="-0.71277">
        <ele>18</ele>
        <time>2013-04-29T00:17:06Z</time>
      </trkpt>
      <trkpt lat="44.8927" lon="-0.71327">
        <ele>18</ele>
        <time>2013-04-29T00:17:11Z</time>
      </trkpt>
      <trkpt lat="44.89309" lon="-0.71497">
        <ele>21</ele>
        <time>2013-04-29T00:17:35Z</time>
      </trkpt>
      <trkpt lat="44.89324" lon="-0.71565">
        <ele>21</ele>
        <time>2013-04-29T00:17:41Z</time>
      </trkpt>
      <trkpt lat="44.89347" lon="-0.71666">
        <ele>21</ele>
        <time>2013-04-29T00:17:51Z</time>
      </trkpt>
      <trkpt lat="44.89371" lon="-0.71772">
        <ele>23</ele>
        <time>2013-04-29T00:18:08Z</time>
      </trkpt>
      <trkpt lat="44.89376" lon="-0.71792">
        <ele>24</ele>
        <time>2013-04-29T00:18:11Z</time>
      </trkpt>
      <trkpt lat="44.89385" lon="-0.71871">
        <ele>24</ele>
        <time>2013-04-29T00:18:19Z</time>
      </trkpt>
      <trkpt lat="44.89386" lon="-0.71923">
        <ele>24</ele>
        <time>2013-04-29T00:18:24Z</time>
      </trkpt>
      <trkpt lat="44.89387" lon="-0.71953">
        <ele>24</ele>
        <time>2013-04-29T00:18:28Z</time>
      </trkpt>
      <trkpt lat="44.89387" lon="-0.72001">
        <ele>25</ele>
        <time>2013-04-29T00:18:34Z</time>
      </trkpt>
      <trkpt lat="44.89381" lon="-0.72064">
        <ele>26</ele>
        <time>2013-04-29T00:18:42Z</time>
      </trkpt>
      <trkpt lat="44.89371" lon="-0.72118">
        <ele>25</ele>
        <time>2013-04-29T00:18:47Z</time>
      </trkpt>
      <trkpt lat="44.89357" lon="-0.72176">
        <ele>24</ele>
        <time>2013-04-29T00:18:53Z</time>
      </trkpt>
      <trkpt lat="44.89338" lon="-0.72242">
        <ele>24</ele>
        <time>2013-04-29T00:19:00Z</time>
      </trkpt>
      <trkpt lat="44.89322" lon="-0.72295">
        <ele>24</ele>
        <time>2013-04-29T00:19:05Z</time>
      </trkpt>
      <trkpt lat="44.89313" lon="-0.72313">
        <ele>24</ele>
        <time>2013-04-29T00:19:07Z</time>
      </trkpt>
      <trkpt lat="44.89301" lon="-0.72336">
        <ele>24</ele>
        <time>2013-04-29T00:19:10Z</time>
      </trkpt>
      <trkpt lat="44.8927" lon="-0.7239">
        <ele>24</ele>
        <time>2013-04-29T00:19:17Z</time>
      </trkpt>
      <trkpt lat="44.89247" lon="-0.72447">
        <ele>24</ele>
        <time>2013-04-29T00:19:24Z</time>
      </trkpt>
      <trkpt lat="44.89225" lon="-0.72509">
        <ele>25</ele>
        <time>2013-04-29T00:19:32Z</time>
      </trkpt>
      <trkpt lat="44.89223" lon="-0.72517">
        <ele>24</ele>
        <time>2013-04-29T00:19:32Z</time>
      </trkpt>
      <trkpt lat="44.8921" lon="-0.72558">
        <ele>24</ele>
        <time>2013-04-29T00:19:37Z</time>
      </trkpt>
      <trkpt lat="44.89205" lon="-0.72574">
        <ele>24</ele>
        <time>2013-04-29T00:19:38Z</time>
      </trkpt>
      <trkpt lat="44.89191" lon="-0.72638">
        <ele>24</ele>
        <time>2013-04-29T00:19:45Z</time>
      </trkpt>
      <trkpt lat="44.89182" lon="-0.72702">
        <ele>25</ele>
        <time>2013-04-29T00:19:53Z</time>
      </trkpt>
      <trkpt lat="44.89171" lon="-0.72753">
        <ele>25</ele>
        <time>2013-04-29T00:20:00Z</time>
      </trkpt>
      <trkpt lat="44.89151" lon="-0.72819">
        <ele>27</ele>
        <time>2013-04-29T00:20:10Z</time>
      </trkpt>
      <trkpt lat="44.89129" lon="-0.72884">
        <ele>27</ele>
        <time>2013-04-29T00:20:18Z</time>
      </trkpt>
      <trkpt lat="44.8912" lon="-0.7291">
        <ele>27</ele>
        <time>2013-04-29T00:20:22Z</time>
      </trkpt>
      <trkpt lat="44.89089" lon="-0.73016">
        <ele>29</ele>
        <time>2013-04-29T00:20:35Z</time>
      </trkpt>
      <trkpt lat="44.89054" lon="-0.73175">
        <ele>26</ele>
        <time>2013-04-29T00:20:51Z</time>
      </trkpt>
      <trkpt lat="44.89036" lon="-0.73258">
        <ele>26</ele>
        <time>2013-04-29T00:20:59Z</time>
      </trkpt>
      <trkpt lat="44.89022" lon="-0.73326">
        <ele>26</ele>
        <time>2013-04-29T00:21:06Z</time>
      </trkpt>
      <trkpt lat="44.89012" lon="-0.73381">
        <ele>27</ele>
        <time>2013-04-29T00:21:14Z</time>
      </trkpt>
      <trkpt lat="44.89005" lon="-0.73432">
        <ele>28</ele>
        <time>2013-04-29T00:21:22Z</time>
      </trkpt>
      <trkpt lat="44.88994" lon="-0.7351">
        <ele>30</ele>
        <time>2013-04-29T00:21:33Z</time>
      </trkpt>
      <trkpt lat="44.88985" lon="-0.7359">
        <ele>30</ele>
        <time>2013-04-29T00:21:41Z</time>
      </trkpt>
      <trkpt lat="44.88984" lon="-0.73601">
        <ele>30</ele>
        <time>2013-04-29T00:21:42Z</time>
      </trkpt>
      <trkpt lat="44.88973" lon="-0.73698">
        <ele>30</ele>
        <time>2013-04-29T00:21:51Z</time>
      </trkpt>
      <trkpt lat="44.88971" lon="-0.7373">
        <ele>29</ele>
        <time>2013-04-29T00:21:54Z</time>
      </trkpt>
      <trkpt lat="44.88965" lon="-0.73814">
        <ele>29</ele>
        <time>2013-04-29T00:22:02Z</time>
      </trkpt>
      <trkpt lat="44.88964" lon="-0.73873">
        <ele>29</ele>
        <time>2013-04-29T00:22:08Z</time>
      </trkpt>
      <trkpt lat="44.88962" lon="-0.7393">
        <ele>29</ele>
        <time>2013-04-29T00:22:14Z</time>
      </trkpt>
      <trkpt lat="44.88965" lon="-0.74107">
        <ele>30</ele>
        <time>2013-04-29T00:22:32Z</time>
      </trkpt>
      <trkpt lat="44.88969" lon="-0.74233">
        <ele>29</ele>
        <time>2013-04-29T00:22:44Z</time>
      </trkpt>
      <trkpt lat="44.88971" lon="-0.74242">
        <ele>29</ele>
        <time>2013-04-29T00:22:45Z</time>
      </trkpt>
      <trkpt lat="44.88979" lon="-0.74248">
        <ele>29</ele>
        <time>2013-04-29T00:22:46Z</time>
      </trkpt>
      <trkpt lat="44.88975" lon="-0.7426">
        <ele>29</ele>
        <time>2013-04-29T00:22:48Z</time>
      </trkpt>
      <trkpt lat="44.88967" lon="-0.7429">
        <ele>29</ele>
        <time>2013-04-29T00:22:51Z</time>
      </trkpt>
      <trkpt lat="44.88972" lon="-0.74303">
        <ele>29</ele>
        <time>2013-04-29T00:22:52Z</time>
      </trkpt>
      <trkpt lat="44.88974" lon="-0.74362">
        <ele>29</ele>
        <time>2013-04-29T00:22:58Z</time>
      </trkpt>
      <trkpt lat="44.88975" lon="-0.74378">
        <ele>29</ele>
        <time>2013-04-29T00:23:00Z</time>
      </trkpt>
      <trkpt lat="44.88984" lon="-0.74576">
        <ele>33</ele>
        <time>2013-04-29T00:23:28Z</time>
      </trkpt>
      <trkpt lat="44.88992" lon="-0.74775">
        <ele>32</ele>
        <time>2013-04-29T00:23:47Z</time>
      </trkpt>
      <trkpt lat="44.88994" lon="-0.7483">
        <ele>32</ele>
        <time>2013-04-29T00:23:52Z</time>
      </trkpt>
      <trkpt lat="44.88998" lon="-0.74881">
        <ele>32</ele>
        <time>2013-04-29T00:23:57Z</time>
      </trkpt>
      <trkpt lat="44.89" lon="-0.74916">
        <ele>32</ele>
        <time>2013-04-29T00:24:00Z</time>
      </trkpt>
      <trkpt lat="44.89" lon="-0.74922">
        <ele>32</ele>
        <time>2013-04-29T00:24:01Z</time>
      </trkpt>
      <trkpt lat="44.89032" lon="-0.7515">
        <ele>34</ele>
        <time>2013-04-29T00:24:27Z</time>
      </trkpt>
      <trkpt lat="44.8908" lon="-0.75389">
        <ele>33</ele>
        <time>2013-04-29T00:24:51Z</time>
      </trkpt>
      <trkpt lat="44.89089" lon="-0.75423">
        <ele>33</ele>
        <time>2013-04-29T00:24:55Z</time>
      </trkpt>
      <trkpt lat="44.89115" lon="-0.75526">
        <ele>34</ele>
        <time>2013-04-29T00:25:07Z</time>
      </trkpt>
      <trkpt lat="44.89162" lon="-0.75667">
        <ele>35</ele>
        <time>2013-04-29T00:25:24Z</time>
      </trkpt>
      <trkpt lat="44.89171" lon="-0.75694">
        <ele>35</ele>
        <time>2013-04-29T00:25:28Z</time>
      </trkpt>
      <trkpt lat="44.89183" lon="-0.75731">
        <ele>35</ele>
        <time>2013-04-29T00:25:33Z</time>
      </trkpt>
      <trkpt lat="44.89213" lon="-0.75811">
        <ele>37</ele>
        <time>2013-04-29T00:25:44Z</time>
      </trkpt>
      <trkpt lat="44.8928" lon="-0.75972">
        <ele>37</ele>
        <time>2013-04-29T00:26:02Z</time>
      </trkpt>
      <trkpt lat="44.89303" lon="-0.76017">
        <ele>37</ele>
        <time>2013-04-29T00:26:07Z</time>
      </trkpt>
      <trkpt lat="44.89328" lon="-0.76066">
        <ele>37</ele>
        <time>2013-04-29T00:26:13Z</time>
      </trkpt>
      <trkpt lat="44.89334" lon="-0.76077">
        <ele>37</ele>
        <time>2013-04-29T00:26:14Z</time>
      </trkpt>
      <trkpt lat="44.89401" lon="-0.76196">
        <ele>36</ele>
        <time>2013-04-29T00:26:28Z</time>
      </trkpt>
      <trkpt lat="44.89437" lon="-0.76259">
        <ele>39</ele>
        <time>2013-04-29T00:26:44Z</time>
      </trkpt>
      <trkpt lat="44.8947" lon="-0.76313">
        <ele>42</ele>
        <time>2013-04-29T00:26:57Z</time>
      </trkpt>
      <trkpt lat="44.8956" lon="-0.76463">
        <ele>41</ele>
        <time>2013-04-29T00:27:16Z</time>
      </trkpt>
      <trkpt lat="44.89689" lon="-0.76678">
        <ele>38</ele>
        <time>2013-04-29T00:27:43Z</time>
      </trkpt>
      <trkpt lat="44.89747" lon="-0.76774">
        <ele>39</ele>
        <time>2013-04-29T00:27:57Z</time>
      </trkpt>
      <trkpt lat="44.89905" lon="-0.77039">
        <ele>42</ele>
        <time>2013-04-29T00:28:37Z</time>
      </trkpt>
      <trkpt lat="44.90003" lon="-0.77199">
        <ele>41</ele>
        <time>2013-04-29T00:28:57Z</time>
      </trkpt>
      <trkpt lat="44.90308" lon="-0.77705">
        <ele>44</ele>
        <time>2013-04-29T00:30:07Z</time>
      </trkpt>
      <trkpt lat="44.90496" lon="-0.78017">
        <ele>42</ele>
        <time>2013-04-29T00:30:46Z</time>
      </trkpt>
      <trkpt lat="44.9064" lon="-0.78255">
        <ele>46</ele>
        <time>2013-04-29T00:31:25Z</time>
      </trkpt>
      <trkpt lat="44.91073" lon="-0.78974">
        <ele>42</ele>
        <time>2013-04-29T00:32:54Z</time>
      </trkpt>
      <trkpt lat="44.91108" lon="-0.79032">
        <ele>42</ele>
        <time>2013-04-29T00:33:02Z</time>
      </trkpt>
      <trkpt lat="44.92336" lon="-0.81075">
        <ele>53</ele>
        <time>2013-04-29T00:37:41Z</time>
      </trkpt>
      <trkpt lat="44.93105" lon="-0.82363">
        <ele>49</ele>
        <time>2013-04-29T00:40:21Z</time>
      </trkpt>
      <trkpt lat="44.93363" lon="-0.82787">
        <ele>48</ele>
        <time>2013-04-29T00:41:14Z</time>
      </trkpt>
      <trkpt lat="44.93382" lon="-0.8282">
        <ele>48</ele>
        <time>2013-04-29T00:41:18Z</time>
      </trkpt>
      <trkpt lat="44.93386" lon="-0.82828">
        <ele>48</ele>
        <time>2013-04-29T00:41:19Z</time>
      </trkpt>
      <trkpt lat="44.93579" lon="-0.83164">
        <ele>49</ele>
        <time>2013-04-29T00:42:02Z</time>
      </trkpt>
      <trkpt lat="44.93636" lon="-0.83262">
        <ele>49</ele>
        <time>2013-04-29T00:42:14Z</time>
      </trkpt>
      <trkpt lat="44.93636" lon="-0.83284">
        <ele>49</ele>
        <time>2013-04-29T00:42:16Z</time>
      </trkpt>
      <trkpt lat="44.9357" lon="-0.83362">
        <ele>48</ele>
        <time>2013-04-29T00:42:27Z</time>
      </trkpt>
      <trkpt lat="44.93602" lon="-0.83401">
        <ele>48</ele>
        <time>2013-04-29T00:42:33Z</time>
      </trkpt>
      <trkpt lat="44.93682" lon="-0.83553">
        <ele>48</ele>
        <time>2013-04-29T00:42:51Z</time>
      </trkpt>
      <trkpt lat="44.9374" lon="-0.83506">
        <ele>48</ele>
        <time>2013-04-29T00:43:00Z</time>
      </trkpt>
      <trkpt lat="44.9378" lon="-0.83507">
        <ele>48</ele>
        <time>2013-04-29T00:43:05Z</time>
      </trkpt>
      <trkpt lat="44.93861" lon="-0.83647">
        <ele>47</ele>
        <time>2013-04-29T00:43:22Z</time>
      </trkpt>
      <trkpt lat="44.94022" lon="-0.83925">
        <ele>51</ele>
        <time>2013-04-29T00:44:06Z</time>
      </trkpt>
      <trkpt lat="44.9453" lon="-0.84798">
        <ele>49</ele>
        <time>2013-04-29T00:45:53Z</time>
      </trkpt>
      <trkpt lat="44.94784" lon="-0.85229">
        <ele>50</ele>
        <time>2013-04-29T00:46:48Z</time>
      </trkpt>
      <trkpt lat="44.9482" lon="-0.8529">
        <ele>50</ele>
        <time>2013-04-29T00:46:56Z</time>
      </trkpt>
      <trkpt lat="44.9482" lon="-0.8529">
        <ele>50</ele>
        <time>2013-04-29T00:46:57Z</time>
      </trkpt>
      <trkpt lat="44.94938" lon="-0.85489">
        <ele>46</ele>
        <time>2013-04-29T00:47:21Z</time>
      </trkpt>
      <trkpt lat="44.95049" lon="-0.8568">
        <ele>48</ele>
        <time>2013-04-29T00:47:49Z</time>
      </trkpt>
      <trkpt lat="44.95313" lon="-0.86132">
        <ele>46</ele>
        <time>2013-04-29T00:48:45Z</time>
      </trkpt>
      <trkpt lat="44.95622" lon="-0.86674">
        <ele>51</ele>
        <time>2013-04-29T00:50:03Z</time>
      </trkpt>
      <trkpt lat="44.95656" lon="-0.86733">
        <ele>50</ele>
        <time>2013-04-29T00:50:10Z</time>
      </trkpt>
      <trkpt lat="44.95948" lon="-0.87221">
        <ele>45</ele>
        <time>2013-04-29T00:51:10Z</time>
      </trkpt>
      <trkpt lat="44.96043" lon="-0.87408">
        <ele>45</ele>
        <time>2013-04-29T00:51:32Z</time>
      </trkpt>
      <trkpt lat="44.96088" lon="-0.87552">
        <ele>45</ele>
        <time>2013-04-29T00:51:47Z</time>
      </trkpt>
      <trkpt lat="44.96128" lon="-0.87716">
        <ele>47</ele>
        <time>2013-04-29T00:52:08Z</time>
      </trkpt>
      <trkpt lat="44.96145" lon="-0.87843">
        <ele>48</ele>
        <time>2013-04-29T00:52:23Z</time>
      </trkpt>
      <trkpt lat="44.96152" lon="-0.87978">
        <ele>46</ele>
        <time>2013-04-29T00:52:35Z</time>
      </trkpt>
      <trkpt lat="44.96149" lon="-0.88143">
        <ele>46</ele>
        <time>2013-04-29T00:52:51Z</time>
      </trkpt>
      <trkpt lat="44.96141" lon="-0.88232">
        <ele>45</ele>
        <time>2013-04-29T00:53:00Z</time>
      </trkpt>
      <trkpt lat="44.96124" lon="-0.88303">
        <ele>45</ele>
        <time>2013-04-29T00:53:07Z</time>
      </trkpt>
      <trkpt lat="44.96091" lon="-0.88414">
        <ele>44</ele>
        <time>2013-04-29T00:53:18Z</time>
      </trkpt>
      <trkpt lat="44.9606" lon="-0.8852">
        <ele>44</ele>
        <time>2013-04-29T00:53:29Z</time>
      </trkpt>
      <trkpt lat="44.96023" lon="-0.88649">
        <ele>44</ele>
        <time>2013-04-29T00:53:42Z</time>
      </trkpt>
      <trkpt lat="44.95984" lon="-0.88759">
        <ele>44</ele>
        <time>2013-04-29T00:53:54Z</time>
      </trkpt>
      <trkpt lat="44.9592" lon="-0.88883">
        <ele>44</ele>
        <time>2013-04-29T00:54:08Z</time>
      </trkpt>
      <trkpt lat="44.95808" lon="-0.89039">
        <ele>45</ele>
        <time>2013-04-29T00:54:32Z</time>
      </trkpt>
      <trkpt lat="44.95536" lon="-0.89413">
        <ele>47</ele>
        <time>2013-04-29T00:55:27Z</time>
      </trkpt>
      <trkpt lat="44.95318" lon="-0.89715">
        <ele>44</ele>
        <time>2013-04-29T00:56:08Z</time>
      </trkpt>
      <trkpt lat="44.95258" lon="-0.898">
        <ele>43</ele>
        <time>2013-04-29T00:56:19Z</time>
      </trkpt>
      <trkpt lat="44.95111" lon="-0.90007">
        <ele>41</ele>
        <time>2013-04-29T00:56:47Z</time>
      </trkpt>
      <trkpt lat="44.94923" lon="-0.90256">
        <ele>41</ele>
        <time>2013-04-29T00:57:21Z</time>
      </trkpt>
      <trkpt lat="44.94757" lon="-0.90494">
        <ele>46</ele>
        <time>2013-04-29T00:58:05Z</time>
      </trkpt>
      <trkpt lat="44.94426" lon="-0.91049">
        <ele>45</ele>
        <time>2013-04-29T00:59:14Z</time>
      </trkpt>
      <trkpt lat="44.94402" lon="-0.91104">
        <ele>44</ele>
        <time>2013-04-29T00:59:20Z</time>
      </trkpt>
      <trkpt lat="44.94308" lon="-0.91326">
        <ele>43</ele>
        <time>2013-04-29T00:59:44Z</time>
      </trkpt>
      <trkpt lat="44.94143" lon="-0.91783">
        <ele>44</ele>
        <time>2013-04-29T01:00:35Z</time>
      </trkpt>
      <trkpt lat="44.92085" lon="-0.97951">
        <ele>35</ele>
        <time>2013-04-29T01:11:20Z</time>
      </trkpt>
      <trkpt lat="44.92001" lon="-0.98202">
        <ele>37</ele>
        <time>2013-04-29T01:11:51Z</time>
      </trkpt>
      <trkpt lat="44.91982" lon="-0.98297">
        <ele>36</ele>
        <time>2013-04-29T01:12:00Z</time>
      </trkpt>
      <trkpt lat="44.91936" lon="-0.98652">
        <ele>34</ele>
        <time>2013-04-29T01:12:34Z</time>
      </trkpt>
      <trkpt lat="44.91936" lon="-0.98652">
        <ele>34</ele>
        <time>2013-04-29T01:12:35Z</time>
      </trkpt>
      <trkpt lat="44.91923" lon="-0.9875">
        <ele>35</ele>
        <time>2013-04-29T01:12:48Z</time>
      </trkpt>
      <trkpt lat="44.91931" lon="-0.98817">
        <ele>36</ele>
        <time>2013-04-29T01:12:56Z</time>
      </trkpt>
      <trkpt lat="44.9197" lon="-0.99107">
        <ele>38</ele>
        <time>2013-04-29T01:13:29Z</time>
      </trkpt>
      <trkpt lat="44.92037" lon="-0.9941">
        <ele>33</ele>
        <time>2013-04-29T01:13:59Z</time>
      </trkpt>
      <trkpt lat="44.92052" lon="-0.99449">
        <ele>32</ele>
        <time>2013-04-29T01:14:03Z</time>
      </trkpt>
      <trkpt lat="44.92326" lon="-1.00532">
        <ele>30</ele>
        <time>2013-04-29T01:15:52Z</time>
      </trkpt>
      <trkpt lat="44.92428" lon="-1.00929">
        <ele>36</ele>
        <time>2013-04-29T01:16:46Z</time>
      </trkpt>
      <trkpt lat="44.92537" lon="-1.01228">
        <ele>30</ele>
        <time>2013-04-29T01:17:18Z</time>
      </trkpt>
      <trkpt lat="44.92562" lon="-1.01278">
        <ele>29</ele>
        <time>2013-04-29T01:17:24Z</time>
      </trkpt>
      <trkpt lat="44.92738" lon="-1.01588">
        <ele>27</ele>
        <time>2013-04-29T01:18:01Z</time>
      </trkpt>
      <trkpt lat="44.94783" lon="-1.04775">
        <ele>21</ele>
        <time>2013-04-29T01:24:48Z</time>
      </trkpt>
      <trkpt lat="44.95972" lon="-1.06611">
        <ele>17</ele>
        <time>2013-04-29T01:28:43Z</time>
      </trkpt>
      <trkpt lat="44.96398" lon="-1.07273">
        <ele>17</ele>
        <time>2013-04-29T01:30:08Z</time>
      </trkpt>
      <trkpt lat="44.96401" lon="-1.0728">
        <ele>17</ele>
        <time>2013-04-29T01:30:09Z</time>
      </trkpt>
      <trkpt lat="44.96416" lon="-1.07303">
        <ele>17</ele>
        <time>2013-04-29T01:30:12Z</time>
      </trkpt>
      <trkpt lat="44.9662" lon="-1.07613">
        <ele>18</ele>
        <time>2013-04-29T01:30:54Z</time>
      </trkpt>
      <trkpt lat="44.96689" lon="-1.07707">
        <ele>18</ele>
        <time>2013-04-29T01:31:07Z</time>
      </trkpt>
      <trkpt lat="44.96757" lon="-1.07782">
        <ele>18</ele>
        <time>2013-04-29T01:31:18Z</time>
      </trkpt>
      <trkpt lat="44.96846" lon="-1.07866">
        <ele>18</ele>
        <time>2013-04-29T01:31:33Z</time>
      </trkpt>
      <trkpt lat="44.96932" lon="-1.07926">
        <ele>21</ele>
        <time>2013-04-29T01:31:53Z</time>
      </trkpt>
      <trkpt lat="44.96991" lon="-1.07959">
        <ele>19</ele>
        <time>2013-04-29T01:32:01Z</time>
      </trkpt>
      <trkpt lat="44.97061" lon="-1.07989">
        <ele>17</ele>
        <time>2013-04-29T01:32:11Z</time>
      </trkpt>
      <trkpt lat="44.97146" lon="-1.08019">
        <ele>17</ele>
        <time>2013-04-29T01:32:23Z</time>
      </trkpt>
      <trkpt lat="44.97202" lon="-1.08034">
        <ele>17</ele>
        <time>2013-04-29T01:32:30Z</time>
      </trkpt>
      <trkpt lat="44.97285" lon="-1.0805">
        <ele>18</ele>
        <time>2013-04-29T01:32:44Z</time>
      </trkpt>
      <trkpt lat="44.97356" lon="-1.08056">
        <ele>19</ele>
        <time>2013-04-29T01:32:56Z</time>
      </trkpt>
      <trkpt lat="44.97432" lon="-1.08064">
        <ele>19</ele>
        <time>2013-04-29T01:33:06Z</time>
      </trkpt>
      <trkpt lat="44.97469" lon="-1.08064">
        <ele>19</ele>
        <time>2013-04-29T01:33:11Z</time>
      </trkpt>
      <trkpt lat="44.97478" lon="-1.08068">
        <ele>18</ele>
        <time>2013-04-29T01:33:12Z</time>
      </trkpt>
      <trkpt lat="44.97493" lon="-1.08094">
        <ele>18</ele>
        <time>2013-04-29T01:33:15Z</time>
      </trkpt>
      <trkpt lat="44.97503" lon="-1.08102">
        <ele>18</ele>
        <time>2013-04-29T01:33:17Z</time>
      </trkpt>
      <trkpt lat="44.97515" lon="-1.08102">
        <ele>17</ele>
        <time>2013-04-29T01:33:18Z</time>
      </trkpt>
      <trkpt lat="44.97622" lon="-1.08113">
        <ele>16</ele>
        <time>2013-04-29T01:33:33Z</time>
      </trkpt>
      <trkpt lat="44.97632" lon="-1.08109">
        <ele>15</ele>
        <time>2013-04-29T01:33:34Z</time>
      </trkpt>
      <trkpt lat="44.9764" lon="-1.08094">
        <ele>15</ele>
        <time>2013-04-29T01:33:36Z</time>
      </trkpt>
      <trkpt lat="44.97646" lon="-1.08066">
        <ele>15</ele>
        <time>2013-04-29T01:33:39Z</time>
      </trkpt>
      <trkpt lat="44.97647" lon="-1.08051">
        <ele>14</ele>
        <time>2013-04-29T01:33:40Z</time>
      </trkpt>
      <trkpt lat="44.97651" lon="-1.08042">
        <ele>14</ele>
        <time>2013-04-29T01:33:41Z</time>
      </trkpt>
      <trkpt lat="44.97656" lon="-1.08039">
        <ele>14</ele>
        <time>2013-04-29T01:33:42Z</time>
      </trkpt>
      <trkpt lat="44.97686" lon="-1.08042">
        <ele>14</ele>
        <time>2013-04-29T01:33:46Z</time>
      </trkpt>
      <trkpt lat="44.97704" lon="-1.08044">
        <ele>14</ele>
        <time>2013-04-29T01:33:49Z</time>
      </trkpt>
      <trkpt lat="44.97713" lon="-1.08049">
        <ele>14</ele>
        <time>2013-04-29T01:33:50Z</time>
      </trkpt>
      <trkpt lat="44.97732" lon="-1.08087">
        <ele>14</ele>
        <time>2013-04-29T01:33:55Z</time>
      </trkpt>
      <trkpt lat="44.97736" lon="-1.0809">
        <ele>14</ele>
        <time>2013-04-29T01:33:56Z</time>
      </trkpt>
      <trkpt lat="44.97801" lon="-1.08097">
        <ele>15</ele>
        <time>2013-04-29T01:34:06Z</time>
      </trkpt>
      <trkpt lat="44.97821" lon="-1.08099">
        <ele>15</ele>
        <time>2013-04-29T01:34:08Z</time>
      </trkpt>
      <trkpt lat="44.9782" lon="-1.08146">
        <ele>15</ele>
        <time>2013-04-29T01:34:13Z</time>
      </trkpt>
      <trkpt lat="44.9782" lon="-1.08195">
        <ele>15</ele>
        <time>2013-04-29T01:34:17Z</time>
      </trkpt>
      <trkpt lat="44.97792" lon="-1.08194">
        <ele>15</ele>
        <time>2013-04-29T01:34:21Z</time>
      </trkpt>
      <trkpt lat="44.97792" lon="-1.08194">
        <ele>15</ele>
        <time>2013-04-29T01:34:22Z</time>
      </trkpt>
      <trkpt lat="44.9782" lon="-1.08195">
        <ele>15</ele>
        <time>2013-04-29T01:34:26Z</time>
      </trkpt>
      <trkpt lat="44.97818" lon="-1.08383">
        <ele>16</ele>
        <time>2013-04-29T01:34:46Z</time>
      </trkpt>
      <trkpt lat="44.97818" lon="-1.08392">
        <ele>16</ele>
        <time>2013-04-29T01:34:47Z</time>
      </trkpt>
      <trkpt lat="44.97815" lon="-1.0872">
        <ele>17</ele>
        <time>2013-04-29T01:35:20Z</time>
      </trkpt>
      <trkpt lat="44.97814" lon="-1.08822">
        <ele>16</ele>
        <time>2013-04-29T01:35:30Z</time>
      </trkpt>
      <trkpt lat="44.97814" lon="-1.09136">
        <ele>15</ele>
        <time>2013-04-29T01:36:00Z</time>
      </trkpt>
      <trkpt lat="44.97815" lon="-1.09164">
        <ele>14</ele>
        <time>2013-04-29T01:36:02Z</time>
      </trkpt>
      <trkpt lat="44.97815" lon="-1.0919">
        <ele>13</ele>
        <time>2013-04-29T01:36:05Z</time>
      </trkpt>
      <trkpt lat="44.97817" lon="-1.09206">
        <ele>13</ele>
        <time>2013-04-29T01:36:06Z</time>
      </trkpt>
      <trkpt lat="44.97828" lon="-1.09224">
        <ele>12</ele>
        <time>2013-04-29T01:36:08Z</time>
      </trkpt>
      <trkpt lat="44.97835" lon="-1.09225">
        <ele>12</ele>
        <time>2013-04-29T01:36:09Z</time>
      </trkpt>
      <trkpt lat="44.97861" lon="-1.09227">
        <ele>12</ele>
        <time>2013-04-29T01:36:13Z</time>
      </trkpt>
      <trkpt lat="44.97885" lon="-1.0923">
        <ele>12</ele>
        <time>2013-04-29T01:36:18Z</time>
      </trkpt>
      <trkpt lat="44.97947" lon="-1.09296">
        <ele>15</ele>
        <time>2013-04-29T01:36:34Z</time>
      </trkpt>
      <trkpt lat="44.97984" lon="-1.09335">
        <ele>15</ele>
        <time>2013-04-29T01:36:40Z</time>
      </trkpt>
      <trkpt lat="44.97992" lon="-1.09356">
        <ele>15</ele>
        <time>2013-04-29T01:36:42Z</time>
      </trkpt>
      <trkpt lat="44.98004" lon="-1.09444">
        <ele>15</ele>
        <time>2013-04-29T01:36:51Z</time>
      </trkpt>
      <trkpt lat="44.98025" lon="-1.09502">
        <ele>16</ele>
        <time>2013-04-29T01:37:00Z</time>
      </trkpt>
      <trkpt lat="44.98089" lon="-1.09625">
        <ele>19</ele>
        <time>2013-04-29T01:37:21Z</time>
      </trkpt>
      <trkpt lat="44.98113" lon="-1.09653">
        <ele>18</ele>
        <time>2013-04-29T01:37:25Z</time>
      </trkpt>
      <trkpt lat="44.98181" lon="-1.09734">
        <ele>16</ele>
        <time>2013-04-29T01:37:37Z</time>
      </trkpt>
      <trkpt lat="44.98256" lon="-1.09784">
        <ele>16</ele>
        <time>2013-04-29T01:37:48Z</time>
      </trkpt>
      <trkpt lat="44.9833" lon="-1.09835">
        <ele>16</ele>
        <time>2013-04-29T01:37:59Z</time>
      </trkpt>
      <trkpt lat="44.98368" lon="-1.09867">
        <ele>16</ele>
        <time>2013-04-29T01:38:06Z</time>
      </trkpt>
      <trkpt lat="44.98504" lon="-1.10034">
        <ele>18</ele>
        <time>2013-04-29T01:38:34Z</time>
      </trkpt>
      <trkpt lat="44.98524" lon="-1.10048">
        <ele>18</ele>
        <time>2013-04-29T01:38:37Z</time>
      </trkpt>
      <trkpt lat="44.98539" lon="-1.10054">
        <ele>18</ele>
        <time>2013-04-29T01:38:39Z</time>
      </trkpt>
      <trkpt lat="44.98643" lon="-1.10107">
        <ele>18</ele>
        <time>2013-04-29T01:38:53Z</time>
      </trkpt>
      <trkpt lat="44.98643" lon="-1.10107">
        <ele>18</ele>
        <time>2013-04-29T01:38:54Z</time>
      </trkpt>
      <trkpt lat="44.98735" lon="-1.10154">
        <ele>17</ele>
        <time>2013-04-29T01:39:08Z</time>
      </trkpt>
      <trkpt lat="44.98751" lon="-1.10146">
        <ele>17</ele>
        <time>2013-04-29T01:39:12Z</time>
      </trkpt>
      <trkpt lat="44.98757" lon="-1.10131">
        <ele>18</ele>
        <time>2013-04-29T01:39:14Z</time>
      </trkpt>
      <trkpt lat="44.98785" lon="-1.10013">
        <ele>22</ele>
        <time>2013-04-29T01:39:35Z</time>
      </trkpt>
      <trkpt lat="44.98831" lon="-1.09816">
        <ele>22</ele>
        <time>2013-04-29T01:39:55Z</time>
      </trkpt>
      <trkpt lat="44.98858" lon="-1.09656">
        <ele>19</ele>
        <time>2013-04-29T01:40:10Z</time>
      </trkpt>
      <trkpt lat="44.98861" lon="-1.0962">
        <ele>19</ele>
        <time>2013-04-29T01:40:16Z</time>
      </trkpt>
      <trkpt lat="44.98875" lon="-1.09613">
        <ele>20</ele>
        <time>2013-04-29T01:40:19Z</time>
      </trkpt>
      <trkpt lat="44.98886" lon="-1.09616">
        <ele>20</ele>
        <time>2013-04-29T01:40:21Z</time>
      </trkpt>
      <trkpt lat="44.98925" lon="-1.09648">
        <ele>22</ele>
        <time>2013-04-29T01:40:30Z</time>
      </trkpt>
      <trkpt lat="44.98934" lon="-1.09659">
        <ele>21</ele>
        <time>2013-04-29T01:40:32Z</time>
      </trkpt>
      <trkpt lat="44.98945" lon="-1.09685">
        <ele>21</ele>
        <time>2013-04-29T01:40:35Z</time>
      </trkpt>
      <trkpt lat="44.98958" lon="-1.09696">
        <ele>21</ele>
        <time>2013-04-29T01:40:37Z</time>
      </trkpt>
      <trkpt lat="44.99115" lon="-1.09998">
        <ele>20</ele>
        <time>2013-04-29T01:41:12Z</time>
      </trkpt>
      <trkpt lat="44.99121" lon="-1.10017">
        <ele>20</ele>
        <time>2013-04-29T01:41:15Z</time>
      </trkpt>
      <trkpt lat="44.99121" lon="-1.10034">
        <ele>20</ele>
        <time>2013-04-29T01:41:17Z</time>
      </trkpt>
      <trkpt lat="44.99115" lon="-1.10054">
        <ele>20</ele>
        <time>2013-04-29T01:41:20Z</time>
      </trkpt>
      <trkpt lat="44.99107" lon="-1.10079">
        <ele>21</ele>
        <time>2013-04-29T01:41:24Z</time>
      </trkpt>
      <trkpt lat="44.99107" lon="-1.10101">
        <ele>21</ele>
        <time>2013-04-29T01:41:27Z</time>
      </trkpt>
      <trkpt lat="44.99119" lon="-1.10114">
        <ele>22</ele>
        <time>2013-04-29T01:41:30Z</time>
      </trkpt>
      <trkpt lat="44.99148" lon="-1.10128">
        <ele>21</ele>
        <time>2013-04-29T01:41:34Z</time>
      </trkpt>
      <trkpt lat="44.99206" lon="-1.1014">
        <ele>19</ele>
        <time>2013-04-29T01:41:41Z</time>
      </trkpt>
      <trkpt lat="44.99244" lon="-1.1014">
        <ele>19</ele>
        <time>2013-04-29T01:41:46Z</time>
      </trkpt>
      <trkpt lat="44.99271" lon="-1.10125">
        <ele>18</ele>
        <time>2013-04-29T01:41:50Z</time>
      </trkpt>
      <trkpt lat="44.99303" lon="-1.10094">
        <ele>17</ele>
        <time>2013-04-29T01:41:56Z</time>
      </trkpt>
      <trkpt lat="44.99318" lon="-1.10079">
        <ele>17</ele>
        <time>2013-04-29T01:41:58Z</time>
      </trkpt>
      <trkpt lat="44.99327" lon="-1.10084">
        <ele>17</ele>
        <time>2013-04-29T01:41:59Z</time>
      </trkpt>
      <trkpt lat="44.99338" lon="-1.10103">
        <ele>17</ele>
        <time>2013-04-29T01:42:02Z</time>
      </trkpt>
      <trkpt lat="44.99353" lon="-1.10151">
        <ele>17</ele>
        <time>2013-04-29T01:42:08Z</time>
      </trkpt>
      <trkpt lat="44.99377" lon="-1.10194">
        <ele>18</ele>
        <time>2013-04-29T01:42:14Z</time>
      </trkpt>
      <trkpt lat="44.99414" lon="-1.1023">
        <ele>17</ele>
        <time>2013-04-29T01:42:20Z</time>
      </trkpt>
      <trkpt lat="44.99461" lon="-1.10262">
        <ele>16</ele>
        <time>2013-04-29T01:42:27Z</time>
      </trkpt>
      <trkpt lat="44.99516" lon="-1.10288">
        <ele>16</ele>
        <time>2013-04-29T01:42:36Z</time>
      </trkpt>
      <trkpt lat="44.99559" lon="-1.10297">
        <ele>17</ele>
        <time>2013-04-29T01:42:43Z</time>
      </trkpt>
      <trkpt lat="44.99614" lon="-1.10297">
        <ele>18</ele>
        <time>2013-04-29T01:42:53Z</time>
      </trkpt>
      <trkpt lat="44.99664" lon="-1.10279">
        <ele>19</ele>
        <time>2013-04-29T01:43:02Z</time>
      </trkpt>
      <trkpt lat="44.99696" lon="-1.10262">
        <ele>19</ele>
        <time>2013-04-29T01:43:07Z</time>
      </trkpt>
      <trkpt lat="44.99728" lon="-1.10238">
        <ele>19</ele>
        <time>2013-04-29T01:43:13Z</time>
      </trkpt>
      <trkpt lat="44.99754" lon="-1.10212">
        <ele>20</ele>
        <time>2013-04-29T01:43:18Z</time>
      </trkpt>
      <trkpt lat="44.99778" lon="-1.10174">
        <ele>18</ele>
        <time>2013-04-29T01:43:23Z</time>
      </trkpt>
      <trkpt lat="44.99803" lon="-1.10116">
        <ele>17</ele>
        <time>2013-04-29T01:43:29Z</time>
      </trkpt>
      <trkpt lat="44.99814" lon="-1.10099">
        <ele>17</ele>
        <time>2013-04-29T01:43:32Z</time>
      </trkpt>
      <trkpt lat="44.99828" lon="-1.10097">
        <ele>16</ele>
        <time>2013-04-29T01:43:33Z</time>
      </trkpt>
      <trkpt lat="44.99852" lon="-1.1012">
        <ele>16</ele>
        <time>2013-04-29T01:43:37Z</time>
      </trkpt>
      <trkpt lat="44.99905" lon="-1.10171">
        <ele>16</ele>
        <time>2013-04-29T01:43:46Z</time>
      </trkpt>
      <trkpt lat="44.99955" lon="-1.10221">
        <ele>15</ele>
        <time>2013-04-29T01:43:54Z</time>
      </trkpt>
      <trkpt lat="44.99981" lon="-1.10243">
        <ele>15</ele>
        <time>2013-04-29T01:43:58Z</time>
      </trkpt>
      <trkpt lat="45.00013" lon="-1.10257">
        <ele>14</ele>
        <time>2013-04-29T01:44:03Z</time>
      </trkpt>
      <trkpt lat="45.00024" lon="-1.10254">
        <ele>14</ele>
        <time>2013-04-29T01:44:04Z</time>
      </trkpt>
      <trkpt lat="45.00034" lon="-1.10234">
        <ele>14</ele>
        <time>2013-04-29T01:44:06Z</time>
      </trkpt>
      <trkpt lat="45.00082" lon="-1.10157">
        <ele>14</ele>
        <time>2013-04-29T01:44:16Z</time>
      </trkpt>
      <trkpt lat="45.00096" lon="-1.10142">
        <ele>14</ele>
        <time>2013-04-29T01:44:19Z</time>
      </trkpt>
      <trkpt lat="45.0011" lon="-1.10144">
        <ele>14</ele>
        <time>2013-04-29T01:44:21Z</time>
      </trkpt>
      <trkpt lat="45.00236" lon="-1.10168">
        <ele>16</ele>
        <time>2013-04-29T01:44:42Z</time>
      </trkpt>
      <trkpt lat="45.00258" lon="-1.10176">
        <ele>16</ele>
        <time>2013-04-29T01:44:46Z</time>
      </trkpt>
      <trkpt lat="45.00307" lon="-1.10217">
        <ele>16</ele>
        <time>2013-04-29T01:44:55Z</time>
      </trkpt>
      <trkpt lat="45.0038" lon="-1.10288">
        <ele>18</ele>
        <time>2013-04-29T01:45:09Z</time>
      </trkpt>
      <trkpt lat="45.00436" lon="-1.1035">
        <ele>16</ele>
        <time>2013-04-29T01:45:19Z</time>
      </trkpt>
      <trkpt lat="45.00454" lon="-1.10358">
        <ele>16</ele>
        <time>2013-04-29T01:45:21Z</time>
      </trkpt>
      <trkpt lat="45.00561" lon="-1.10434">
        <ele>18</ele>
        <time>2013-04-29T01:45:42Z</time>
      </trkpt>
      <trkpt lat="45.00584" lon="-1.10437">
        <ele>17</ele>
        <time>2013-04-29T01:45:45Z</time>
      </trkpt>
      <trkpt lat="45.00658" lon="-1.10429">
        <ele>17</ele>
        <time>2013-04-29T01:45:55Z</time>
      </trkpt>
      <trkpt lat="45.00672" lon="-1.10445">
        <ele>17</ele>
        <time>2013-04-29T01:45:58Z</time>
      </trkpt>
      <trkpt lat="45.00696" lon="-1.10526">
        <ele>17</ele>
        <time>2013-04-29T01:46:08Z</time>
      </trkpt>
      <trkpt lat="45.00702" lon="-1.10551">
        <ele>18</ele>
        <time>2013-04-29T01:46:11Z</time>
      </trkpt>
      <trkpt lat="45.00702" lon="-1.10551">
        <ele>18</ele>
        <time>2013-04-29T01:46:12Z</time>
      </trkpt>
      <trkpt lat="45.0071" lon="-1.10588">
        <ele>17</ele>
        <time>2013-04-29T01:46:15Z</time>
      </trkpt>
      <trkpt lat="45.00738" lon="-1.10743">
        <ele>16</ele>
        <time>2013-04-29T01:46:31Z</time>
      </trkpt>
      <trkpt lat="45.00742" lon="-1.10826">
        <ele>16</ele>
        <time>2013-04-29T01:46:38Z</time>
      </trkpt>
      <trkpt lat="45.0075" lon="-1.11165">
        <ele>16</ele>
        <time>2013-04-29T01:47:10Z</time>
      </trkpt>
      <trkpt lat="45.00758" lon="-1.11521">
        <ele>18</ele>
        <time>2013-04-29T01:47:49Z</time>
      </trkpt>
      <trkpt lat="45.00758" lon="-1.11535">
        <ele>18</ele>
        <time>2013-04-29T01:47:51Z</time>
      </trkpt>
      <trkpt lat="45.00764" lon="-1.11679">
        <ele>21</ele>
        <time>2013-04-29T01:48:11Z</time>
      </trkpt>
      <trkpt lat="45.00756" lon="-1.11723">
        <ele>20</ele>
        <time>2013-04-29T01:48:15Z</time>
      </trkpt>
      <trkpt lat="45.00743" lon="-1.11762">
        <ele>20</ele>
        <time>2013-04-29T01:48:19Z</time>
      </trkpt>
      <trkpt lat="45.0075" lon="-1.11781">
        <ele>20</ele>
        <time>2013-04-29T01:48:21Z</time>
      </trkpt>
      <trkpt lat="45.0075" lon="-1.11802">
        <ele>20</ele>
        <time>2013-04-29T01:48:23Z</time>
      </trkpt>
      <trkpt lat="45.00758" lon="-1.1182">
        <ele>20</ele>
        <time>2013-04-29T01:48:25Z</time>
      </trkpt>
      <trkpt lat="45.00763" lon="-1.11827">
        <ele>20</ele>
        <time>2013-04-29T01:48:26Z</time>
      </trkpt>
      <trkpt lat="45.00757" lon="-1.11881">
        <ele>20</ele>
        <time>2013-04-29T01:48:32Z</time>
      </trkpt>
      <trkpt lat="45.00737" lon="-1.11965">
        <ele>20</ele>
        <time>2013-04-29T01:48:40Z</time>
      </trkpt>
      <trkpt lat="45.00681" lon="-1.12197">
        <ele>21</ele>
        <time>2013-04-29T01:49:05Z</time>
      </trkpt>
      <trkpt lat="45.00608" lon="-1.12491">
        <ele>21</ele>
        <time>2013-04-29T01:49:35Z</time>
      </trkpt>
      <trkpt lat="45.00556" lon="-1.12695">
        <ele>25</ele>
        <time>2013-04-29T01:50:05Z</time>
      </trkpt>
      <trkpt lat="45.00488" lon="-1.12978">
        <ele>25</ele>
        <time>2013-04-29T01:50:33Z</time>
      </trkpt>
      <trkpt lat="45.00471" lon="-1.13034">
        <ele>25</ele>
        <time>2013-04-29T01:50:39Z</time>
      </trkpt>
      <trkpt lat="45.00444" lon="-1.13096">
        <ele>25</ele>
        <time>2013-04-29T01:50:46Z</time>
      </trkpt>
      <trkpt lat="45.0041" lon="-1.13172">
        <ele>24</ele>
        <time>2013-04-29T01:50:54Z</time>
      </trkpt>
      <trkpt lat="45.00362" lon="-1.13277">
        <ele>24</ele>
        <time>2013-04-29T01:51:06Z</time>
      </trkpt>
      <trkpt lat="45.00348" lon="-1.13341">
        <ele>26</ele>
        <time>2013-04-29T01:51:18Z</time>
      </trkpt>
      <trkpt lat="45.00341" lon="-1.13387">
        <ele>28</ele>
        <time>2013-04-29T01:51:27Z</time>
      </trkpt>
      <trkpt lat="45.00337" lon="-1.13433">
        <ele>30</ele>
        <time>2013-04-29T01:51:36Z</time>
      </trkpt>
      <trkpt lat="45.00333" lon="-1.1345">
        <ele>30</ele>
        <time>2013-04-29T01:51:38Z</time>
      </trkpt>
      <trkpt lat="45.00328" lon="-1.13484">
        <ele>30</ele>
        <time>2013-04-29T01:51:41Z</time>
      </trkpt>
      <trkpt lat="45.00323" lon="-1.13509">
        <ele>30</ele>
        <time>2013-04-29T01:51:44Z</time>
      </trkpt>
      <trkpt lat="45.00316" lon="-1.13547">
        <ele>30</ele>
        <time>2013-04-29T01:51:48Z</time>
      </trkpt>
      <trkpt lat="45.00323" lon="-1.13619">
        <ele>31</ele>
        <time>2013-04-29T01:51:56Z</time>
      </trkpt>
      <trkpt lat="45.00328" lon="-1.13644">
        <ele>30</ele>
        <time>2013-04-29T01:51:58Z</time>
      </trkpt>
      <trkpt lat="45.00335" lon="-1.13663">
        <ele>30</ele>
        <time>2013-04-29T01:52:01Z</time>
      </trkpt>
      <trkpt lat="45.00346" lon="-1.13684">
        <ele>30</ele>
        <time>2013-04-29T01:52:03Z</time>
      </trkpt>
      <trkpt lat="45.00359" lon="-1.13704">
        <ele>29</ele>
        <time>2013-04-29T01:52:06Z</time>
      </trkpt>
      <trkpt lat="45.00392" lon="-1.13746">
        <ele>29</ele>
        <time>2013-04-29T01:52:12Z</time>
      </trkpt>
      <trkpt lat="45.00439" lon="-1.13796">
        <ele>30</ele>
        <time>2013-04-29T01:52:24Z</time>
      </trkpt>
      <trkpt lat="45.00558" lon="-1.13908">
        <ele>35</ele>
        <time>2013-04-29T01:52:53Z</time>
      </trkpt>
      <trkpt lat="45.00587" lon="-1.13959">
        <ele>32</ele>
        <time>2013-04-29T01:52:59Z</time>
      </trkpt>
      <trkpt lat="45.00613" lon="-1.14003">
        <ele>31</ele>
        <time>2013-04-29T01:53:04Z</time>
      </trkpt>
      <trkpt lat="45.00637" lon="-1.141">
        <ele>28</ele>
        <time>2013-04-29T01:53:14Z</time>
      </trkpt>
      <trkpt lat="45.00695" lon="-1.14312">
        <ele>36</ele>
        <time>2013-04-29T01:53:55Z</time>
      </trkpt>
      <trkpt lat="45.00718" lon="-1.14405">
        <ele>36</ele>
        <time>2013-04-29T01:54:04Z</time>
      </trkpt>
      <trkpt lat="45.00742" lon="-1.14519">
        <ele>36</ele>
        <time>2013-04-29T01:54:15Z</time>
      </trkpt>
      <trkpt lat="45.00753" lon="-1.14619">
        <ele>36</ele>
        <time>2013-04-29T01:54:27Z</time>
      </trkpt>
      <trkpt lat="45.00756" lon="-1.1474">
        <ele>38</ele>
        <time>2013-04-29T01:54:41Z</time>
      </trkpt>
      <trkpt lat="45.00751" lon="-1.14898">
        <ele>37</ele>
        <time>2013-04-29T01:54:56Z</time>
      </trkpt>
      <trkpt lat="45.00749" lon="-1.15062">
        <ele>29</ele>
        <time>2013-04-29T01:55:12Z</time>
      </trkpt>
      <trkpt lat="45.00743" lon="-1.15153">
        <ele>28</ele>
        <time>2013-04-29T01:55:20Z</time>
      </trkpt>
      <trkpt lat="45.00743" lon="-1.15254">
        <ele>27</ele>
        <time>2013-04-29T01:55:30Z</time>
      </trkpt>
      <trkpt lat="45.00728" lon="-1.15368">
        <ele>28</ele>
        <time>2013-04-29T01:55:45Z</time>
      </trkpt>
      <trkpt lat="45.00685" lon="-1.15591">
        <ele>32</ele>
        <time>2013-04-29T01:56:15Z</time>
      </trkpt>
      <trkpt lat="45.00678" lon="-1.1568">
        <ele>26</ele>
        <time>2013-04-29T01:56:23Z</time>
      </trkpt>
      <trkpt lat="45.00681" lon="-1.15755">
        <ele>22</ele>
        <time>2013-04-29T01:56:30Z</time>
      </trkpt>
      <trkpt lat="45.00686" lon="-1.15851">
        <ele>25</ele>
        <time>2013-04-29T01:56:47Z</time>
      </trkpt>
      <trkpt lat="45.00698" lon="-1.15931">
        <ele>28</ele>
        <time>2013-04-29T01:57:01Z</time>
      </trkpt>
      <trkpt lat="45.00682" lon="-1.16066">
        <ele>32</ele>
        <time>2013-04-29T01:57:24Z</time>
      </trkpt>
      <trkpt lat="45.00639" lon="-1.16194">
        <ele>29</ele>
        <time>2013-04-29T01:57:37Z</time>
      </trkpt>
      <trkpt lat="45.006" lon="-1.16309">
        <ele>24</ele>
        <time>2013-04-29T01:57:49Z</time>
      </trkpt>
      <trkpt lat="45.00585" lon="-1.16367">
        <ele>22</ele>
        <time>2013-04-29T01:57:55Z</time>
      </trkpt>
      <trkpt lat="45.00577" lon="-1.16423">
        <ele>20</ele>
        <time>2013-04-29T01:58:00Z</time>
      </trkpt>
      <trkpt lat="45.00572" lon="-1.16482">
        <ele>19</ele>
        <time>2013-04-29T01:58:06Z</time>
      </trkpt>
      <trkpt lat="45.00573" lon="-1.16539">
        <ele>19</ele>
        <time>2013-04-29T01:58:11Z</time>
      </trkpt>
      <trkpt lat="45.00581" lon="-1.16728">
        <ele>19</ele>
        <time>2013-04-29T01:58:29Z</time>
      </trkpt>
      <trkpt lat="45.00579" lon="-1.16768">
        <ele>19</ele>
        <time>2013-04-29T01:58:34Z</time>
      </trkpt>
      <trkpt lat="45.00583" lon="-1.16829">
        <ele>19</ele>
        <time>2013-04-29T01:58:40Z</time>
      </trkpt>
      <trkpt lat="45.00583" lon="-1.16892">
        <ele>20</ele>
        <time>2013-04-29T01:58:47Z</time>
      </trkpt>
      <trkpt lat="45.00583" lon="-1.16982">
        <ele>19</ele>
        <time>2013-04-29T01:58:56Z</time>
      </trkpt>
      <trkpt lat="45.00583" lon="-1.17035">
        <ele>19</ele>
        <time>2013-04-29T01:59:01Z</time>
      </trkpt>
      <trkpt lat="45.00584" lon="-1.17055">
        <ele>19</ele>
        <time>2013-04-29T01:59:03Z</time>
      </trkpt>
      <trkpt lat="45.0059" lon="-1.17117">
        <ele>19</ele>
        <time>2013-04-29T01:59:10Z</time>
      </trkpt>
      <trkpt lat="45.00608" lon="-1.17204">
        <ele>20</ele>
        <time>2013-04-29T01:59:20Z</time>
      </trkpt>
      <trkpt lat="45.00621" lon="-1.17272">
        <ele>20</ele>
        <time>2013-04-29T01:59:28Z</time>
      </trkpt>
      <trkpt lat="45.00647" lon="-1.17374">
        <ele>22</ele>
        <time>2013-04-29T01:59:41Z</time>
      </trkpt>
      <trkpt lat="45.00668" lon="-1.17469">
        <ele>21</ele>
        <time>2013-04-29T01:59:51Z</time>
      </trkpt>
      <trkpt lat="45.0069" lon="-1.17571">
        <ele>20</ele>
        <time>2013-04-29T02:00:01Z</time>
      </trkpt>
      <trkpt lat="45.00691" lon="-1.17632">
        <ele>20</ele>
        <time>2013-04-29T02:00:08Z</time>
      </trkpt>
      <trkpt lat="45.00689" lon="-1.17697">
        <ele>21</ele>
        <time>2013-04-29T02:00:16Z</time>
      </trkpt>
      <trkpt lat="45.00684" lon="-1.17731">
        <ele>22</ele>
        <time>2013-04-29T02:00:21Z</time>
      </trkpt>
      <trkpt lat="45.00681" lon="-1.17749">
        <ele>22</ele>
        <time>2013-04-29T02:00:22Z</time>
      </trkpt>
      <trkpt lat="45.00664" lon="-1.17798">
        <ele>22</ele>
        <time>2013-04-29T02:00:28Z</time>
      </trkpt>
      <trkpt lat="45.00639" lon="-1.17859">
        <ele>22</ele>
        <time>2013-04-29T02:00:34Z</time>
      </trkpt>
      <trkpt lat="45.00622" lon="-1.17883">
        <ele>21</ele>
        <time>2013-04-29T02:00:37Z</time>
      </trkpt>
      <trkpt lat="45.00587" lon="-1.17935">
        <ele>21</ele>
        <time>2013-04-29T02:00:44Z</time>
      </trkpt>
      <trkpt lat="45.00467" lon="-1.18088">
        <ele>19</ele>
        <time>2013-04-29T02:01:06Z</time>
      </trkpt>
      <trkpt lat="45.00441" lon="-1.18124">
        <ele>20</ele>
        <time>2013-04-29T02:01:13Z</time>
      </trkpt>
      <trkpt lat="45.00438" lon="-1.18152">
        <ele>20</ele>
        <time>2013-04-29T02:01:17Z</time>
      </trkpt>
      <trkpt lat="45.00446" lon="-1.18167">
        <ele>21</ele>
        <time>2013-04-29T02:01:20Z</time>
      </trkpt>
      <trkpt lat="45.00457" lon="-1.18172">
        <ele>21</ele>
        <time>2013-04-29T02:01:23Z</time>
      </trkpt>
      <trkpt lat="45.00466" lon="-1.18173">
        <ele>21</ele>
        <time>2013-04-29T02:01:24Z</time>
      </trkpt>
      <trkpt lat="45.00477" lon="-1.18188">
        <ele>22</ele>
        <time>2013-04-29T02:01:28Z</time>
      </trkpt>
      <trkpt lat="45.00476" lon="-1.18207">
        <ele>22</ele>
        <time>2013-04-29T02:01:30Z</time>
      </trkpt>
      <trkpt lat="45.00476" lon="-1.18214">
        <ele>22</ele>
        <time>2013-04-29T02:01:31Z</time>
      </trkpt>
      <trkpt lat="45.00471" lon="-1.18225">
        <ele>23</ele>
        <time>2013-04-29T02:01:33Z</time>
      </trkpt>
      <trkpt lat="45.00464" lon="-1.18239">
        <ele>23</ele>
        <time>2013-04-29T02:01:35Z</time>
      </trkpt>
      <trkpt lat="45.00462" lon="-1.1824">
        <ele>23</ele>
        <time>2013-04-29T02:01:35Z</time>
      </trkpt>
      <trkpt lat="45.00462" lon="-1.18241">
        <ele>22</ele>
        <time>2013-04-29T02:01:35Z</time>
      </trkpt>
      <trkpt lat="45.0046" lon="-1.18242">
        <ele>22</ele>
        <time>2013-04-29T02:01:36Z</time>
      </trkpt>
      <trkpt lat="45.00449" lon="-1.18252">
        <ele>22</ele>
        <time>2013-04-29T02:01:37Z</time>
      </trkpt>
      <trkpt lat="45.00434" lon="-1.18258">
        <ele>22</ele>
        <time>2013-04-29T02:01:39Z</time>
      </trkpt>
      <trkpt lat="45.0042" lon="-1.18254">
        <ele>22</ele>
        <time>2013-04-29T02:01:41Z</time>
      </trkpt>
      <trkpt lat="45.00406" lon="-1.18248">
        <ele>21</ele>
        <time>2013-04-29T02:01:43Z</time>
      </trkpt>
      <trkpt lat="45.00396" lon="-1.18253">
        <ele>21</ele>
        <time>2013-04-29T02:01:45Z</time>
      </trkpt>
      <trkpt lat="45.00379" lon="-1.18259">
        <ele>21</ele>
        <time>2013-04-29T02:01:47Z</time>
      </trkpt>
      <trkpt lat="45.00367" lon="-1.18253">
        <ele>21</ele>
        <time>2013-04-29T02:01:49Z</time>
      </trkpt>
      <trkpt lat="45.0035" lon="-1.18249">
        <ele>21</ele>
        <time>2013-04-29T02:01:52Z</time>
      </trkpt>
      <trkpt lat="45.00347" lon="-1.18254">
        <ele>21</ele>
        <time>2013-04-29T02:01:53Z</time>
      </trkpt>
      <trkpt lat="45.00343" lon="-1.18253">
        <ele>21</ele>
        <time>2013-04-29T02:01:53Z</time>
      </trkpt>
      <trkpt lat="45.00331" lon="-1.18271">
        <ele>21</ele>
        <time>2013-04-29T02:01:56Z</time>
      </trkpt>
      <trkpt lat="45.00312" lon="-1.18307">
        <ele>22</ele>
        <time>2013-04-29T02:02:02Z</time>
      </trkpt>
      <trkpt lat="45.00297" lon="-1.18344">
        <ele>23</ele>
        <time>2013-04-29T02:02:08Z</time>
      </trkpt>
      <trkpt lat="45.00287" lon="-1.18379">
        <ele>22</ele>
        <time>2013-04-29T02:02:11Z</time>
      </trkpt>
      <trkpt lat="45.00279" lon="-1.18418">
        <ele>21</ele>
        <time>2013-04-29T02:02:15Z</time>
      </trkpt>
      <trkpt lat="45.00272" lon="-1.18469">
        <ele>20</ele>
        <time>2013-04-29T02:02:20Z</time>
      </trkpt>
      <trkpt lat="45.00267" lon="-1.18505">
        <ele>19</ele>
        <time>2013-04-29T02:02:23Z</time>
      </trkpt>
      <trkpt lat="45.00264" lon="-1.18544">
        <ele>18</ele>
        <time>2013-04-29T02:02:27Z</time>
      </trkpt>
      <trkpt lat="45.00265" lon="-1.18579">
        <ele>17</ele>
        <time>2013-04-29T02:02:30Z</time>
      </trkpt>
      <trkpt lat="45.00265" lon="-1.18628">
        <ele>17</ele>
        <time>2013-04-29T02:02:35Z</time>
      </trkpt>
      <trkpt lat="45.00262" lon="-1.18639">
        <ele>17</ele>
        <time>2013-04-29T02:02:36Z</time>
      </trkpt>
      <trkpt lat="45.00256" lon="-1.18615">
        <ele>17</ele>
        <time>2013-04-29T02:02:39Z</time>
      </trkpt>
      <trkpt lat="45.00251" lon="-1.18614">
        <ele>17</ele>
        <time>2013-04-29T02:02:40Z</time>
      </trkpt>
      <trkpt lat="45.00246" lon="-1.18614">
        <ele>17</ele>
        <time>2013-04-29T02:02:40Z</time>
      </trkpt>
      <trkpt lat="45.00246" lon="-1.18588">
        <ele>17</ele>
        <time>2013-04-29T02:02:43Z</time>
      </trkpt>
      <trkpt lat="45.00243" lon="-1.1858">
        <ele>17</ele>
        <time>2013-04-29T02:02:44Z</time>
      </trkpt>
      <trkpt lat="45.0024" lon="-1.18576">
        <ele>17</ele>
        <time>2013-04-29T02:02:45Z</time>
      </trkpt>
      <trkpt lat="45.0024" lon="-1.18571">
        <ele>17</ele>
        <time>2013-04-29T02:02:45Z</time>
      </trkpt>
      <trkpt lat="45.00239" lon="-1.18564">
        <ele>17</ele>
        <time>2013-04-29T02:02:46Z</time>
      </trkpt>
      <trkpt lat="45.002" lon="-1.18564">
        <ele>17</ele>
        <time>2013-04-29T02:02:52Z</time>
      </trkpt>
      <trkpt lat="45.0018" lon="-1.18567">
        <ele>18</ele>
        <time>2013-04-29T02:02:55Z</time>
      </trkpt>
      <trkpt lat="45.00142" lon="-1.18578">
        <ele>18</ele>
        <time>2013-04-29T02:03:02Z</time>
      </trkpt>
      <trkpt lat="45.00113" lon="-1.18579">
        <ele>19</ele>
        <time>2013-04-29T02:03:07Z</time>
      </trkpt>
      <trkpt lat="45.001" lon="-1.18577">
        <ele>19</ele>
        <time>2013-04-29T02:03:09Z</time>
      </trkpt>
      <trkpt lat="45.00055" lon="-1.1857">
        <ele>20</ele>
        <time>2013-04-29T02:03:17Z</time>
      </trkpt>
      <trkpt lat="45.00016" lon="-1.18563">
        <ele>18</ele>
        <time>2013-04-29T02:03:22Z</time>
      </trkpt>
      <trkpt lat="45.00009" lon="-1.18562">
        <ele>18</ele>
        <time>2013-04-29T02:03:23Z</time>
      </trkpt>
      <trkpt lat="44.9996" lon="-1.18571">
        <ele>17</ele>
        <time>2013-04-29T02:03:30Z</time>
      </trkpt>
      <trkpt lat="44.99899" lon="-1.18583">
        <ele>17</ele>
        <time>2013-04-29T02:03:39Z</time>
      </trkpt>
      <trkpt lat="44.99792" lon="-1.18611">
        <ele>18</ele>
        <time>2013-04-29T02:03:55Z</time>
      </trkpt>
      <trkpt lat="44.99751" lon="-1.18643">
        <ele>18</ele>
        <time>2013-04-29T02:04:01Z</time>
      </trkpt>
      <trkpt lat="44.99717" lon="-1.18683">
        <ele>18</ele>
        <time>2013-04-29T02:04:07Z</time>
      </trkpt>
      <trkpt lat="44.9957" lon="-1.18958">
        <ele>21</ele>
        <time>2013-04-29T02:04:47Z</time>
      </trkpt>
      <trkpt lat="44.99437" lon="-1.19167">
        <ele>16</ele>
        <time>2013-04-29T02:05:13Z</time>
      </trkpt>
      <trkpt lat="44.99406" lon="-1.19273">
        <ele>16</ele>
        <time>2013-04-29T02:05:25Z</time>
      </trkpt>
      <trkpt lat="44.99387" lon="-1.19355">
        <ele>17</ele>
        <time>2013-04-29T02:05:35Z</time>
      </trkpt>
      <trkpt lat="44.99374" lon="-1.19392">
        <ele>17</ele>
        <time>2013-04-29T02:05:40Z</time>
      </trkpt>
      <trkpt lat="44.99321" lon="-1.19522">
        <ele>20</ele>
        <time>2013-04-29T02:06:00Z</time>
      </trkpt>
      <trkpt lat="44.99296" lon="-1.19562">
        <ele>19</ele>
        <time>2013-04-29T02:06:05Z</time>
      </trkpt>
      <trkpt lat="44.99287" lon="-1.19576">
        <ele>18</ele>
        <time>2013-04-29T02:06:07Z</time>
      </trkpt>
      <trkpt lat="44.99287" lon="-1.19593">
        <ele>18</ele>
        <time>2013-04-29T02:06:08Z</time>
      </trkpt>
      <trkpt lat="44.99278" lon="-1.19612">
        <ele>18</ele>
        <time>2013-04-29T02:06:11Z</time>
      </trkpt>
      <trkpt lat="44.99274" lon="-1.1964">
        <ele>18</ele>
        <time>2013-04-29T02:06:13Z</time>
      </trkpt>
      <trkpt lat="44.99273" lon="-1.19657">
        <ele>17</ele>
        <time>2013-04-29T02:06:15Z</time>
      </trkpt>
      <trkpt lat="44.99247" lon="-1.1968">
        <ele>16</ele>
        <time>2013-04-29T02:06:19Z</time>
      </trkpt>
      <trkpt lat="44.99223" lon="-1.19702">
        <ele>15</ele>
        <time>2013-04-29T02:06:23Z</time>
      </trkpt>
      <trkpt lat="44.99219" lon="-1.19707">
        <ele>15</ele>
        <time>2013-04-29T02:06:23Z</time>
      </trkpt>
      <trkpt lat="44.99215" lon="-1.19702">
        <ele>15</ele>
        <time>2013-04-29T02:06:24Z</time>
      </trkpt>
      <trkpt lat="44.99209" lon="-1.19701">
        <ele>15</ele>
        <time>2013-04-29T02:06:25Z</time>
      </trkpt>
      <trkpt lat="44.99196" lon="-1.19718">
        <ele>15</ele>
        <time>2013-04-29T02:06:27Z</time>
      </trkpt>
      <trkpt lat="44.99187" lon="-1.19731">
        <ele>14</ele>
        <time>2013-04-29T02:06:29Z</time>
      </trkpt>
      <trkpt lat="44.99175" lon="-1.19751">
        <ele>13</ele>
        <time>2013-04-29T02:06:32Z</time>
      </trkpt>
      <trkpt lat="44.99162" lon="-1.19767">
        <ele>13</ele>
        <time>2013-04-29T02:06:34Z</time>
      </trkpt>
      <trkpt lat="44.9915" lon="-1.19774">
        <ele>12</ele>
        <time>2013-04-29T02:06:36Z</time>
      </trkpt>
      <trkpt lat="44.99135" lon="-1.19781">
        <ele>12</ele>
        <time>2013-04-29T02:06:38Z</time>
      </trkpt>
      <trkpt lat="44.99125" lon="-1.19785">
        <ele>11</ele>
        <time>2013-04-29T02:06:39Z</time>
      </trkpt>
      <trkpt lat="44.99109" lon="-1.19786">
        <ele>11</ele>
        <time>2013-04-29T02:06:41Z</time>
      </trkpt>
      <trkpt lat="44.99089" lon="-1.19782">
        <ele>11</ele>
        <time>2013-04-29T02:06:45Z</time>
      </trkpt>
      <trkpt lat="44.99067" lon="-1.19768">
        <ele>12</ele>
        <time>2013-04-29T02:06:50Z</time>
      </trkpt>
      <trkpt lat="44.99048" lon="-1.1976">
        <ele>12</ele>
        <time>2013-04-29T02:06:54Z</time>
      </trkpt>
      <trkpt lat="44.99033" lon="-1.19756">
        <ele>12</ele>
        <time>2013-04-29T02:06:56Z</time>
      </trkpt>
      <trkpt lat="44.9887" lon="-1.19814">
        <ele>17</ele>
        <time>2013-04-29T02:07:29Z</time>
      </trkpt>
      <trkpt lat="44.98697" lon="-1.19888">
        <ele>18</ele>
        <time>2013-04-29T02:07:55Z</time>
      </trkpt>
      <trkpt lat="44.98644" lon="-1.19906">
        <ele>15</ele>
        <time>2013-04-29T02:08:03Z</time>
      </trkpt>
      <trkpt lat="44.98599" lon="-1.19916">
        <ele>14</ele>
        <time>2013-04-29T02:08:09Z</time>
      </trkpt>
      <trkpt lat="44.98566" lon="-1.19911">
        <ele>13</ele>
        <time>2013-04-29T02:08:13Z</time>
      </trkpt>
      <trkpt lat="44.98489" lon="-1.19902">
        <ele>12</ele>
        <time>2013-04-29T02:08:23Z</time>
      </trkpt>
      <trkpt lat="44.9845" lon="-1.19904">
        <ele>11</ele>
        <time>2013-04-29T02:08:29Z</time>
      </trkpt>
      <trkpt lat="44.98441" lon="-1.19906">
        <ele>11</ele>
        <time>2013-04-29T02:08:30Z</time>
      </trkpt>
      <trkpt lat="44.98436" lon="-1.19913">
        <ele>11</ele>
        <time>2013-04-29T02:08:31Z</time>
      </trkpt>
      <trkpt lat="44.98432" lon="-1.19927">
        <ele>11</ele>
        <time>2013-04-29T02:08:32Z</time>
      </trkpt>
      <trkpt lat="44.98424" lon="-1.19933">
        <ele>11</ele>
        <time>2013-04-29T02:08:33Z</time>
      </trkpt>
      <trkpt lat="44.98302" lon="-1.19996">
        <ele>10</ele>
        <time>2013-04-29T02:08:51Z</time>
      </trkpt>
      <trkpt lat="44.98287" lon="-1.20006">
        <ele>10</ele>
        <time>2013-04-29T02:08:53Z</time>
      </trkpt>
      <trkpt lat="44.98281" lon="-1.20018">
        <ele>10</ele>
        <time>2013-04-29T02:08:55Z</time>
      </trkpt>
      <trkpt lat="44.98204" lon="-1.19996">
        <ele>11</ele>
        <time>2013-04-29T02:09:07Z</time>
      </trkpt>
      <trkpt lat="44.98141" lon="-1.19983">
        <ele>11</ele>
        <time>2013-04-29T02:09:17Z</time>
      </trkpt>
      <trkpt lat="44.98055" lon="-1.19964">
        <ele>12</ele>
        <time>2013-04-29T02:09:30Z</time>
      </trkpt>
      <trkpt lat="44.97975" lon="-1.1994">
        <ele>15</ele>
        <time>2013-04-29T02:09:50Z</time>
      </trkpt>
      <trkpt lat="44.97948" lon="-1.19936">
        <ele>17</ele>
        <time>2013-04-29T02:09:56Z</time>
      </trkpt>
      <trkpt lat="44.97897" lon="-1.19945">
        <ele>16</ele>
        <time>2013-04-29T02:10:03Z</time>
      </trkpt>
      <trkpt lat="44.97845" lon="-1.19962">
        <ele>16</ele>
        <time>2013-04-29T02:10:10Z</time>
      </trkpt>
      <trkpt lat="44.97793" lon="-1.19979">
        <ele>13</ele>
        <time>2013-04-29T02:10:18Z</time>
      </trkpt>
      <trkpt lat="44.97775" lon="-1.19985">
        <ele>13</ele>
        <time>2013-04-29T02:10:20Z</time>
      </trkpt>
      <trkpt lat="44.97766" lon="-1.19981">
        <ele>12</ele>
        <time>2013-04-29T02:10:21Z</time>
      </trkpt>
      <trkpt lat="44.97759" lon="-1.19984">
        <ele>12</ele>
        <time>2013-04-29T02:10:22Z</time>
      </trkpt>
      <trkpt lat="44.97748" lon="-1.19988">
        <ele>12</ele>
        <time>2013-04-29T02:10:24Z</time>
      </trkpt>
      <trkpt lat="44.97723" lon="-1.19998">
        <ele>11</ele>
        <time>2013-04-29T02:10:27Z</time>
      </trkpt>
      <trkpt lat="44.97696" lon="-1.20006">
        <ele>11</ele>
        <time>2013-04-29T02:10:31Z</time>
      </trkpt>
      <trkpt lat="44.97638" lon="-1.20041">
        <ele>11</ele>
        <time>2013-04-29T02:10:39Z</time>
      </trkpt>
      <trkpt lat="44.97602" lon="-1.20073">
        <ele>10</ele>
        <time>2013-04-29T02:10:45Z</time>
      </trkpt>
      <trkpt lat="44.9757" lon="-1.20112">
        <ele>10</ele>
        <time>2013-04-29T02:10:51Z</time>
      </trkpt>
      <trkpt lat="44.97563" lon="-1.2012">
        <ele>10</ele>
        <time>2013-04-29T02:10:52Z</time>
      </trkpt>
      <trkpt lat="44.97563" lon="-1.2012">
        <ele>10</ele>
        <time>2013-04-29T02:10:53Z</time>
      </trkpt>
      <trkpt lat="44.97544" lon="-1.20141">
        <ele>9</ele>
        <time>2013-04-29T02:10:56Z</time>
      </trkpt>
      <trkpt lat="44.97511" lon="-1.20167">
        <ele>8</ele>
        <time>2013-04-29T02:11:01Z</time>
      </trkpt>
      <trkpt lat="44.97464" lon="-1.20186">
        <ele>6</ele>
        <time>2013-04-29T02:11:08Z</time>
      </trkpt>
      <trkpt lat="44.97416" lon="-1.20198">
        <ele>6</ele>
        <time>2013-04-29T02:11:14Z</time>
      </trkpt>
      <trkpt lat="44.96983" lon="-1.20258">
        <ele>6</ele>
        <time>2013-04-29T02:12:12Z</time>
      </trkpt>
      <trkpt lat="44.96945" lon="-1.20257">
        <ele>6</ele>
        <time>2013-04-29T02:12:19Z</time>
      </trkpt>
      <trkpt lat="44.96923" lon="-1.20251">
        <ele>6</ele>
        <time>2013-04-29T02:12:22Z</time>
      </trkpt>
      <trkpt lat="44.96527" lon="-1.20145">
        <ele>13</ele>
        <time>2013-04-29T02:13:31Z</time>
      </trkpt>
      <trkpt lat="44.96499" lon="-1.20137">
        <ele>13</ele>
        <time>2013-04-29T02:13:37Z</time>
      </trkpt>
      <trkpt lat="44.96485" lon="-1.20124">
        <ele>14</ele>
        <time>2013-04-29T02:13:40Z</time>
      </trkpt>
      <trkpt lat="44.96442" lon="-1.20066">
        <ele>16</ele>
        <time>2013-04-29T02:13:52Z</time>
      </trkpt>
      <trkpt lat="44.96427" lon="-1.20054">
        <ele>15</ele>
        <time>2013-04-29T02:13:54Z</time>
      </trkpt>
      <trkpt lat="44.96408" lon="-1.20054">
        <ele>14</ele>
        <time>2013-04-29T02:13:57Z</time>
      </trkpt>
      <trkpt lat="44.96385" lon="-1.20059">
        <ele>14</ele>
        <time>2013-04-29T02:14:00Z</time>
      </trkpt>
      <trkpt lat="44.96326" lon="-1.20096">
        <ele>12</ele>
        <time>2013-04-29T02:14:09Z</time>
      </trkpt>
      <trkpt lat="44.96321" lon="-1.20099">
        <ele>12</ele>
        <time>2013-04-29T02:14:10Z</time>
      </trkpt>
      <trkpt lat="44.96294" lon="-1.2011">
        <ele>12</ele>
        <time>2013-04-29T02:14:14Z</time>
      </trkpt>
      <trkpt lat="44.96268" lon="-1.20112">
        <ele>12</ele>
        <time>2013-04-29T02:14:18Z</time>
      </trkpt>
      <trkpt lat="44.96062" lon="-1.20111">
        <ele>14</ele>
        <time>2013-04-29T02:14:49Z</time>
      </trkpt>
      <trkpt lat="44.96042" lon="-1.20117">
        <ele>13</ele>
        <time>2013-04-29T02:14:52Z</time>
      </trkpt>
      <trkpt lat="44.96023" lon="-1.2013">
        <ele>12</ele>
        <time>2013-04-29T02:14:55Z</time>
      </trkpt>
      <trkpt lat="44.95955" lon="-1.20223">
        <ele>9</ele>
        <time>2013-04-29T02:15:07Z</time>
      </trkpt>
      <trkpt lat="44.9593" lon="-1.20255">
        <ele>9</ele>
        <time>2013-04-29T02:15:12Z</time>
      </trkpt>
      <trkpt lat="44.95898" lon="-1.20284">
        <ele>9</ele>
        <time>2013-04-29T02:15:17Z</time>
      </trkpt>
      <trkpt lat="44.9584" lon="-1.20332">
        <ele>9</ele>
        <time>2013-04-29T02:15:26Z</time>
      </trkpt>
      <trkpt lat="44.95784" lon="-1.2037">
        <ele>8</ele>
        <time>2013-04-29T02:15:34Z</time>
      </trkpt>
      <trkpt lat="44.95747" lon="-1.20391">
        <ele>8</ele>
        <time>2013-04-29T02:15:39Z</time>
      </trkpt>
      <trkpt lat="44.95713" lon="-1.20399">
        <ele>8</ele>
        <time>2013-04-29T02:15:45Z</time>
      </trkpt>
      <trkpt lat="44.95649" lon="-1.20407">
        <ele>9</ele>
        <time>2013-04-29T02:15:55Z</time>
      </trkpt>
      <trkpt lat="44.95613" lon="-1.20405">
        <ele>9</ele>
        <time>2013-04-29T02:16:02Z</time>
      </trkpt>
      <trkpt lat="44.95575" lon="-1.20395">
        <ele>10</ele>
        <time>2013-04-29T02:16:09Z</time>
      </trkpt>
      <trkpt lat="44.95329" lon="-1.20329">
        <ele>16</ele>
        <time>2013-04-29T02:16:55Z</time>
      </trkpt>
      <trkpt lat="44.95295" lon="-1.20321">
        <ele>15</ele>
        <time>2013-04-29T02:17:00Z</time>
      </trkpt>
      <trkpt lat="44.95269" lon="-1.20319">
        <ele>15</ele>
        <time>2013-04-29T02:17:03Z</time>
      </trkpt>
      <trkpt lat="44.95151" lon="-1.20345">
        <ele>14</ele>
        <time>2013-04-29T02:17:19Z</time>
      </trkpt>
      <trkpt lat="44.95125" lon="-1.20345">
        <ele>14</ele>
        <time>2013-04-29T02:17:23Z</time>
      </trkpt>
      <trkpt lat="44.95102" lon="-1.20332">
        <ele>14</ele>
        <time>2013-04-29T02:17:27Z</time>
      </trkpt>
      <trkpt lat="44.94965" lon="-1.20237">
        <ele>15</ele>
        <time>2013-04-29T02:17:49Z</time>
      </trkpt>
      <trkpt lat="44.94939" lon="-1.20228">
        <ele>15</ele>
        <time>2013-04-29T02:17:52Z</time>
      </trkpt>
      <trkpt lat="44.94912" lon="-1.20225">
        <ele>15</ele>
        <time>2013-04-29T02:17:56Z</time>
      </trkpt>
      <trkpt lat="44.94886" lon="-1.20227">
        <ele>15</ele>
        <time>2013-04-29T02:17:59Z</time>
      </trkpt>
      <trkpt lat="44.94693" lon="-1.20275">
        <ele>15</ele>
        <time>2013-04-29T02:18:26Z</time>
      </trkpt>
      <trkpt lat="44.9467" lon="-1.20279">
        <ele>14</ele>
        <time>2013-04-29T02:18:29Z</time>
      </trkpt>
      <trkpt lat="44.94654" lon="-1.20287">
        <ele>14</ele>
        <time>2013-04-29T02:18:31Z</time>
      </trkpt>
      <trkpt lat="44.94583" lon="-1.20338">
        <ele>14</ele>
        <time>2013-04-29T02:18:42Z</time>
      </trkpt>
      <trkpt lat="44.94562" lon="-1.20346">
        <ele>13</ele>
        <time>2013-04-29T02:18:45Z</time>
      </trkpt>
      <trkpt lat="44.94542" lon="-1.20347">
        <ele>13</ele>
        <time>2013-04-29T02:18:47Z</time>
      </trkpt>
      <trkpt lat="44.94523" lon="-1.2034">
        <ele>13</ele>
        <time>2013-04-29T02:18:50Z</time>
      </trkpt>
      <trkpt lat="44.94467" lon="-1.20307">
        <ele>13</ele>
        <time>2013-04-29T02:18:58Z</time>
      </trkpt>
      <trkpt lat="44.94422" lon="-1.20278">
        <ele>14</ele>
        <time>2013-04-29T02:19:07Z</time>
      </trkpt>
      <trkpt lat="44.9438" lon="-1.20266">
        <ele>15</ele>
        <time>2013-04-29T02:19:15Z</time>
      </trkpt>
      <trkpt lat="44.94259" lon="-1.20258">
        <ele>16</ele>
        <time>2013-04-29T02:19:34Z</time>
      </trkpt>
      <trkpt lat="44.94199" lon="-1.20252">
        <ele>15</ele>
        <time>2013-04-29T02:19:42Z</time>
      </trkpt>
      <trkpt lat="44.94146" lon="-1.2025">
        <ele>15</ele>
        <time>2013-04-29T02:19:49Z</time>
      </trkpt>
      <trkpt lat="44.94119" lon="-1.20254">
        <ele>15</ele>
        <time>2013-04-29T02:19:52Z</time>
      </trkpt>
      <trkpt lat="44.94049" lon="-1.20282">
        <ele>15</ele>
        <time>2013-04-29T02:20:02Z</time>
      </trkpt>
      <trkpt lat="44.93975" lon="-1.20309">
        <ele>14</ele>
        <time>2013-04-29T02:20:12Z</time>
      </trkpt>
      <trkpt lat="44.9394" lon="-1.20319">
        <ele>14</ele>
        <time>2013-04-29T02:20:17Z</time>
      </trkpt>
      <trkpt lat="44.93909" lon="-1.20316">
        <ele>14</ele>
        <time>2013-04-29T02:20:24Z</time>
      </trkpt>
      <trkpt lat="44.93847" lon="-1.20295">
        <ele>17</ele>
        <time>2013-04-29T02:20:37Z</time>
      </trkpt>
      <trkpt lat="44.93809" lon="-1.20287">
        <ele>16</ele>
        <time>2013-04-29T02:20:42Z</time>
      </trkpt>
      <trkpt lat="44.93748" lon="-1.20285">
        <ele>16</ele>
        <time>2013-04-29T02:20:50Z</time>
      </trkpt>
      <trkpt lat="44.93683" lon="-1.20295">
        <ele>15</ele>
        <time>2013-04-29T02:20:59Z</time>
      </trkpt>
      <trkpt lat="44.93565" lon="-1.20332">
        <ele>14</ele>
        <time>2013-04-29T02:21:15Z</time>
      </trkpt>
      <trkpt lat="44.93434" lon="-1.20371">
        <ele>13</ele>
        <time>2013-04-29T02:21:33Z</time>
      </trkpt>
      <trkpt lat="44.93365" lon="-1.20389">
        <ele>13</ele>
        <time>2013-04-29T02:21:43Z</time>
      </trkpt>
      <trkpt lat="44.93177" lon="-1.20446">
        <ele>14</ele>
        <time>2013-04-29T02:22:10Z</time>
      </trkpt>
      <trkpt lat="44.93096" lon="-1.20471">
        <ele>13</ele>
        <time>2013-04-29T02:22:22Z</time>
      </trkpt>
      <trkpt lat="44.93037" lon="-1.20515">
        <ele>13</ele>
        <time>2013-04-29T02:22:30Z</time>
      </trkpt>
      <trkpt lat="44.92953" lon="-1.20587">
        <ele>13</ele>
        <time>2013-04-29T02:22:44Z</time>
      </trkpt>
      <trkpt lat="44.92896" lon="-1.20634">
        <ele>11</ele>
        <time>2013-04-29T02:22:52Z</time>
      </trkpt>
      <trkpt lat="44.9287" lon="-1.20643">
        <ele>11</ele>
        <time>2013-04-29T02:22:56Z</time>
      </trkpt>
      <trkpt lat="44.92714" lon="-1.20621">
        <ele>13</ele>
        <time>2013-04-29T02:23:22Z</time>
      </trkpt>
      <trkpt lat="44.92586" lon="-1.20605">
        <ele>13</ele>
        <time>2013-04-29T02:23:39Z</time>
      </trkpt>
      <trkpt lat="44.92517" lon="-1.20615">
        <ele>12</ele>
        <time>2013-04-29T02:23:48Z</time>
      </trkpt>
      <trkpt lat="44.92378" lon="-1.20661">
        <ele>12</ele>
        <time>2013-04-29T02:24:07Z</time>
      </trkpt>
      <trkpt lat="44.92316" lon="-1.20696">
        <ele>12</ele>
        <time>2013-04-29T02:24:17Z</time>
      </trkpt>
      <trkpt lat="44.92186" lon="-1.20795">
        <ele>13</ele>
        <time>2013-04-29T02:24:38Z</time>
      </trkpt>
      <trkpt lat="44.92151" lon="-1.20817">
        <ele>12</ele>
        <time>2013-04-29T02:24:43Z</time>
      </trkpt>
      <trkpt lat="44.91998" lon="-1.20839">
        <ele>9</ele>
        <time>2013-04-29T02:25:04Z</time>
      </trkpt>
      <trkpt lat="44.91952" lon="-1.20843">
        <ele>9</ele>
        <time>2013-04-29T02:25:11Z</time>
      </trkpt>
      <trkpt lat="44.91901" lon="-1.20836">
        <ele>10</ele>
        <time>2013-04-29T02:25:19Z</time>
      </trkpt>
      <trkpt lat="44.91734" lon="-1.20802">
        <ele>13</ele>
        <time>2013-04-29T02:25:49Z</time>
      </trkpt>
      <trkpt lat="44.91721" lon="-1.20684">
        <ele>12</ele>
        <time>2013-04-29T02:26:00Z</time>
      </trkpt>
      <trkpt lat="44.91684" lon="-1.20702">
        <ele>12</ele>
        <time>2013-04-29T02:26:06Z</time>
      </trkpt>
      <trkpt lat="44.9164" lon="-1.20744">
        <ele>12</ele>
        <time>2013-04-29T02:26:13Z</time>
      </trkpt>
      <trkpt lat="44.91573" lon="-1.20773">
        <ele>12</ele>
        <time>2013-04-29T02:26:22Z</time>
      </trkpt>
      <trkpt lat="44.91528" lon="-1.20776">
        <ele>12</ele>
        <time>2013-04-29T02:26:28Z</time>
      </trkpt>
      <trkpt lat="44.91483" lon="-1.20752">
        <ele>13</ele>
        <time>2013-04-29T02:26:38Z</time>
      </trkpt>
      <trkpt lat="44.91394" lon="-1.20676">
        <ele>16</ele>
        <time>2013-04-29T02:26:58Z</time>
      </trkpt>
      <trkpt lat="44.91345" lon="-1.20642">
        <ele>16</ele>
        <time>2013-04-29T02:27:06Z</time>
      </trkpt>
      <trkpt lat="44.9124" lon="-1.20656">
        <ele>17</ele>
        <time>2013-04-29T02:27:22Z</time>
      </trkpt>
      <trkpt lat="44.91169" lon="-1.20664">
        <ele>17</ele>
        <time>2013-04-29T02:27:31Z</time>
      </trkpt>
      <trkpt lat="44.91071" lon="-1.20686">
        <ele>17</ele>
        <time>2013-04-29T02:27:45Z</time>
      </trkpt>
      <trkpt lat="44.90981" lon="-1.20766">
        <ele>16</ele>
        <time>2013-04-29T02:27:59Z</time>
      </trkpt>
      <trkpt lat="44.90916" lon="-1.20863">
        <ele>15</ele>
        <time>2013-04-29T02:28:11Z</time>
      </trkpt>
      <trkpt lat="44.90788" lon="-1.21039">
        <ele>10</ele>
        <time>2013-04-29T02:28:35Z</time>
      </trkpt>
      <trkpt lat="44.90495" lon="-1.21019">
        <ele>8</ele>
        <time>2013-04-29T02:29:14Z</time>
      </trkpt>
      <trkpt lat="44.90378" lon="-1.21048">
        <ele>10</ele>
        <time>2013-04-29T02:29:35Z</time>
      </trkpt>
      <trkpt lat="44.90363" lon="-1.21055">
        <ele>10</ele>
        <time>2013-04-29T02:29:37Z</time>
      </trkpt>
      <trkpt lat="44.90212" lon="-1.2116">
        <ele>11</ele>
        <time>2013-04-29T02:30:02Z</time>
      </trkpt>
      <trkpt lat="44.90136" lon="-1.21134">
        <ele>11</ele>
        <time>2013-04-29T02:30:14Z</time>
      </trkpt>
      <trkpt lat="44.9005" lon="-1.21141">
        <ele>12</ele>
        <time>2013-04-29T02:30:26Z</time>
      </trkpt>
      <trkpt lat="44.8998" lon="-1.2115">
        <ele>11</ele>
        <time>2013-04-29T02:30:36Z</time>
      </trkpt>
      <trkpt lat="44.8993" lon="-1.21204">
        <ele>11</ele>
        <time>2013-04-29T02:30:44Z</time>
      </trkpt>
      <trkpt lat="44.89874" lon="-1.21221">
        <ele>10</ele>
        <time>2013-04-29T02:30:52Z</time>
      </trkpt>
      <trkpt lat="44.89822" lon="-1.21282">
        <ele>10</ele>
        <time>2013-04-29T02:31:01Z</time>
      </trkpt>
      <trkpt lat="44.8979" lon="-1.21312">
        <ele>9</ele>
        <time>2013-04-29T02:31:06Z</time>
      </trkpt>
      <trkpt lat="44.89742" lon="-1.21349">
        <ele>8</ele>
        <time>2013-04-29T02:31:13Z</time>
      </trkpt>
      <trkpt lat="44.89715" lon="-1.21355">
        <ele>7</ele>
        <time>2013-04-29T02:31:17Z</time>
      </trkpt>
      <trkpt lat="44.89687" lon="-1.21363">
        <ele>6</ele>
        <time>2013-04-29T02:31:21Z</time>
      </trkpt>
      <trkpt lat="44.89675" lon="-1.21377">
        <ele>5</ele>
        <time>2013-04-29T02:31:23Z</time>
      </trkpt>
      <trkpt lat="44.89653" lon="-1.21396">
        <ele>5</ele>
        <time>2013-04-29T02:31:26Z</time>
      </trkpt>
      <trkpt lat="44.89641" lon="-1.21394">
        <ele>5</ele>
        <time>2013-04-29T02:31:28Z</time>
      </trkpt>
      <trkpt lat="44.89515" lon="-1.21336">
        <ele>7</ele>
        <time>2013-04-29T02:31:51Z</time>
      </trkpt>
      <trkpt lat="44.89467" lon="-1.21355">
        <ele>6</ele>
        <time>2013-04-29T02:31:57Z</time>
      </trkpt>
      <trkpt lat="44.89347" lon="-1.21402">
        <ele>6</ele>
        <time>2013-04-29T02:32:14Z</time>
      </trkpt>
      <trkpt lat="44.89305" lon="-1.21412">
        <ele>6</ele>
        <time>2013-04-29T02:32:20Z</time>
      </trkpt>
      <trkpt lat="44.89286" lon="-1.21398">
        <ele>6</ele>
        <time>2013-04-29T02:32:24Z</time>
      </trkpt>
      <trkpt lat="44.89258" lon="-1.21362">
        <ele>7</ele>
        <time>2013-04-29T02:32:30Z</time>
      </trkpt>
      <trkpt lat="44.89229" lon="-1.21361">
        <ele>7</ele>
        <time>2013-04-29T02:32:35Z</time>
      </trkpt>
      <trkpt lat="44.89193" lon="-1.21356">
        <ele>8</ele>
        <time>2013-04-29T02:32:41Z</time>
      </trkpt>
      <trkpt lat="44.89067" lon="-1.21321">
        <ele>10</ele>
        <time>2013-04-29T02:33:03Z</time>
      </trkpt>
      <trkpt lat="44.88996" lon="-1.21288">
        <ele>10</ele>
        <time>2013-04-29T02:33:13Z</time>
      </trkpt>
      <trkpt lat="44.88778" lon="-1.21303">
        <ele>11</ele>
        <time>2013-04-29T02:33:44Z</time>
      </trkpt>
      <trkpt lat="44.8868" lon="-1.21397">
        <ele>10</ele>
        <time>2013-04-29T02:34:00Z</time>
      </trkpt>
      <trkpt lat="44.8862" lon="-1.21366">
        <ele>10</ele>
        <time>2013-04-29T02:34:09Z</time>
      </trkpt>
      <trkpt lat="44.88566" lon="-1.2141">
        <ele>10</ele>
        <time>2013-04-29T02:34:17Z</time>
      </trkpt>
      <trkpt lat="44.88482" lon="-1.2141">
        <ele>11</ele>
        <time>2013-04-29T02:34:32Z</time>
      </trkpt>
      <trkpt lat="44.88406" lon="-1.21346">
        <ele>13</ele>
        <time>2013-04-29T02:34:47Z</time>
      </trkpt>
      <trkpt lat="44.88395" lon="-1.2132">
        <ele>13</ele>
        <time>2013-04-29T02:34:51Z</time>
      </trkpt>
      <trkpt lat="44.88348" lon="-1.21291">
        <ele>14</ele>
        <time>2013-04-29T02:35:00Z</time>
      </trkpt>
      <trkpt lat="44.88249" lon="-1.21212">
        <ele>16</ele>
        <time>2013-04-29T02:35:19Z</time>
      </trkpt>
      <trkpt lat="44.88169" lon="-1.21084">
        <ele>12</ele>
        <time>2013-04-29T02:35:36Z</time>
      </trkpt>
      <trkpt lat="44.88035" lon="-1.21157">
        <ele>15</ele>
        <time>2013-04-29T02:36:02Z</time>
      </trkpt>
      <trkpt lat="44.87893" lon="-1.21197">
        <ele>14</ele>
        <time>2013-04-29T02:36:21Z</time>
      </trkpt>
      <trkpt lat="44.87616" lon="-1.21187">
        <ele>14</ele>
        <time>2013-04-29T02:36:58Z</time>
      </trkpt>
      <trkpt lat="44.87474" lon="-1.21233">
        <ele>14</ele>
        <time>2013-04-29T02:37:18Z</time>
      </trkpt>
      <trkpt lat="44.87357" lon="-1.213">
        <ele>14</ele>
        <time>2013-04-29T02:37:35Z</time>
      </trkpt>
      <trkpt lat="44.8702" lon="-1.2151">
        <ele>14</ele>
        <time>2013-04-29T02:38:24Z</time>
      </trkpt>
      <trkpt lat="44.86681" lon="-1.21672">
        <ele>14</ele>
        <time>2013-04-29T02:39:12Z</time>
      </trkpt>
      <trkpt lat="44.86532" lon="-1.21715">
        <ele>12</ele>
        <time>2013-04-29T02:39:32Z</time>
      </trkpt>
      <trkpt lat="44.86281" lon="-1.21748">
        <ele>9</ele>
        <time>2013-04-29T02:40:06Z</time>
      </trkpt>
      <trkpt lat="44.86085" lon="-1.21666">
        <ele>12</ele>
        <time>2013-04-29T02:40:40Z</time>
      </trkpt>
      <trkpt lat="44.85793" lon="-1.21617">
        <ele>11</ele>
        <time>2013-04-29T02:41:19Z</time>
      </trkpt>
      <trkpt lat="44.8567" lon="-1.21642">
        <ele>8</ele>
        <time>2013-04-29T02:41:36Z</time>
      </trkpt>
      <trkpt lat="44.85633" lon="-1.21604">
        <ele>8</ele>
        <time>2013-04-29T02:41:45Z</time>
      </trkpt>
      <trkpt lat="44.85582" lon="-1.21629">
        <ele>10</ele>
        <time>2013-04-29T02:41:55Z</time>
      </trkpt>
      <trkpt lat="44.85544" lon="-1.21644">
        <ele>11</ele>
        <time>2013-04-29T02:42:02Z</time>
      </trkpt>
      <trkpt lat="44.8542" lon="-1.21706">
        <ele>10</ele>
        <time>2013-04-29T02:42:19Z</time>
      </trkpt>
      <trkpt lat="44.85362" lon="-1.21733">
        <ele>9</ele>
        <time>2013-04-29T02:42:28Z</time>
      </trkpt>
      <trkpt lat="44.8531" lon="-1.21755">
        <ele>9</ele>
        <time>2013-04-29T02:42:35Z</time>
      </trkpt>
      <trkpt lat="44.85269" lon="-1.21776">
        <ele>9</ele>
        <time>2013-04-29T02:42:43Z</time>
      </trkpt>
      <trkpt lat="44.85217" lon="-1.218">
        <ele>11</ele>
        <time>2013-04-29T02:42:53Z</time>
      </trkpt>
      <trkpt lat="44.85184" lon="-1.21815">
        <ele>10</ele>
        <time>2013-04-29T02:42:57Z</time>
      </trkpt>
      <trkpt lat="44.85115" lon="-1.21847">
        <ele>10</ele>
        <time>2013-04-29T02:43:07Z</time>
      </trkpt>
      <trkpt lat="44.85067" lon="-1.21875">
        <ele>9</ele>
        <time>2013-04-29T02:43:14Z</time>
      </trkpt>
      <trkpt lat="44.85037" lon="-1.21896">
        <ele>9</ele>
        <time>2013-04-29T02:43:19Z</time>
      </trkpt>
      <trkpt lat="44.85006" lon="-1.21915">
        <ele>9</ele>
        <time>2013-04-29T02:43:23Z</time>
      </trkpt>
      <trkpt lat="44.84967" lon="-1.21925">
        <ele>9</ele>
        <time>2013-04-29T02:43:30Z</time>
      </trkpt>
      <trkpt lat="44.8494" lon="-1.21922">
        <ele>10</ele>
        <time>2013-04-29T02:43:35Z</time>
      </trkpt>
      <trkpt lat="44.84919" lon="-1.21917">
        <ele>10</ele>
        <time>2013-04-29T02:43:39Z</time>
      </trkpt>
      <trkpt lat="44.84915" lon="-1.21916">
        <ele>11</ele>
        <time>2013-04-29T02:43:40Z</time>
      </trkpt>
      <trkpt lat="44.84886" lon="-1.21909">
        <ele>11</ele>
        <time>2013-04-29T02:43:46Z</time>
      </trkpt>
      <trkpt lat="44.84853" lon="-1.219">
        <ele>12</ele>
        <time>2013-04-29T02:43:52Z</time>
      </trkpt>
      <trkpt lat="44.84787" lon="-1.21883">
        <ele>14</ele>
        <time>2013-04-29T02:44:05Z</time>
      </trkpt>
      <trkpt lat="44.84748" lon="-1.21872">
        <ele>13</ele>
        <time>2013-04-29T02:44:10Z</time>
      </trkpt>
      <trkpt lat="44.84712" lon="-1.21863">
        <ele>13</ele>
        <time>2013-04-29T02:44:15Z</time>
      </trkpt>
      <trkpt lat="44.84629" lon="-1.2184">
        <ele>12</ele>
        <time>2013-04-29T02:44:26Z</time>
      </trkpt>
      <trkpt lat="44.8456" lon="-1.21803">
        <ele>12</ele>
        <time>2013-04-29T02:44:38Z</time>
      </trkpt>
      <trkpt lat="44.84516" lon="-1.21765">
        <ele>13</ele>
        <time>2013-04-29T02:44:45Z</time>
      </trkpt>
      <trkpt lat="44.84497" lon="-1.21754">
        <ele>12</ele>
        <time>2013-04-29T02:44:48Z</time>
      </trkpt>
      <trkpt lat="44.8448" lon="-1.21748">
        <ele>12</ele>
        <time>2013-04-29T02:44:51Z</time>
      </trkpt>
      <trkpt lat="44.84333" lon="-1.21765">
        <ele>12</ele>
        <time>2013-04-29T02:45:10Z</time>
      </trkpt>
      <trkpt lat="44.84276" lon="-1.21772">
        <ele>12</ele>
        <time>2013-04-29T02:45:20Z</time>
      </trkpt>
      <trkpt lat="44.84262" lon="-1.21787">
        <ele>13</ele>
        <time>2013-04-29T02:45:23Z</time>
      </trkpt>
      <trkpt lat="44.84204" lon="-1.21813">
        <ele>14</ele>
        <time>2013-04-29T02:45:33Z</time>
      </trkpt>
      <trkpt lat="44.84193" lon="-1.21819">
        <ele>13</ele>
        <time>2013-04-29T02:45:35Z</time>
      </trkpt>
      <trkpt lat="44.84167" lon="-1.21838">
        <ele>12</ele>
        <time>2013-04-29T02:45:39Z</time>
      </trkpt>
      <trkpt lat="44.84145" lon="-1.21855">
        <ele>12</ele>
        <time>2013-04-29T02:45:42Z</time>
      </trkpt>
      <trkpt lat="44.84079" lon="-1.2189">
        <ele>10</ele>
        <time>2013-04-29T02:45:51Z</time>
      </trkpt>
      <trkpt lat="44.84011" lon="-1.21924">
        <ele>8</ele>
        <time>2013-04-29T02:46:01Z</time>
      </trkpt>
      <trkpt lat="44.83969" lon="-1.21946">
        <ele>8</ele>
        <time>2013-04-29T02:46:07Z</time>
      </trkpt>
      <trkpt lat="44.83914" lon="-1.21974">
        <ele>8</ele>
        <time>2013-04-29T02:46:15Z</time>
      </trkpt>
      <trkpt lat="44.83871" lon="-1.21999">
        <ele>8</ele>
        <time>2013-04-29T02:46:21Z</time>
      </trkpt>
      <trkpt lat="44.83806" lon="-1.22033">
        <ele>7</ele>
        <time>2013-04-29T02:46:30Z</time>
      </trkpt>
      <trkpt lat="44.83761" lon="-1.22059">
        <ele>7</ele>
        <time>2013-04-29T02:46:37Z</time>
      </trkpt>
      <trkpt lat="44.83701" lon="-1.2207">
        <ele>9</ele>
        <time>2013-04-29T02:46:50Z</time>
      </trkpt>
      <trkpt lat="44.83673" lon="-1.22066">
        <ele>10</ele>
        <time>2013-04-29T02:46:57Z</time>
      </trkpt>
      <trkpt lat="44.83663" lon="-1.22049">
        <ele>11</ele>
        <time>2013-04-29T02:47:00Z</time>
      </trkpt>
      <trkpt lat="44.83608" lon="-1.22033">
        <ele>11</ele>
        <time>2013-04-29T02:47:10Z</time>
      </trkpt>
      <trkpt lat="44.83497" lon="-1.21994">
        <ele>14</ele>
        <time>2013-04-29T02:47:30Z</time>
      </trkpt>
      <trkpt lat="44.83448" lon="-1.21982">
        <ele>13</ele>
        <time>2013-04-29T02:47:37Z</time>
      </trkpt>
      <trkpt lat="44.83375" lon="-1.21956">
        <ele>13</ele>
        <time>2013-04-29T02:47:47Z</time>
      </trkpt>
      <trkpt lat="44.83329" lon="-1.21948">
        <ele>13</ele>
        <time>2013-04-29T02:47:53Z</time>
      </trkpt>
      <trkpt lat="44.83266" lon="-1.21936">
        <ele>13</ele>
        <time>2013-04-29T02:48:02Z</time>
      </trkpt>
      <trkpt lat="44.83139" lon="-1.21962">
        <ele>10</ele>
        <time>2013-04-29T02:48:19Z</time>
      </trkpt>
      <trkpt lat="44.83063" lon="-1.21973">
        <ele>10</ele>
        <time>2013-04-29T02:48:29Z</time>
      </trkpt>
      <trkpt lat="44.83023" lon="-1.21978">
        <ele>10</ele>
        <time>2013-04-29T02:48:34Z</time>
      </trkpt>
      <trkpt lat="44.82961" lon="-1.21989">
        <ele>10</ele>
        <time>2013-04-29T02:48:44Z</time>
      </trkpt>
      <trkpt lat="44.82912" lon="-1.22001">
        <ele>11</ele>
        <time>2013-04-29T02:48:52Z</time>
      </trkpt>
      <trkpt lat="44.82872" lon="-1.22027">
        <ele>12</ele>
        <time>2013-04-29T02:49:00Z</time>
      </trkpt>
      <trkpt lat="44.8284" lon="-1.22053">
        <ele>13</ele>
        <time>2013-04-29T02:49:08Z</time>
      </trkpt>
      <trkpt lat="44.82835" lon="-1.22058">
        <ele>13</ele>
        <time>2013-04-29T02:49:09Z</time>
      </trkpt>
      <trkpt lat="44.82809" lon="-1.22081">
        <ele>14</ele>
        <time>2013-04-29T02:49:15Z</time>
      </trkpt>
      <trkpt lat="44.82784" lon="-1.22101">
        <ele>14</ele>
        <time>2013-04-29T02:49:19Z</time>
      </trkpt>
      <trkpt lat="44.82763" lon="-1.22122">
        <ele>14</ele>
        <time>2013-04-29T02:49:23Z</time>
      </trkpt>
      <trkpt lat="44.82743" lon="-1.22138">
        <ele>14</ele>
        <time>2013-04-29T02:49:27Z</time>
      </trkpt>
      <trkpt lat="44.82717" lon="-1.22157">
        <ele>15</ele>
        <time>2013-04-29T02:49:31Z</time>
      </trkpt>
      <trkpt lat="44.82701" lon="-1.22178">
        <ele>14</ele>
        <time>2013-04-29T02:49:34Z</time>
      </trkpt>
      <trkpt lat="44.82688" lon="-1.2219">
        <ele>14</ele>
        <time>2013-04-29T02:49:36Z</time>
      </trkpt>
      <trkpt lat="44.82622" lon="-1.22237">
        <ele>14</ele>
        <time>2013-04-29T02:49:46Z</time>
      </trkpt>
      <trkpt lat="44.82595" lon="-1.2225">
        <ele>13</ele>
        <time>2013-04-29T02:49:50Z</time>
      </trkpt>
      <trkpt lat="44.82561" lon="-1.22247">
        <ele>13</ele>
        <time>2013-04-29T02:49:55Z</time>
      </trkpt>
      <trkpt lat="44.82494" lon="-1.2223">
        <ele>13</ele>
        <time>2013-04-29T02:50:04Z</time>
      </trkpt>
      <trkpt lat="44.82419" lon="-1.22202">
        <ele>13</ele>
        <time>2013-04-29T02:50:14Z</time>
      </trkpt>
      <trkpt lat="44.82393" lon="-1.22196">
        <ele>13</ele>
        <time>2013-04-29T02:50:18Z</time>
      </trkpt>
      <trkpt lat="44.8236" lon="-1.22186">
        <ele>13</ele>
        <time>2013-04-29T02:50:23Z</time>
      </trkpt>
      <trkpt lat="44.82246" lon="-1.22177">
        <ele>14</ele>
        <time>2013-04-29T02:50:40Z</time>
      </trkpt>
      <trkpt lat="44.82087" lon="-1.22223">
        <ele>12</ele>
        <time>2013-04-29T02:51:01Z</time>
      </trkpt>
      <trkpt lat="44.81823" lon="-1.22318">
        <ele>11</ele>
        <time>2013-04-29T02:51:38Z</time>
      </trkpt>
      <trkpt lat="44.81608" lon="-1.22383">
        <ele>11</ele>
        <time>2013-04-29T02:52:07Z</time>
      </trkpt>
      <trkpt lat="44.81388" lon="-1.22295">
        <ele>12</ele>
        <time>2013-04-29T02:52:40Z</time>
      </trkpt>
      <trkpt lat="44.81182" lon="-1.22185">
        <ele>11</ele>
        <time>2013-04-29T02:53:10Z</time>
      </trkpt>
      <trkpt lat="44.81105" lon="-1.22159">
        <ele>11</ele>
        <time>2013-04-29T02:53:22Z</time>
      </trkpt>
      <trkpt lat="44.8106" lon="-1.22162">
        <ele>12</ele>
        <time>2013-04-29T02:53:29Z</time>
      </trkpt>
      <trkpt lat="44.81051" lon="-1.22178">
        <ele>11</ele>
        <time>2013-04-29T02:53:31Z</time>
      </trkpt>
      <trkpt lat="44.80915" lon="-1.22241">
        <ele>10</ele>
        <time>2013-04-29T02:53:50Z</time>
      </trkpt>
      <trkpt lat="44.8085" lon="-1.22244">
        <ele>10</ele>
        <time>2013-04-29T02:53:59Z</time>
      </trkpt>
      <trkpt lat="44.80756" lon="-1.22269">
        <ele>11</ele>
        <time>2013-04-29T02:54:14Z</time>
      </trkpt>
      <trkpt lat="44.80497" lon="-1.2242">
        <ele>10</ele>
        <time>2013-04-29T02:54:51Z</time>
      </trkpt>
      <trkpt lat="44.80404" lon="-1.22486">
        <ele>10</ele>
        <time>2013-04-29T02:55:05Z</time>
      </trkpt>
      <trkpt lat="44.80347" lon="-1.22564">
        <ele>9</ele>
        <time>2013-04-29T02:55:15Z</time>
      </trkpt>
      <trkpt lat="44.8031" lon="-1.22652">
        <ele>9</ele>
        <time>2013-04-29T02:55:25Z</time>
      </trkpt>
      <trkpt lat="44.80281" lon="-1.22705">
        <ele>9</ele>
        <time>2013-04-29T02:55:32Z</time>
      </trkpt>
      <trkpt lat="44.80188" lon="-1.22777">
        <ele>9</ele>
        <time>2013-04-29T02:55:46Z</time>
      </trkpt>
      <trkpt lat="44.8005" lon="-1.22892">
        <ele>7</ele>
        <time>2013-04-29T02:56:07Z</time>
      </trkpt>
      <trkpt lat="44.79901" lon="-1.23016">
        <ele>9</ele>
        <time>2013-04-29T02:56:35Z</time>
      </trkpt>
      <trkpt lat="44.79863" lon="-1.23028">
        <ele>8</ele>
        <time>2013-04-29T02:56:40Z</time>
      </trkpt>
      <trkpt lat="44.79853" lon="-1.23015">
        <ele>8</ele>
        <time>2013-04-29T02:56:42Z</time>
      </trkpt>
      <trkpt lat="44.79885" lon="-1.22998">
        <ele>8</ele>
        <time>2013-04-29T02:56:47Z</time>
      </trkpt>
      <trkpt lat="44.80029" lon="-1.22893">
        <ele>7</ele>
        <time>2013-04-29T02:57:08Z</time>
      </trkpt>
      <trkpt lat="44.80078" lon="-1.22831">
        <ele>7</ele>
        <time>2013-04-29T02:57:19Z</time>
      </trkpt>
      <trkpt lat="44.80178" lon="-1.2273">
        <ele>9</ele>
        <time>2013-04-29T02:57:38Z</time>
      </trkpt>
      <trkpt lat="44.80207" lon="-1.22712">
        <ele>9</ele>
        <time>2013-04-29T02:57:43Z</time>
      </trkpt>
      <trkpt lat="44.80207" lon="-1.22712">
        <ele>9</ele>
        <time>2013-04-29T02:57:44Z</time>
      </trkpt>
      <trkpt lat="44.80178" lon="-1.2273">
        <ele>8</ele>
        <time>2013-04-29T02:57:48Z</time>
      </trkpt>
      <trkpt lat="44.80078" lon="-1.22831">
        <ele>8</ele>
        <time>2013-04-29T02:58:04Z</time>
      </trkpt>
      <trkpt lat="44.80029" lon="-1.22893">
        <ele>8</ele>
        <time>2013-04-29T02:58:14Z</time>
      </trkpt>
      <trkpt lat="44.79885" lon="-1.22998">
        <ele>9</ele>
        <time>2013-04-29T02:58:37Z</time>
      </trkpt>
      <trkpt lat="44.79853" lon="-1.23015">
        <ele>9</ele>
        <time>2013-04-29T02:58:42Z</time>
      </trkpt>
      <trkpt lat="44.79863" lon="-1.23028">
        <ele>9</ele>
        <time>2013-04-29T02:58:44Z</time>
      </trkpt>
      <trkpt lat="44.798" lon="-1.2306">
        <ele>10</ele>
        <time>2013-04-29T02:58:55Z</time>
      </trkpt>
      <trkpt lat="44.79766" lon="-1.23056">
        <ele>10</ele>
        <time>2013-04-29T02:58:59Z</time>
      </trkpt>
      <trkpt lat="44.79711" lon="-1.22973">
        <ele>10</ele>
        <time>2013-04-29T02:59:10Z</time>
      </trkpt>
      <trkpt lat="44.79699" lon="-1.22943">
        <ele>9</ele>
        <time>2013-04-29T02:59:13Z</time>
      </trkpt>
      <trkpt lat="44.79664" lon="-1.22901">
        <ele>9</ele>
        <time>2013-04-29T02:59:19Z</time>
      </trkpt>
      <trkpt lat="44.79599" lon="-1.22854">
        <ele>9</ele>
        <time>2013-04-29T02:59:29Z</time>
      </trkpt>
      <trkpt lat="44.79557" lon="-1.22909">
        <ele>8</ele>
        <time>2013-04-29T02:59:37Z</time>
      </trkpt>
      <trkpt lat="44.79473" lon="-1.22942">
        <ele>8</ele>
        <time>2013-04-29T02:59:49Z</time>
      </trkpt>
      <trkpt lat="44.79396" lon="-1.22903">
        <ele>8</ele>
        <time>2013-04-29T02:59:59Z</time>
      </trkpt>
      <trkpt lat="44.79315" lon="-1.229">
        <ele>8</ele>
        <time>2013-04-29T03:00:10Z</time>
      </trkpt>
      <trkpt lat="44.79295" lon="-1.2291">
        <ele>7</ele>
        <time>2013-04-29T03:00:13Z</time>
      </trkpt>
      <trkpt lat="44.79271" lon="-1.22928">
        <ele>7</ele>
        <time>2013-04-29T03:00:17Z</time>
      </trkpt>
      <trkpt lat="44.79234" lon="-1.2293">
        <ele>7</ele>
        <time>2013-04-29T03:00:22Z</time>
      </trkpt>
      <trkpt lat="44.792" lon="-1.22743">
        <ele>7</ele>
        <time>2013-04-29T03:00:40Z</time>
      </trkpt>
      <trkpt lat="44.79153" lon="-1.22723">
        <ele>7</ele>
        <time>2013-04-29T03:00:49Z</time>
      </trkpt>
      <trkpt lat="44.79089" lon="-1.22748">
        <ele>9</ele>
        <time>2013-04-29T03:01:00Z</time>
      </trkpt>
      <trkpt lat="44.7897" lon="-1.22851">
        <ele>12</ele>
        <time>2013-04-29T03:01:26Z</time>
      </trkpt>
      <trkpt lat="44.78806" lon="-1.22827">
        <ele>10</ele>
        <time>2013-04-29T03:01:48Z</time>
      </trkpt>
      <trkpt lat="44.78735" lon="-1.22738">
        <ele>8</ele>
        <time>2013-04-29T03:02:01Z</time>
      </trkpt>
      <trkpt lat="44.78671" lon="-1.22738">
        <ele>10</ele>
        <time>2013-04-29T03:02:14Z</time>
      </trkpt>
      <trkpt lat="44.78525" lon="-1.22017">
        <ele>13</ele>
        <time>2013-04-29T03:03:32Z</time>
      </trkpt>
      <trkpt lat="44.78305" lon="-1.21502">
        <ele>22</ele>
        <time>2013-04-29T03:04:51Z</time>
      </trkpt>
      <trkpt lat="44.7772" lon="-1.21227">
        <ele>20</ele>
        <time>2013-04-29T03:06:13Z</time>
      </trkpt>
      <trkpt lat="44.77647" lon="-1.20815">
        <ele>15</ele>
        <time>2013-04-29T03:06:54Z</time>
      </trkpt>
      <trkpt lat="44.7794" lon="-1.20369">
        <ele>15</ele>
        <time>2013-04-29T03:07:51Z</time>
      </trkpt>
      <trkpt lat="44.77932" lon="-1.20415">
        <ele>14</ele>
        <time>2013-04-29T03:07:56Z</time>
      </trkpt>
      <trkpt lat="44.78035" lon="-1.2045">
        <ele>14</ele>
        <time>2013-04-29T03:08:10Z</time>
      </trkpt>
      <trkpt lat="44.78152" lon="-1.20443">
        <ele>14</ele>
        <time>2013-04-29T03:08:26Z</time>
      </trkpt>
      <trkpt lat="44.78317" lon="-1.20269">
        <ele>12</ele>
        <time>2013-04-29T03:08:53Z</time>
      </trkpt>
      <trkpt lat="44.78402" lon="-1.19915">
        <ele>11</ele>
        <time>2013-04-29T03:09:29Z</time>
      </trkpt>
      <trkpt lat="44.78408" lon="-1.19763">
        <ele>11</ele>
        <time>2013-04-29T03:09:43Z</time>
      </trkpt>
      <trkpt lat="44.78506" lon="-1.19563">
        <ele>14</ele>
        <time>2013-04-29T03:10:13Z</time>
      </trkpt>
      <trkpt lat="44.78598" lon="-1.19334">
        <ele>12</ele>
        <time>2013-04-29T03:10:38Z</time>
      </trkpt>
      <trkpt lat="44.78723" lon="-1.19182">
        <ele>15</ele>
        <time>2013-04-29T03:11:07Z</time>
      </trkpt>
      <trkpt lat="44.78834" lon="-1.18802">
        <ele>17</ele>
        <time>2013-04-29T03:11:51Z</time>
      </trkpt>
      <trkpt lat="44.78832" lon="-1.18638">
        <ele>16</ele>
        <time>2013-04-29T03:12:07Z</time>
      </trkpt>
      <trkpt lat="44.78802" lon="-1.186">
        <ele>16</ele>
        <time>2013-04-29T03:12:12Z</time>
      </trkpt>
      <trkpt lat="44.78802" lon="-1.186">
        <ele>16</ele>
        <time>2013-04-29T03:12:13Z</time>
      </trkpt>
      <trkpt lat="44.78761" lon="-1.18547">
        <ele>15</ele>
        <time>2013-04-29T03:12:21Z</time>
      </trkpt>
      <trkpt lat="44.78487" lon="-1.18198">
        <ele>11</ele>
        <time>2013-04-29T03:13:10Z</time>
      </trkpt>
      <trkpt lat="44.78247" lon="-1.17964">
        <ele>10</ele>
        <time>2013-04-29T03:13:49Z</time>
      </trkpt>
      <trkpt lat="44.78161" lon="-1.17878">
        <ele>13</ele>
        <time>2013-04-29T03:14:10Z</time>
      </trkpt>
      <trkpt lat="44.7804" lon="-1.17623">
        <ele>13</ele>
        <time>2013-04-29T03:14:39Z</time>
      </trkpt>
      <trkpt lat="44.77909" lon="-1.17467">
        <ele>8</ele>
        <time>2013-04-29T03:15:02Z</time>
      </trkpt>
      <trkpt lat="44.77838" lon="-1.17289">
        <ele>11</ele>
        <time>2013-04-29T03:15:29Z</time>
      </trkpt>
      <trkpt lat="44.7775" lon="-1.16997">
        <ele>14</ele>
        <time>2013-04-29T03:16:06Z</time>
      </trkpt>
      <trkpt lat="44.77716" lon="-1.16835">
        <ele>9</ele>
        <time>2013-04-29T03:16:22Z</time>
      </trkpt>
      <trkpt lat="44.77716" lon="-1.16835">
        <ele>9</ele>
        <time>2013-04-29T03:16:23Z</time>
      </trkpt>
      <trkpt lat="44.77708" lon="-1.16797">
        <ele>8</ele>
        <time>2013-04-29T03:16:27Z</time>
      </trkpt>
      <trkpt lat="44.77792" lon="-1.16743">
        <ele>6</ele>
        <time>2013-04-29T03:16:39Z</time>
      </trkpt>
      <trkpt lat="44.77837" lon="-1.16718">
        <ele>5</ele>
        <time>2013-04-29T03:16:46Z</time>
      </trkpt>
      <trkpt lat="44.77845" lon="-1.16706">
        <ele>5</ele>
        <time>2013-04-29T03:16:47Z</time>
      </trkpt>
      <trkpt lat="44.77864" lon="-1.16677">
        <ele>5</ele>
        <time>2013-04-29T03:16:51Z</time>
      </trkpt>
      <trkpt lat="44.77883" lon="-1.16634">
        <ele>5</ele>
        <time>2013-04-29T03:16:56Z</time>
      </trkpt>
      <trkpt lat="44.78023" lon="-1.16426">
        <ele>5</ele>
        <time>2013-04-29T03:17:23Z</time>
      </trkpt>
      <trkpt lat="44.78074" lon="-1.16317">
        <ele>6</ele>
        <time>2013-04-29T03:17:38Z</time>
      </trkpt>
      <trkpt lat="44.78084" lon="-1.16274">
        <ele>5</ele>
        <time>2013-04-29T03:17:42Z</time>
      </trkpt>
      <trkpt lat="44.78101" lon="-1.16226">
        <ele>4</ele>
        <time>2013-04-29T03:17:47Z</time>
      </trkpt>
      <trkpt lat="44.78127" lon="-1.16174">
        <ele>4</ele>
        <time>2013-04-29T03:17:53Z</time>
      </trkpt>
      <trkpt lat="44.78151" lon="-1.16082">
        <ele>4</ele>
        <time>2013-04-29T03:18:02Z</time>
      </trkpt>
      <trkpt lat="44.78176" lon="-1.15966">
        <ele>4</ele>
        <time>2013-04-29T03:18:14Z</time>
      </trkpt>
      <trkpt lat="44.78191" lon="-1.15867">
        <ele>3</ele>
        <time>2013-04-29T03:18:23Z</time>
      </trkpt>
      <trkpt lat="44.78226" lon="-1.15467">
        <ele>2</ele>
        <time>2013-04-29T03:19:02Z</time>
      </trkpt>
      <trkpt lat="44.78238" lon="-1.15332">
        <ele>3</ele>
        <time>2013-04-29T03:19:17Z</time>
      </trkpt>
      <trkpt lat="44.78244" lon="-1.15309">
        <ele>3</ele>
        <time>2013-04-29T03:19:20Z</time>
      </trkpt>
      <trkpt lat="44.78265" lon="-1.15265">
        <ele>3</ele>
        <time>2013-04-29T03:19:25Z</time>
      </trkpt>
      <trkpt lat="44.78269" lon="-1.15247">
        <ele>3</ele>
        <time>2013-04-29T03:19:27Z</time>
      </trkpt>
      <trkpt lat="44.78245" lon="-1.1523">
        <ele>3</ele>
        <time>2013-04-29T03:19:31Z</time>
      </trkpt>
      <trkpt lat="44.78222" lon="-1.15213">
        <ele>3</ele>
        <time>2013-04-29T03:19:35Z</time>
      </trkpt>
      <trkpt lat="44.78223" lon="-1.15199">
        <ele>4</ele>
        <time>2013-04-29T03:19:37Z</time>
      </trkpt>
      <trkpt lat="44.78235" lon="-1.15032">
        <ele>7</ele>
        <time>2013-04-29T03:20:00Z</time>
      </trkpt>
      <trkpt lat="44.78234" lon="-1.14952">
        <ele>7</ele>
        <time>2013-04-29T03:20:08Z</time>
      </trkpt>
      <trkpt lat="44.78228" lon="-1.14778">
        <ele>8</ele>
        <time>2013-04-29T03:20:26Z</time>
      </trkpt>
      <trkpt lat="44.7822" lon="-1.14709">
        <ele>8</ele>
        <time>2013-04-29T03:20:33Z</time>
      </trkpt>
      <trkpt lat="44.78162" lon="-1.14387">
        <ele>9</ele>
        <time>2013-04-29T03:21:07Z</time>
      </trkpt>
      <trkpt lat="44.78143" lon="-1.1431">
        <ele>8</ele>
        <time>2013-04-29T03:21:15Z</time>
      </trkpt>
      <trkpt lat="44.78096" lon="-1.14149">
        <ele>8</ele>
        <time>2013-04-29T03:21:31Z</time>
      </trkpt>
      <trkpt lat="44.77953" lon="-1.13721">
        <ele>9</ele>
        <time>2013-04-29T03:22:18Z</time>
      </trkpt>
      <trkpt lat="44.77919" lon="-1.13622">
        <ele>6</ele>
        <time>2013-04-29T03:22:29Z</time>
      </trkpt>
      <trkpt lat="44.77905" lon="-1.13578">
        <ele>6</ele>
        <time>2013-04-29T03:22:33Z</time>
      </trkpt>
      <trkpt lat="44.77905" lon="-1.13578">
        <ele>6</ele>
        <time>2013-04-29T03:22:34Z</time>
      </trkpt>
      <trkpt lat="44.77829" lon="-1.13351">
        <ele>6</ele>
        <time>2013-04-29T03:22:58Z</time>
      </trkpt>
      <trkpt lat="44.77699" lon="-1.12972">
        <ele>11</ele>
        <time>2013-04-29T03:23:50Z</time>
      </trkpt>
      <trkpt lat="44.77673" lon="-1.12894">
        <ele>10</ele>
        <time>2013-04-29T03:23:58Z</time>
      </trkpt>
      <trkpt lat="44.7757" lon="-1.12613">
        <ele>10</ele>
        <time>2013-04-29T03:24:28Z</time>
      </trkpt>
      <trkpt lat="44.7755" lon="-1.12588">
        <ele>9</ele>
        <time>2013-04-29T03:24:32Z</time>
      </trkpt>
      <trkpt lat="44.77542" lon="-1.12585">
        <ele>9</ele>
        <time>2013-04-29T03:24:33Z</time>
      </trkpt>
      <trkpt lat="44.77531" lon="-1.12586">
        <ele>9</ele>
        <time>2013-04-29T03:24:34Z</time>
      </trkpt>
      <trkpt lat="44.77515" lon="-1.12609">
        <ele>9</ele>
        <time>2013-04-29T03:24:38Z</time>
      </trkpt>
      <trkpt lat="44.77512" lon="-1.12628">
        <ele>9</ele>
        <time>2013-04-29T03:24:39Z</time>
      </trkpt>
      <trkpt lat="44.775" lon="-1.12677">
        <ele>8</ele>
        <time>2013-04-29T03:24:44Z</time>
      </trkpt>
      <trkpt lat="44.77474" lon="-1.1276">
        <ele>8</ele>
        <time>2013-04-29T03:24:53Z</time>
      </trkpt>
      <trkpt lat="44.77443" lon="-1.12821">
        <ele>8</ele>
        <time>2013-04-29T03:25:00Z</time>
      </trkpt>
      <trkpt lat="44.774" lon="-1.12897">
        <ele>8</ele>
        <time>2013-04-29T03:25:09Z</time>
      </trkpt>
      <trkpt lat="44.7739" lon="-1.12914">
        <ele>7</ele>
        <time>2013-04-29T03:25:11Z</time>
      </trkpt>
      <trkpt lat="44.77393" lon="-1.1292">
        <ele>7</ele>
        <time>2013-04-29T03:25:12Z</time>
      </trkpt>
      <trkpt lat="44.77394" lon="-1.12926">
        <ele>7</ele>
        <time>2013-04-29T03:25:13Z</time>
      </trkpt>
      <trkpt lat="44.77394" lon="-1.12934">
        <ele>7</ele>
        <time>2013-04-29T03:25:13Z</time>
      </trkpt>
      <trkpt lat="44.77391" lon="-1.1294">
        <ele>7</ele>
        <time>2013-04-29T03:25:14Z</time>
      </trkpt>
      <trkpt lat="44.77386" lon="-1.12944">
        <ele>7</ele>
        <time>2013-04-29T03:25:15Z</time>
      </trkpt>
      <trkpt lat="44.77378" lon="-1.12944">
        <ele>7</ele>
        <time>2013-04-29T03:25:16Z</time>
      </trkpt>
      <trkpt lat="44.77375" lon="-1.12942">
        <ele>7</ele>
        <time>2013-04-29T03:25:16Z</time>
      </trkpt>
      <trkpt lat="44.77349" lon="-1.12989">
        <ele>6</ele>
        <time>2013-04-29T03:25:22Z</time>
      </trkpt>
      <trkpt lat="44.77302" lon="-1.13072">
        <ele>6</ele>
        <time>2013-04-29T03:25:32Z</time>
      </trkpt>
      <trkpt lat="44.77281" lon="-1.1311">
        <ele>6</ele>
        <time>2013-04-29T03:25:37Z</time>
      </trkpt>
      <trkpt lat="44.77194" lon="-1.13207">
        <ele>7</ele>
        <time>2013-04-29T03:25:54Z</time>
      </trkpt>
      <trkpt lat="44.77076" lon="-1.13337">
        <ele>6</ele>
        <time>2013-04-29T03:26:14Z</time>
      </trkpt>
      <trkpt lat="44.77059" lon="-1.13352">
        <ele>5</ele>
        <time>2013-04-29T03:26:17Z</time>
      </trkpt>
      <trkpt lat="44.77061" lon="-1.13361">
        <ele>5</ele>
        <time>2013-04-29T03:26:17Z</time>
      </trkpt>
      <trkpt lat="44.77059" lon="-1.13373">
        <ele>5</ele>
        <time>2013-04-29T03:26:19Z</time>
      </trkpt>
      <trkpt lat="44.77053" lon="-1.13382">
        <ele>5</ele>
        <time>2013-04-29T03:26:20Z</time>
      </trkpt>
      <trkpt lat="44.77042" lon="-1.13385">
        <ele>5</ele>
        <time>2013-04-29T03:26:21Z</time>
      </trkpt>
      <trkpt lat="44.77035" lon="-1.13379">
        <ele>5</ele>
        <time>2013-04-29T03:26:22Z</time>
      </trkpt>
      <trkpt lat="44.7703" lon="-1.13366">
        <ele>5</ele>
        <time>2013-04-29T03:26:24Z</time>
      </trkpt>
      <trkpt lat="44.77034" lon="-1.13349">
        <ele>5</ele>
        <time>2013-04-29T03:26:25Z</time>
      </trkpt>
      <trkpt lat="44.77013" lon="-1.1334">
        <ele>4</ele>
        <time>2013-04-29T03:26:28Z</time>
      </trkpt>
      <trkpt lat="44.76941" lon="-1.13321">
        <ele>3</ele>
        <time>2013-04-29T03:26:38Z</time>
      </trkpt>
      <trkpt lat="44.76936" lon="-1.13334">
        <ele>3</ele>
        <time>2013-04-29T03:26:40Z</time>
      </trkpt>
      <trkpt lat="44.76927" lon="-1.13338">
        <ele>3</ele>
        <time>2013-04-29T03:26:41Z</time>
      </trkpt>
      <trkpt lat="44.7692" lon="-1.13335">
        <ele>3</ele>
        <time>2013-04-29T03:26:42Z</time>
      </trkpt>
      <trkpt lat="44.76916" lon="-1.13329">
        <ele>3</ele>
        <time>2013-04-29T03:26:43Z</time>
      </trkpt>
      <trkpt lat="44.76914" lon="-1.13319">
        <ele>3</ele>
        <time>2013-04-29T03:26:44Z</time>
      </trkpt>
      <trkpt lat="44.76907" lon="-1.13319">
        <ele>3</ele>
        <time>2013-04-29T03:26:45Z</time>
      </trkpt>
      <trkpt lat="44.76911" lon="-1.13301">
        <ele>3</ele>
        <time>2013-04-29T03:26:46Z</time>
      </trkpt>
      <trkpt lat="44.76864" lon="-1.1321">
        <ele>4</ele>
        <time>2013-04-29T03:26:57Z</time>
      </trkpt>
      <trkpt lat="44.76831" lon="-1.1316">
        <ele>5</ele>
        <time>2013-04-29T03:27:06Z</time>
      </trkpt>
      <trkpt lat="44.76815" lon="-1.13133">
        <ele>5</ele>
        <time>2013-04-29T03:27:11Z</time>
      </trkpt>
      <trkpt lat="44.76801" lon="-1.13112">
        <ele>6</ele>
        <time>2013-04-29T03:27:14Z</time>
      </trkpt>
      <trkpt lat="44.76703" lon="-1.12986">
        <ele>7</ele>
        <time>2013-04-29T03:27:34Z</time>
      </trkpt>
      <trkpt lat="44.76677" lon="-1.12953">
        <ele>7</ele>
        <time>2013-04-29T03:27:39Z</time>
      </trkpt>
      <trkpt lat="44.76544" lon="-1.12754">
        <ele>7</ele>
        <time>2013-04-29T03:28:05Z</time>
      </trkpt>
      <trkpt lat="44.76519" lon="-1.12719">
        <ele>7</ele>
        <time>2013-04-29T03:28:10Z</time>
      </trkpt>
      <trkpt lat="44.76399" lon="-1.12535">
        <ele>7</ele>
        <time>2013-04-29T03:28:33Z</time>
      </trkpt>
      <trkpt lat="44.76266" lon="-1.12337">
        <ele>7</ele>
        <time>2013-04-29T03:28:59Z</time>
      </trkpt>
      <trkpt lat="44.76175" lon="-1.12202">
        <ele>5</ele>
        <time>2013-04-29T03:29:17Z</time>
      </trkpt>
      <trkpt lat="44.76132" lon="-1.12133">
        <ele>5</ele>
        <time>2013-04-29T03:29:26Z</time>
      </trkpt>
      <trkpt lat="44.75818" lon="-1.11665">
        <ele>5</ele>
        <time>2013-04-29T03:30:27Z</time>
      </trkpt>
      <trkpt lat="44.75681" lon="-1.11461">
        <ele>9</ele>
        <time>2013-04-29T03:31:03Z</time>
      </trkpt>
      <trkpt lat="44.75615" lon="-1.11369">
        <ele>10</ele>
        <time>2013-04-29T03:31:18Z</time>
      </trkpt>
      <trkpt lat="44.75203" lon="-1.10938">
        <ele>9</ele>
        <time>2013-04-29T03:32:26Z</time>
      </trkpt>
      <trkpt lat="44.74942" lon="-1.10667">
        <ele>6</ele>
        <time>2013-04-29T03:33:10Z</time>
      </trkpt>
      <trkpt lat="44.74864" lon="-1.10585">
        <ele>4</ele>
        <time>2013-04-29T03:33:23Z</time>
      </trkpt>
      <trkpt lat="44.74717" lon="-1.10434">
        <ele>4</ele>
        <time>2013-04-29T03:33:47Z</time>
      </trkpt>
      <trkpt lat="44.74602" lon="-1.10292">
        <ele>4</ele>
        <time>2013-04-29T03:34:07Z</time>
      </trkpt>
      <trkpt lat="44.74526" lon="-1.10173">
        <ele>5</ele>
        <time>2013-04-29T03:34:25Z</time>
      </trkpt>
      <trkpt lat="44.74364" lon="-1.09905">
        <ele>7</ele>
        <time>2013-04-29T03:35:03Z</time>
      </trkpt>
      <trkpt lat="44.7436" lon="-1.09892">
        <ele>6</ele>
        <time>2013-04-29T03:35:05Z</time>
      </trkpt>
      <trkpt lat="44.74354" lon="-1.09881">
        <ele>6</ele>
        <time>2013-04-29T03:35:06Z</time>
      </trkpt>
      <trkpt lat="44.74345" lon="-1.09874">
        <ele>6</ele>
        <time>2013-04-29T03:35:07Z</time>
      </trkpt>
      <trkpt lat="44.74334" lon="-1.09873">
        <ele>6</ele>
        <time>2013-04-29T03:35:09Z</time>
      </trkpt>
      <trkpt lat="44.74324" lon="-1.09861">
        <ele>5</ele>
        <time>2013-04-29T03:35:10Z</time>
      </trkpt>
      <trkpt lat="44.74294" lon="-1.09822">
        <ele>5</ele>
        <time>2013-04-29T03:35:16Z</time>
      </trkpt>
      <trkpt lat="44.74277" lon="-1.0981">
        <ele>5</ele>
        <time>2013-04-29T03:35:18Z</time>
      </trkpt>
      <trkpt lat="44.74253" lon="-1.09777">
        <ele>5</ele>
        <time>2013-04-29T03:35:23Z</time>
      </trkpt>
      <trkpt lat="44.74218" lon="-1.09726">
        <ele>5</ele>
        <time>2013-04-29T03:35:30Z</time>
      </trkpt>
      <trkpt lat="44.74181" lon="-1.0968">
        <ele>5</ele>
        <time>2013-04-29T03:35:36Z</time>
      </trkpt>
      <trkpt lat="44.74106" lon="-1.09555">
        <ele>5</ele>
        <time>2013-04-29T03:35:52Z</time>
      </trkpt>
      <trkpt lat="44.74032" lon="-1.09404">
        <ele>5</ele>
        <time>2013-04-29T03:36:09Z</time>
      </trkpt>
      <trkpt lat="44.74007" lon="-1.09352">
        <ele>5</ele>
        <time>2013-04-29T03:36:15Z</time>
      </trkpt>
      <trkpt lat="44.73833" lon="-1.09013">
        <ele>6</ele>
        <time>2013-04-29T03:36:57Z</time>
      </trkpt>
      <trkpt lat="44.73744" lon="-1.08838">
        <ele>7</ele>
        <time>2013-04-29T03:37:20Z</time>
      </trkpt>
      <trkpt lat="44.73704" lon="-1.0876">
        <ele>6</ele>
        <time>2013-04-29T03:37:29Z</time>
      </trkpt>
      <trkpt lat="44.73654" lon="-1.08662">
        <ele>6</ele>
        <time>2013-04-29T03:37:41Z</time>
      </trkpt>
      <trkpt lat="44.73278" lon="-1.07928">
        <ele>7</ele>
        <time>2013-04-29T03:39:09Z</time>
      </trkpt>
      <trkpt lat="44.73202" lon="-1.07764">
        <ele>8</ele>
        <time>2013-04-29T03:39:30Z</time>
      </trkpt>
      <trkpt lat="44.7293" lon="-1.07235">
        <ele>10</ele>
        <time>2013-04-29T03:40:37Z</time>
      </trkpt>
      <trkpt lat="44.72828" lon="-1.07105">
        <ele>10</ele>
        <time>2013-04-29T03:40:55Z</time>
      </trkpt>
      <trkpt lat="44.72768" lon="-1.07036">
        <ele>10</ele>
        <time>2013-04-29T03:41:05Z</time>
      </trkpt>
      <trkpt lat="44.72759" lon="-1.07026">
        <ele>10</ele>
        <time>2013-04-29T03:41:07Z</time>
      </trkpt>
      <trkpt lat="44.72712" lon="-1.06972">
        <ele>10</ele>
        <time>2013-04-29T03:41:15Z</time>
      </trkpt>
      <trkpt lat="44.72276" lon="-1.06667">
        <ele>9</ele>
        <time>2013-04-29T03:42:20Z</time>
      </trkpt>
      <trkpt lat="44.72104" lon="-1.06545">
        <ele>9</ele>
        <time>2013-04-29T03:42:46Z</time>
      </trkpt>
      <trkpt lat="44.72014" lon="-1.06478">
        <ele>8</ele>
        <time>2013-04-29T03:42:59Z</time>
      </trkpt>
      <trkpt lat="44.71928" lon="-1.06401">
        <ele>7</ele>
        <time>2013-04-29T03:43:13Z</time>
      </trkpt>
      <trkpt lat="44.71832" lon="-1.06302">
        <ele>8</ele>
        <time>2013-04-29T03:43:31Z</time>
      </trkpt>
      <trkpt lat="44.71748" lon="-1.06182">
        <ele>9</ele>
        <time>2013-04-29T03:43:50Z</time>
      </trkpt>
      <trkpt lat="44.71697" lon="-1.06094">
        <ele>8</ele>
        <time>2013-04-29T03:44:00Z</time>
      </trkpt>
      <trkpt lat="44.71653" lon="-1.05985">
        <ele>7</ele>
        <time>2013-04-29T03:44:12Z</time>
      </trkpt>
      <trkpt lat="44.7141" lon="-1.05409">
        <ele>7</ele>
        <time>2013-04-29T03:45:16Z</time>
      </trkpt>
      <trkpt lat="44.71371" lon="-1.0531">
        <ele>6</ele>
        <time>2013-04-29T03:45:27Z</time>
      </trkpt>
      <trkpt lat="44.71327" lon="-1.05209">
        <ele>5</ele>
        <time>2013-04-29T03:45:38Z</time>
      </trkpt>
      <trkpt lat="44.71304" lon="-1.05157">
        <ele>5</ele>
        <time>2013-04-29T03:45:44Z</time>
      </trkpt>
      <trkpt lat="44.7063" lon="-1.03603">
        <ele>6</ele>
        <time>2013-04-29T03:48:39Z</time>
      </trkpt>
      <trkpt lat="44.70431" lon="-1.03143">
        <ele>7</ele>
        <time>2013-04-29T03:49:33Z</time>
      </trkpt>
      <trkpt lat="44.70296" lon="-1.02818">
        <ele>11</ele>
        <time>2013-04-29T03:50:18Z</time>
      </trkpt>
      <trkpt lat="44.70154" lon="-1.02524">
        <ele>9</ele>
        <time>2013-04-29T03:50:52Z</time>
      </trkpt>
      <trkpt lat="44.7007" lon="-1.02401">
        <ele>8</ele>
        <time>2013-04-29T03:51:08Z</time>
      </trkpt>
      <trkpt lat="44.70021" lon="-1.02337">
        <ele>7</ele>
        <time>2013-04-29T03:51:17Z</time>
      </trkpt>
      <trkpt lat="44.70021" lon="-1.02337">
        <ele>7</ele>
        <time>2013-04-29T03:51:18Z</time>
      </trkpt>
      <trkpt lat="44.69989" lon="-1.02295">
        <ele>6</ele>
        <time>2013-04-29T03:51:24Z</time>
      </trkpt>
      <trkpt lat="44.69935" lon="-1.02228">
        <ele>6</ele>
        <time>2013-04-29T03:51:33Z</time>
      </trkpt>
      <trkpt lat="44.69786" lon="-1.02106">
        <ele>9</ele>
        <time>2013-04-29T03:52:03Z</time>
      </trkpt>
      <trkpt lat="44.69783" lon="-1.02103">
        <ele>9</ele>
        <time>2013-04-29T03:52:04Z</time>
      </trkpt>
      <trkpt lat="44.6975" lon="-1.02075">
        <ele>9</ele>
        <time>2013-04-29T03:52:11Z</time>
      </trkpt>
      <trkpt lat="44.6962" lon="-1.01987">
        <ele>13</ele>
        <time>2013-04-29T03:52:38Z</time>
      </trkpt>
      <trkpt lat="44.69264" lon="-1.01783">
        <ele>7</ele>
        <time>2013-04-29T03:53:29Z</time>
      </trkpt>
      <trkpt lat="44.68951" lon="-1.01604">
        <ele>7</ele>
        <time>2013-04-29T03:54:14Z</time>
      </trkpt>
      <trkpt lat="44.6869" lon="-1.01443">
        <ele>7</ele>
        <time>2013-04-29T03:54:52Z</time>
      </trkpt>
      <trkpt lat="44.68598" lon="-1.0138">
        <ele>6</ele>
        <time>2013-04-29T03:55:06Z</time>
      </trkpt>
      <trkpt lat="44.68557" lon="-1.01342">
        <ele>5</ele>
        <time>2013-04-29T03:55:13Z</time>
      </trkpt>
      <trkpt lat="44.68525" lon="-1.01299">
        <ele>5</ele>
        <time>2013-04-29T03:55:19Z</time>
      </trkpt>
      <trkpt lat="44.68308" lon="-1.01102">
        <ele>7</ele>
        <time>2013-04-29T03:55:58Z</time>
      </trkpt>
      <trkpt lat="44.68222" lon="-1.00993">
        <ele>8</ele>
        <time>2013-04-29T03:56:16Z</time>
      </trkpt>
      <trkpt lat="44.6787" lon="-1.00495">
        <ele>8</ele>
        <time>2013-04-29T03:57:23Z</time>
      </trkpt>
      <trkpt lat="44.67021" lon="-0.9929">
        <ele>16</ele>
        <time>2013-04-29T04:00:23Z</time>
      </trkpt>
      <trkpt lat="44.66872" lon="-0.99078">
        <ele>12</ele>
        <time>2013-04-29T04:00:51Z</time>
      </trkpt>
      <trkpt lat="44.66761" lon="-0.9892">
        <ele>21</ele>
        <time>2013-04-29T04:01:34Z</time>
      </trkpt>
      <trkpt lat="44.66619" lon="-0.98717">
        <ele>21</ele>
        <time>2013-04-29T04:02:01Z</time>
      </trkpt>
      <trkpt lat="44.66526" lon="-0.98584">
        <ele>18</ele>
        <time>2013-04-29T04:02:19Z</time>
      </trkpt>
      <trkpt lat="44.66376" lon="-0.98369">
        <ele>16</ele>
        <time>2013-04-29T04:02:47Z</time>
      </trkpt>
      <trkpt lat="44.66299" lon="-0.98262">
        <ele>17</ele>
        <time>2013-04-29T04:03:04Z</time>
      </trkpt>
      <trkpt lat="44.66188" lon="-0.98102">
        <ele>17</ele>
        <time>2013-04-29T04:03:25Z</time>
      </trkpt>
      <trkpt lat="44.66095" lon="-0.97971">
        <ele>13</ele>
        <time>2013-04-29T04:03:43Z</time>
      </trkpt>
      <trkpt lat="44.66001" lon="-0.97833">
        <ele>17</ele>
        <time>2013-04-29T04:04:11Z</time>
      </trkpt>
      <trkpt lat="44.65887" lon="-0.97673">
        <ele>19</ele>
        <time>2013-04-29T04:04:37Z</time>
      </trkpt>
      <trkpt lat="44.65837" lon="-0.97602">
        <ele>18</ele>
        <time>2013-04-29T04:04:46Z</time>
      </trkpt>
      <trkpt lat="44.65737" lon="-0.97459">
        <ele>17</ele>
        <time>2013-04-29T04:05:06Z</time>
      </trkpt>
      <trkpt lat="44.65723" lon="-0.97438">
        <ele>17</ele>
        <time>2013-04-29T04:05:09Z</time>
      </trkpt>
      <trkpt lat="44.65708" lon="-0.97416">
        <ele>17</ele>
        <time>2013-04-29T04:05:12Z</time>
      </trkpt>
      <trkpt lat="44.65607" lon="-0.97273">
        <ele>18</ele>
        <time>2013-04-29T04:05:33Z</time>
      </trkpt>
      <trkpt lat="44.65495" lon="-0.97111">
        <ele>18</ele>
        <time>2013-04-29T04:05:54Z</time>
      </trkpt>
      <trkpt lat="44.65412" lon="-0.96993">
        <ele>18</ele>
        <time>2013-04-29T04:06:10Z</time>
      </trkpt>
      <trkpt lat="44.65218" lon="-0.96719">
        <ele>18</ele>
        <time>2013-04-29T04:06:47Z</time>
      </trkpt>
      <trkpt lat="44.65109" lon="-0.96574">
        <ele>17</ele>
        <time>2013-04-29T04:07:07Z</time>
      </trkpt>
      <trkpt lat="44.65063" lon="-0.96513">
        <ele>17</ele>
        <time>2013-04-29T04:07:16Z</time>
      </trkpt>
      <trkpt lat="44.65011" lon="-0.96457">
        <ele>18</ele>
        <time>2013-04-29T04:07:26Z</time>
      </trkpt>
      <trkpt lat="44.65002" lon="-0.96447">
        <ele>17</ele>
        <time>2013-04-29T04:07:28Z</time>
      </trkpt>
      <trkpt lat="44.64946" lon="-0.96391">
        <ele>17</ele>
        <time>2013-04-29T04:07:37Z</time>
      </trkpt>
      <trkpt lat="44.64839" lon="-0.96296">
        <ele>17</ele>
        <time>2013-04-29T04:07:54Z</time>
      </trkpt>
      <trkpt lat="44.64606" lon="-0.96091">
        <ele>16</ele>
        <time>2013-04-29T04:08:31Z</time>
      </trkpt>
      <trkpt lat="44.64524" lon="-0.96021">
        <ele>16</ele>
        <time>2013-04-29T04:08:44Z</time>
      </trkpt>
      <trkpt lat="44.64428" lon="-0.95959">
        <ele>20</ele>
        <time>2013-04-29T04:09:07Z</time>
      </trkpt>
      <trkpt lat="44.64317" lon="-0.95929">
        <ele>19</ele>
        <time>2013-04-29T04:09:22Z</time>
      </trkpt>
      <trkpt lat="44.64259" lon="-0.95929">
        <ele>17</ele>
        <time>2013-04-29T04:09:30Z</time>
      </trkpt>
      <trkpt lat="44.64186" lon="-0.95944">
        <ele>16</ele>
        <time>2013-04-29T04:09:40Z</time>
      </trkpt>
      <trkpt lat="44.64003" lon="-0.9634">
        <ele>13</ele>
        <time>2013-04-29T04:10:25Z</time>
      </trkpt>
      <trkpt lat="44.63998" lon="-0.96332">
        <ele>13</ele>
        <time>2013-04-29T04:10:26Z</time>
      </trkpt>
      <trkpt lat="44.64057" lon="-0.962">
        <ele>15</ele>
        <time>2013-04-29T04:10:45Z</time>
      </trkpt>
      <trkpt lat="44.64191" lon="-0.959">
        <ele>16</ele>
        <time>2013-04-29T04:11:22Z</time>
      </trkpt>
      <trkpt lat="44.64191" lon="-0.959">
        <ele>16</ele>
        <time>2013-04-29T04:11:23Z</time>
      </trkpt>
      <trkpt lat="44.64057" lon="-0.962">
        <ele>15</ele>
        <time>2013-04-29T04:11:56Z</time>
      </trkpt>
      <trkpt lat="44.63998" lon="-0.96332">
        <ele>13</ele>
        <time>2013-04-29T04:12:11Z</time>
      </trkpt>
      <trkpt lat="44.64003" lon="-0.9634">
        <ele>13</ele>
        <time>2013-04-29T04:12:12Z</time>
      </trkpt>
      <trkpt lat="44.6391" lon="-0.96542">
        <ele>13</ele>
        <time>2013-04-29T04:12:35Z</time>
      </trkpt>
      <trkpt lat="44.63833" lon="-0.96708">
        <ele>12</ele>
        <time>2013-04-29T04:12:54Z</time>
      </trkpt>
      <trkpt lat="44.63794" lon="-0.96796">
        <ele>11</ele>
        <time>2013-04-29T04:13:04Z</time>
      </trkpt>
      <trkpt lat="44.63789" lon="-0.96808">
        <ele>11</ele>
        <time>2013-04-29T04:13:05Z</time>
      </trkpt>
      <trkpt lat="44.63787" lon="-0.96818">
        <ele>11</ele>
        <time>2013-04-29T04:13:06Z</time>
      </trkpt>
      <trkpt lat="44.63786" lon="-0.96827">
        <ele>10</ele>
        <time>2013-04-29T04:13:07Z</time>
      </trkpt>
      <trkpt lat="44.63787" lon="-0.96836">
        <ele>10</ele>
        <time>2013-04-29T04:13:08Z</time>
      </trkpt>
      <trkpt lat="44.63786" lon="-0.96848">
        <ele>10</ele>
        <time>2013-04-29T04:13:09Z</time>
      </trkpt>
      <trkpt lat="44.63761" lon="-0.96865">
        <ele>10</ele>
        <time>2013-04-29T04:13:12Z</time>
      </trkpt>
      <trkpt lat="44.63266" lon="-0.97972">
        <ele>6</ele>
        <time>2013-04-29T04:15:17Z</time>
      </trkpt>
      <trkpt lat="44.63113" lon="-0.98316">
        <ele>8</ele>
        <time>2013-04-29T04:15:58Z</time>
      </trkpt>
      <trkpt lat="44.6294" lon="-0.987">
        <ele>7</ele>
        <time>2013-04-29T04:16:41Z</time>
      </trkpt>
      <trkpt lat="44.62691" lon="-0.99246">
        <ele>9</ele>
        <time>2013-04-29T04:17:47Z</time>
      </trkpt>
      <trkpt lat="44.62673" lon="-0.99327">
        <ele>7</ele>
        <time>2013-04-29T04:17:55Z</time>
      </trkpt>
      <trkpt lat="44.62659" lon="-0.9946">
        <ele>6</ele>
        <time>2013-04-29T04:18:08Z</time>
      </trkpt>
      <trkpt lat="44.62648" lon="-0.99554">
        <ele>6</ele>
        <time>2013-04-29T04:18:18Z</time>
      </trkpt>
      <trkpt lat="44.62624" lon="-0.99817">
        <ele>7</ele>
        <time>2013-04-29T04:18:45Z</time>
      </trkpt>
      <trkpt lat="44.62637" lon="-0.99882">
        <ele>7</ele>
        <time>2013-04-29T04:18:51Z</time>
      </trkpt>
      <trkpt lat="44.62651" lon="-0.99902">
        <ele>7</ele>
        <time>2013-04-29T04:18:54Z</time>
      </trkpt>
      <trkpt lat="44.62654" lon="-0.99922">
        <ele>7</ele>
        <time>2013-04-29T04:18:56Z</time>
      </trkpt>
      <trkpt lat="44.6265" lon="-0.99941">
        <ele>7</ele>
        <time>2013-04-29T04:18:58Z</time>
      </trkpt>
      <trkpt lat="44.62619" lon="-1.00046">
        <ele>8</ele>
        <time>2013-04-29T04:19:12Z</time>
      </trkpt>
      <trkpt lat="44.62609" lon="-1.00107">
        <ele>9</ele>
        <time>2013-04-29T04:19:19Z</time>
      </trkpt>
      <trkpt lat="44.62595" lon="-1.00199">
        <ele>9</ele>
        <time>2013-04-29T04:19:28Z</time>
      </trkpt>
      <trkpt lat="44.62583" lon="-1.00316">
        <ele>9</ele>
        <time>2013-04-29T04:19:40Z</time>
      </trkpt>
      <trkpt lat="44.62586" lon="-1.00366">
        <ele>9</ele>
        <time>2013-04-29T04:19:45Z</time>
      </trkpt>
      <trkpt lat="44.6275" lon="-1.00977">
        <ele>14</ele>
        <time>2013-04-29T04:20:58Z</time>
      </trkpt>
      <trkpt lat="44.6275" lon="-1.00977">
        <ele>14</ele>
        <time>2013-04-29T04:20:59Z</time>
      </trkpt>
      <trkpt lat="44.62775" lon="-1.01068">
        <ele>13</ele>
        <time>2013-04-29T04:21:09Z</time>
      </trkpt>
      <trkpt lat="44.62796" lon="-1.0106">
        <ele>13</ele>
        <time>2013-04-29T04:21:12Z</time>
      </trkpt>
      <trkpt lat="44.62809" lon="-1.01057">
        <ele>13</ele>
        <time>2013-04-29T04:21:13Z</time>
      </trkpt>
      <trkpt lat="44.62829" lon="-1.01054">
        <ele>13</ele>
        <time>2013-04-29T04:21:16Z</time>
      </trkpt>
      <trkpt lat="44.62841" lon="-1.01048">
        <ele>13</ele>
        <time>2013-04-29T04:21:18Z</time>
      </trkpt>
      <trkpt lat="44.62884" lon="-1.00999">
        <ele>13</ele>
        <time>2013-04-29T04:21:27Z</time>
      </trkpt>
      <trkpt lat="44.62907" lon="-1.00986">
        <ele>14</ele>
        <time>2013-04-29T04:21:31Z</time>
      </trkpt>
      <trkpt lat="44.62928" lon="-1.00984">
        <ele>13</ele>
        <time>2013-04-29T04:21:34Z</time>
      </trkpt>
      <trkpt lat="44.62981" lon="-1.00984">
        <ele>13</ele>
        <time>2013-04-29T04:21:41Z</time>
      </trkpt>
      <trkpt lat="44.63004" lon="-1.00977">
        <ele>13</ele>
        <time>2013-04-29T04:21:44Z</time>
      </trkpt>
      <trkpt lat="44.63026" lon="-1.00963">
        <ele>12</ele>
        <time>2013-04-29T04:21:47Z</time>
      </trkpt>
      <trkpt lat="44.63038" lon="-1.00928">
        <ele>12</ele>
        <time>2013-04-29T04:21:51Z</time>
      </trkpt>
      <trkpt lat="44.63071" lon="-1.009">
        <ele>12</ele>
        <time>2013-04-29T04:21:56Z</time>
      </trkpt>
      <trkpt lat="44.63096" lon="-1.00881">
        <ele>12</ele>
        <time>2013-04-29T04:22:00Z</time>
      </trkpt>
      <trkpt lat="44.63135" lon="-1.00842">
        <ele>10</ele>
        <time>2013-04-29T04:22:06Z</time>
      </trkpt>
      <trkpt lat="44.63162" lon="-1.00826">
        <ele>9</ele>
        <time>2013-04-29T04:22:10Z</time>
      </trkpt>
      <trkpt lat="44.63185" lon="-1.00825">
        <ele>9</ele>
        <time>2013-04-29T04:22:13Z</time>
      </trkpt>
      <trkpt lat="44.6322" lon="-1.00832">
        <ele>9</ele>
        <time>2013-04-29T04:22:19Z</time>
      </trkpt>
      <trkpt lat="44.63257" lon="-1.0085">
        <ele>9</ele>
        <time>2013-04-29T04:22:25Z</time>
      </trkpt>
      <trkpt lat="44.63327" lon="-1.00893">
        <ele>11</ele>
        <time>2013-04-29T04:22:38Z</time>
      </trkpt>
      <trkpt lat="44.63339" lon="-1.00963">
        <ele>10</ele>
        <time>2013-04-29T04:22:45Z</time>
      </trkpt>
      <trkpt lat="44.63362" lon="-1.00985">
        <ele>10</ele>
        <time>2013-04-29T04:22:49Z</time>
      </trkpt>
      <trkpt lat="44.63386" lon="-1.01009">
        <ele>10</ele>
        <time>2013-04-29T04:22:53Z</time>
      </trkpt>
      <trkpt lat="44.63399" lon="-1.01031">
        <ele>9</ele>
        <time>2013-04-29T04:22:55Z</time>
      </trkpt>
      <trkpt lat="44.63401" lon="-1.01089">
        <ele>9</ele>
        <time>2013-04-29T04:23:01Z</time>
      </trkpt>
      <trkpt lat="44.63412" lon="-1.01209">
        <ele>8</ele>
        <time>2013-04-29T04:23:12Z</time>
      </trkpt>
      <trkpt lat="44.63427" lon="-1.01339">
        <ele>4</ele>
        <time>2013-04-29T04:23:25Z</time>
      </trkpt>
      <trkpt lat="44.63441" lon="-1.01397">
        <ele>3</ele>
        <time>2013-04-29T04:23:31Z</time>
      </trkpt>
      <trkpt lat="44.6345" lon="-1.01427">
        <ele>3</ele>
        <time>2013-04-29T04:23:34Z</time>
      </trkpt>
      <trkpt lat="44.63456" lon="-1.01456">
        <ele>3</ele>
        <time>2013-04-29T04:23:37Z</time>
      </trkpt>
      <trkpt lat="44.63459" lon="-1.01489">
        <ele>3</ele>
        <time>2013-04-29T04:23:40Z</time>
      </trkpt>
      <trkpt lat="44.63469" lon="-1.01488">
        <ele>3</ele>
        <time>2013-04-29T04:23:41Z</time>
      </trkpt>
      <trkpt lat="44.63474" lon="-1.01544">
        <ele>3</ele>
        <time>2013-04-29T04:23:48Z</time>
      </trkpt>
      <trkpt lat="44.6347" lon="-1.01595">
        <ele>4</ele>
        <time>2013-04-29T04:23:54Z</time>
      </trkpt>
      <trkpt lat="44.63468" lon="-1.01605">
        <ele>4</ele>
        <time>2013-04-29T04:23:55Z</time>
      </trkpt>
      <trkpt lat="44.6345" lon="-1.01695">
        <ele>5</ele>
        <time>2013-04-29T04:24:06Z</time>
      </trkpt>
      <trkpt lat="44.63445" lon="-1.0174">
        <ele>5</ele>
        <time>2013-04-29T04:24:11Z</time>
      </trkpt>
      <trkpt lat="44.63444" lon="-1.01769">
        <ele>5</ele>
        <time>2013-04-29T04:24:14Z</time>
      </trkpt>
      <trkpt lat="44.63446" lon="-1.0179">
        <ele>5</ele>
        <time>2013-04-29T04:24:17Z</time>
      </trkpt>
      <trkpt lat="44.6344" lon="-1.01805">
        <ele>5</ele>
        <time>2013-04-29T04:24:19Z</time>
      </trkpt>
      <trkpt lat="44.63422" lon="-1.01834">
        <ele>6</ele>
        <time>2013-04-29T04:24:23Z</time>
      </trkpt>
      <trkpt lat="44.63397" lon="-1.01847">
        <ele>6</ele>
        <time>2013-04-29T04:24:26Z</time>
      </trkpt>
      <trkpt lat="44.63387" lon="-1.01852">
        <ele>6</ele>
        <time>2013-04-29T04:24:28Z</time>
      </trkpt>
      <trkpt lat="44.63387" lon="-1.01852">
        <ele>6</ele>
        <time>2013-04-29T04:24:29Z</time>
      </trkpt>
      <trkpt lat="44.63356" lon="-1.01868">
        <ele>5</ele>
        <time>2013-04-29T04:24:33Z</time>
      </trkpt>
      <trkpt lat="44.63322" lon="-1.01886">
        <ele>5</ele>
        <time>2013-04-29T04:24:38Z</time>
      </trkpt>
      <trkpt lat="44.63304" lon="-1.01905">
        <ele>5</ele>
        <time>2013-04-29T04:24:41Z</time>
      </trkpt>
      <trkpt lat="44.63291" lon="-1.01922">
        <ele>5</ele>
        <time>2013-04-29T04:24:43Z</time>
      </trkpt>
      <trkpt lat="44.63277" lon="-1.01957">
        <ele>5</ele>
        <time>2013-04-29T04:24:47Z</time>
      </trkpt>
      <trkpt lat="44.63269" lon="-1.01974">
        <ele>5</ele>
        <time>2013-04-29T04:24:49Z</time>
      </trkpt>
      <trkpt lat="44.63255" lon="-1.01989">
        <ele>5</ele>
        <time>2013-04-29T04:24:52Z</time>
      </trkpt>
      <trkpt lat="44.6324" lon="-1.02005">
        <ele>5</ele>
        <time>2013-04-29T04:24:54Z</time>
      </trkpt>
      <trkpt lat="44.63241" lon="-1.02008">
        <ele>5</ele>
        <time>2013-04-29T04:24:54Z</time>
      </trkpt>
      <trkpt lat="44.63242" lon="-1.02011">
        <ele>5</ele>
        <time>2013-04-29T04:24:55Z</time>
      </trkpt>
      <trkpt lat="44.63242" lon="-1.02014">
        <ele>5</ele>
        <time>2013-04-29T04:24:55Z</time>
      </trkpt>
      <trkpt lat="44.63241" lon="-1.02016">
        <ele>5</ele>
        <time>2013-04-29T04:24:55Z</time>
      </trkpt>
      <trkpt lat="44.6324" lon="-1.02019">
        <ele>5</ele>
        <time>2013-04-29T04:24:56Z</time>
      </trkpt>
      <trkpt lat="44.63239" lon="-1.02022">
        <ele>5</ele>
        <time>2013-04-29T04:24:56Z</time>
      </trkpt>
      <trkpt lat="44.63236" lon="-1.02024">
        <ele>5</ele>
        <time>2013-04-29T04:24:56Z</time>
      </trkpt>
      <trkpt lat="44.63234" lon="-1.02024">
        <ele>5</ele>
        <time>2013-04-29T04:24:57Z</time>
      </trkpt>
      <trkpt lat="44.63231" lon="-1.02023">
        <ele>5</ele>
        <time>2013-04-29T04:24:57Z</time>
      </trkpt>
      <trkpt lat="44.63228" lon="-1.0202">
        <ele>5</ele>
        <time>2013-04-29T04:24:57Z</time>
      </trkpt>
      <trkpt lat="44.63226" lon="-1.02015">
        <ele>5</ele>
        <time>2013-04-29T04:24:58Z</time>
      </trkpt>
      <trkpt lat="44.63226" lon="-1.02011">
        <ele>5</ele>
        <time>2013-04-29T04:24:58Z</time>
      </trkpt>
      <trkpt lat="44.63227" lon="-1.02008">
        <ele>5</ele>
        <time>2013-04-29T04:24:59Z</time>
      </trkpt>
      <trkpt lat="44.63169" lon="-1.02045">
        <ele>5</ele>
        <time>2013-04-29T04:25:07Z</time>
      </trkpt>
      <trkpt lat="44.63143" lon="-1.02061">
        <ele>5</ele>
        <time>2013-04-29T04:25:11Z</time>
      </trkpt>
      <trkpt lat="44.63111" lon="-1.02081">
        <ele>5</ele>
        <time>2013-04-29T04:25:16Z</time>
      </trkpt>
      <trkpt lat="44.63083" lon="-1.02099">
        <ele>5</ele>
        <time>2013-04-29T04:25:21Z</time>
      </trkpt>
      <trkpt lat="44.63033" lon="-1.02134">
        <ele>6</ele>
        <time>2013-04-29T04:25:30Z</time>
      </trkpt>
      <trkpt lat="44.62998" lon="-1.02157">
        <ele>6</ele>
        <time>2013-04-29T04:25:36Z</time>
      </trkpt>
      <trkpt lat="44.62985" lon="-1.02166">
        <ele>6</ele>
        <time>2013-04-29T04:25:38Z</time>
      </trkpt>
      <trkpt lat="44.62977" lon="-1.02171">
        <ele>6</ele>
        <time>2013-04-29T04:25:40Z</time>
      </trkpt>
      <trkpt lat="44.62968" lon="-1.02177">
        <ele>6</ele>
        <time>2013-04-29T04:25:41Z</time>
      </trkpt>
      <trkpt lat="44.62949" lon="-1.02181">
        <ele>7</ele>
        <time>2013-04-29T04:25:44Z</time>
      </trkpt>
      <trkpt lat="44.62925" lon="-1.02193">
        <ele>7</ele>
        <time>2013-04-29T04:25:48Z</time>
      </trkpt>
      <trkpt lat="44.62901" lon="-1.02198">
        <ele>7</ele>
        <time>2013-04-29T04:25:51Z</time>
      </trkpt>
      <trkpt lat="44.62866" lon="-1.02209">
        <ele>7</ele>
        <time>2013-04-29T04:25:56Z</time>
      </trkpt>
      <trkpt lat="44.62823" lon="-1.02225">
        <ele>7</ele>
        <time>2013-04-29T04:26:02Z</time>
      </trkpt>
      <trkpt lat="44.62779" lon="-1.02253">
        <ele>7</ele>
        <time>2013-04-29T04:26:08Z</time>
      </trkpt>
      <trkpt lat="44.62718" lon="-1.02301">
        <ele>7</ele>
        <time>2013-04-29T04:26:17Z</time>
      </trkpt>
      <trkpt lat="44.62711" lon="-1.02298">
        <ele>7</ele>
        <time>2013-04-29T04:26:19Z</time>
      </trkpt>
      <trkpt lat="44.62648" lon="-1.02333">
        <ele>8</ele>
        <time>2013-04-29T04:26:31Z</time>
      </trkpt>
      <trkpt lat="44.62629" lon="-1.02343">
        <ele>9</ele>
        <time>2013-04-29T04:26:35Z</time>
      </trkpt>
      <trkpt lat="44.6261" lon="-1.02343">
        <ele>9</ele>
        <time>2013-04-29T04:26:38Z</time>
      </trkpt>
      <trkpt lat="44.62586" lon="-1.02347">
        <ele>9</ele>
        <time>2013-04-29T04:26:42Z</time>
      </trkpt>
      <trkpt lat="44.62528" lon="-1.02367">
        <ele>10</ele>
        <time>2013-04-29T04:26:51Z</time>
      </trkpt>
      <trkpt lat="44.62524" lon="-1.02368">
        <ele>9</ele>
        <time>2013-04-29T04:26:52Z</time>
      </trkpt>
      <trkpt lat="44.62467" lon="-1.02387">
        <ele>9</ele>
        <time>2013-04-29T04:27:00Z</time>
      </trkpt>
      <trkpt lat="44.62417" lon="-1.02405">
        <ele>9</ele>
        <time>2013-04-29T04:27:06Z</time>
      </trkpt>
      <trkpt lat="44.6238" lon="-1.02418">
        <ele>9</ele>
        <time>2013-04-29T04:27:11Z</time>
      </trkpt>
      <trkpt lat="44.62336" lon="-1.02429">
        <ele>9</ele>
        <time>2013-04-29T04:27:17Z</time>
      </trkpt>
      <trkpt lat="44.62337" lon="-1.02439">
        <ele>9</ele>
        <time>2013-04-29T04:27:18Z</time>
      </trkpt>
      <trkpt lat="44.62329" lon="-1.02442">
        <ele>9</ele>
        <time>2013-04-29T04:27:19Z</time>
      </trkpt>
      <trkpt lat="44.62329" lon="-1.02447">
        <ele>9</ele>
        <time>2013-04-29T04:27:20Z</time>
      </trkpt>
      <trkpt lat="44.62329" lon="-1.02447">
        <ele>9</ele>
        <time>2013-04-29T04:27:21Z</time>
      </trkpt>
      <trkpt lat="44.62329" lon="-1.02451">
        <ele>9</ele>
        <time>2013-04-29T04:27:21Z</time>
      </trkpt>
      <trkpt lat="44.62327" lon="-1.02459">
        <ele>9</ele>
        <time>2013-04-29T04:27:22Z</time>
      </trkpt>
      <trkpt lat="44.62323" lon="-1.02466">
        <ele>9</ele>
        <time>2013-04-29T04:27:23Z</time>
      </trkpt>
      <trkpt lat="44.6232" lon="-1.0247">
        <ele>9</ele>
        <time>2013-04-29T04:27:24Z</time>
      </trkpt>
      <trkpt lat="44.62323" lon="-1.02477">
        <ele>9</ele>
        <time>2013-04-29T04:27:24Z</time>
      </trkpt>
      <trkpt lat="44.62315" lon="-1.02485">
        <ele>9</ele>
        <time>2013-04-29T04:27:26Z</time>
      </trkpt>
      <trkpt lat="44.62334" lon="-1.02523">
        <ele>9</ele>
        <time>2013-04-29T04:27:30Z</time>
      </trkpt>
      <trkpt lat="44.62347" lon="-1.02563">
        <ele>9</ele>
        <time>2013-04-29T04:27:34Z</time>
      </trkpt>
      <trkpt lat="44.62404" lon="-1.02753">
        <ele>9</ele>
        <time>2013-04-29T04:27:54Z</time>
      </trkpt>
      <trkpt lat="44.62442" lon="-1.02873">
        <ele>11</ele>
        <time>2013-04-29T04:28:11Z</time>
      </trkpt>
      <trkpt lat="44.62569" lon="-1.03251">
        <ele>10</ele>
        <time>2013-04-29T04:28:51Z</time>
      </trkpt>
      <trkpt lat="44.62582" lon="-1.0333">
        <ele>9</ele>
        <time>2013-04-29T04:28:59Z</time>
      </trkpt>
      <trkpt lat="44.62592" lon="-1.03333">
        <ele>9</ele>
        <time>2013-04-29T04:29:00Z</time>
      </trkpt>
      <trkpt lat="44.626" lon="-1.03337">
        <ele>9</ele>
        <time>2013-04-29T04:29:01Z</time>
      </trkpt>
      <trkpt lat="44.62609" lon="-1.03354">
        <ele>9</ele>
        <time>2013-04-29T04:29:03Z</time>
      </trkpt>
      <trkpt lat="44.62614" lon="-1.03368">
        <ele>9</ele>
        <time>2013-04-29T04:29:05Z</time>
      </trkpt>
      <trkpt lat="44.62612" lon="-1.03381">
        <ele>9</ele>
        <time>2013-04-29T04:29:06Z</time>
      </trkpt>
      <trkpt lat="44.62602" lon="-1.03404">
        <ele>9</ele>
        <time>2013-04-29T04:29:08Z</time>
      </trkpt>
      <trkpt lat="44.62589" lon="-1.03444">
        <ele>9</ele>
        <time>2013-04-29T04:29:13Z</time>
      </trkpt>
      <trkpt lat="44.62584" lon="-1.03454">
        <ele>9</ele>
        <time>2013-04-29T04:29:14Z</time>
      </trkpt>
      <trkpt lat="44.62558" lon="-1.03503">
        <ele>9</ele>
        <time>2013-04-29T04:29:20Z</time>
      </trkpt>
      <trkpt lat="44.62496" lon="-1.03618">
        <ele>9</ele>
        <time>2013-04-29T04:29:33Z</time>
      </trkpt>
      <trkpt lat="44.62481" lon="-1.03647">
        <ele>9</ele>
        <time>2013-04-29T04:29:38Z</time>
      </trkpt>
      <trkpt lat="44.62485" lon="-1.03663">
        <ele>9</ele>
        <time>2013-04-29T04:29:40Z</time>
      </trkpt>
      <trkpt lat="44.62489" lon="-1.03672">
        <ele>9</ele>
        <time>2013-04-29T04:29:42Z</time>
      </trkpt>
      <trkpt lat="44.62497" lon="-1.03742">
        <ele>10</ele>
        <time>2013-04-29T04:29:51Z</time>
      </trkpt>
      <trkpt lat="44.62504" lon="-1.03813">
        <ele>12</ele>
        <time>2013-04-29T04:30:00Z</time>
      </trkpt>
      <trkpt lat="44.62512" lon="-1.03906">
        <ele>11</ele>
        <time>2013-04-29T04:30:09Z</time>
      </trkpt>
      <trkpt lat="44.62499" lon="-1.03909">
        <ele>11</ele>
        <time>2013-04-29T04:30:11Z</time>
      </trkpt>
      <trkpt lat="44.62503" lon="-1.03968">
        <ele>11</ele>
        <time>2013-04-29T04:30:16Z</time>
      </trkpt>
      <trkpt lat="44.62511" lon="-1.04014">
        <ele>10</ele>
        <time>2013-04-29T04:30:21Z</time>
      </trkpt>
      <trkpt lat="44.62496" lon="-1.04019">
        <ele>10</ele>
        <time>2013-04-29T04:30:23Z</time>
      </trkpt>
      <trkpt lat="44.62481" lon="-1.04023">
        <ele>10</ele>
        <time>2013-04-29T04:30:25Z</time>
      </trkpt>
      <trkpt lat="44.6246" lon="-1.0403">
        <ele>10</ele>
        <time>2013-04-29T04:30:28Z</time>
      </trkpt>
      <trkpt lat="44.62422" lon="-1.04042">
        <ele>10</ele>
        <time>2013-04-29T04:30:33Z</time>
      </trkpt>
      <trkpt lat="44.62383" lon="-1.04056">
        <ele>10</ele>
        <time>2013-04-29T04:30:38Z</time>
      </trkpt>
      <trkpt lat="44.62337" lon="-1.0407">
        <ele>10</ele>
        <time>2013-04-29T04:30:45Z</time>
      </trkpt>
      <trkpt lat="44.62326" lon="-1.04073">
        <ele>10</ele>
        <time>2013-04-29T04:30:46Z</time>
      </trkpt>
      <trkpt lat="44.62315" lon="-1.04075">
        <ele>9</ele>
        <time>2013-04-29T04:30:48Z</time>
      </trkpt>
      <trkpt lat="44.62314" lon="-1.04083">
        <ele>9</ele>
        <time>2013-04-29T04:30:49Z</time>
      </trkpt>
      <trkpt lat="44.62311" lon="-1.04101">
        <ele>9</ele>
        <time>2013-04-29T04:30:50Z</time>
      </trkpt>
      <trkpt lat="44.6231" lon="-1.04136">
        <ele>9</ele>
        <time>2013-04-29T04:30:54Z</time>
      </trkpt>
      <trkpt lat="44.62311" lon="-1.04159">
        <ele>8</ele>
        <time>2013-04-29T04:30:56Z</time>
      </trkpt>
      <trkpt lat="44.62313" lon="-1.04175">
        <ele>8</ele>
        <time>2013-04-29T04:30:57Z</time>
      </trkpt>
      <trkpt lat="44.62323" lon="-1.04243">
        <ele>8</ele>
        <time>2013-04-29T04:31:04Z</time>
      </trkpt>
      <trkpt lat="44.62328" lon="-1.04275">
        <ele>8</ele>
        <time>2013-04-29T04:31:07Z</time>
      </trkpt>
      <trkpt lat="44.62332" lon="-1.04301">
        <ele>8</ele>
        <time>2013-04-29T04:31:10Z</time>
      </trkpt>
      <trkpt lat="44.62335" lon="-1.04319">
        <ele>8</ele>
        <time>2013-04-29T04:31:12Z</time>
      </trkpt>
      <trkpt lat="44.62338" lon="-1.04327">
        <ele>8</ele>
        <time>2013-04-29T04:31:13Z</time>
      </trkpt>
      <trkpt lat="44.62341" lon="-1.0433">
        <ele>8</ele>
        <time>2013-04-29T04:31:14Z</time>
      </trkpt>
      <trkpt lat="44.62342" lon="-1.04335">
        <ele>8</ele>
        <time>2013-04-29T04:31:14Z</time>
      </trkpt>
      <trkpt lat="44.62341" lon="-1.0434">
        <ele>8</ele>
        <time>2013-04-29T04:31:15Z</time>
      </trkpt>
      <trkpt lat="44.62337" lon="-1.04347">
        <ele>8</ele>
        <time>2013-04-29T04:31:16Z</time>
      </trkpt>
      <trkpt lat="44.62338" lon="-1.04353">
        <ele>8</ele>
        <time>2013-04-29T04:31:16Z</time>
      </trkpt>
      <trkpt lat="44.62351" lon="-1.04446">
        <ele>9</ele>
        <time>2013-04-29T04:31:27Z</time>
      </trkpt>
      <trkpt lat="44.62365" lon="-1.0454">
        <ele>9</ele>
        <time>2013-04-29T04:31:37Z</time>
      </trkpt>
      <trkpt lat="44.62372" lon="-1.04583">
        <ele>10</ele>
        <time>2013-04-29T04:31:42Z</time>
      </trkpt>
      <trkpt lat="44.62376" lon="-1.04594">
        <ele>10</ele>
        <time>2013-04-29T04:31:44Z</time>
      </trkpt>
      <trkpt lat="44.62383" lon="-1.04615">
        <ele>10</ele>
        <time>2013-04-29T04:31:46Z</time>
      </trkpt>
      <trkpt lat="44.62418" lon="-1.04715">
        <ele>11</ele>
        <time>2013-04-29T04:31:59Z</time>
      </trkpt>
      <trkpt lat="44.62423" lon="-1.04755">
        <ele>11</ele>
        <time>2013-04-29T04:32:04Z</time>
      </trkpt>
      <trkpt lat="44.62428" lon="-1.04791">
        <ele>12</ele>
        <time>2013-04-29T04:32:08Z</time>
      </trkpt>
      <trkpt lat="44.62439" lon="-1.04865">
        <ele>13</ele>
        <time>2013-04-29T04:32:18Z</time>
      </trkpt>
      <trkpt lat="44.62457" lon="-1.05004">
        <ele>13</ele>
        <time>2013-04-29T04:32:31Z</time>
      </trkpt>
      <trkpt lat="44.62466" lon="-1.05059">
        <ele>12</ele>
        <time>2013-04-29T04:32:37Z</time>
      </trkpt>
      <trkpt lat="44.62471" lon="-1.05088">
        <ele>12</ele>
        <time>2013-04-29T04:32:40Z</time>
      </trkpt>
      <trkpt lat="44.62476" lon="-1.05124">
        <ele>12</ele>
        <time>2013-04-29T04:32:43Z</time>
      </trkpt>
      <trkpt lat="44.62494" lon="-1.05249">
        <ele>11</ele>
        <time>2013-04-29T04:32:55Z</time>
      </trkpt>
      <trkpt lat="44.62508" lon="-1.05339">
        <ele>11</ele>
        <time>2013-04-29T04:33:04Z</time>
      </trkpt>
      <trkpt lat="44.62528" lon="-1.05468">
        <ele>11</ele>
        <time>2013-04-29T04:33:17Z</time>
      </trkpt>
      <trkpt lat="44.62539" lon="-1.05531">
        <ele>10</ele>
        <time>2013-04-29T04:33:23Z</time>
      </trkpt>
      <trkpt lat="44.62538" lon="-1.05582">
        <ele>9</ele>
        <time>2013-04-29T04:33:28Z</time>
      </trkpt>
      <trkpt lat="44.62536" lon="-1.05644">
        <ele>9</ele>
        <time>2013-04-29T04:33:33Z</time>
      </trkpt>
      <trkpt lat="44.62536" lon="-1.05662">
        <ele>8</ele>
        <time>2013-04-29T04:33:35Z</time>
      </trkpt>
      <trkpt lat="44.62532" lon="-1.05758">
        <ele>8</ele>
        <time>2013-04-29T04:33:44Z</time>
      </trkpt>
      <trkpt lat="44.62534" lon="-1.05862">
        <ele>8</ele>
        <time>2013-04-29T04:33:54Z</time>
      </trkpt>
      <trkpt lat="44.62536" lon="-1.0606">
        <ele>9</ele>
        <time>2013-04-29T04:34:15Z</time>
      </trkpt>
      <trkpt lat="44.62521" lon="-1.06063">
        <ele>9</ele>
        <time>2013-04-29T04:34:18Z</time>
      </trkpt>
      <trkpt lat="44.62518" lon="-1.06131">
        <ele>9</ele>
        <time>2013-04-29T04:34:25Z</time>
      </trkpt>
      <trkpt lat="44.62519" lon="-1.06161">
        <ele>9</ele>
        <time>2013-04-29T04:34:29Z</time>
      </trkpt>
      <trkpt lat="44.62525" lon="-1.06199">
        <ele>10</ele>
        <time>2013-04-29T04:34:33Z</time>
      </trkpt>
      <trkpt lat="44.62527" lon="-1.06214">
        <ele>10</ele>
        <time>2013-04-29T04:34:34Z</time>
      </trkpt>
      <trkpt lat="44.62525" lon="-1.06227">
        <ele>10</ele>
        <time>2013-04-29T04:34:36Z</time>
      </trkpt>
      <trkpt lat="44.62508" lon="-1.06224">
        <ele>10</ele>
        <time>2013-04-29T04:34:38Z</time>
      </trkpt>
      <trkpt lat="44.625" lon="-1.06213">
        <ele>10</ele>
        <time>2013-04-29T04:34:39Z</time>
      </trkpt>
      <trkpt lat="44.62511" lon="-1.06163">
        <ele>10</ele>
        <time>2013-04-29T04:34:44Z</time>
      </trkpt>
      <trkpt lat="44.62511" lon="-1.06163">
        <ele>10</ele>
        <time>2013-04-29T04:34:45Z</time>
      </trkpt>
      <trkpt lat="44.625" lon="-1.06213">
        <ele>9</ele>
        <time>2013-04-29T04:34:50Z</time>
      </trkpt>
      <trkpt lat="44.62508" lon="-1.06224">
        <ele>9</ele>
        <time>2013-04-29T04:34:52Z</time>
      </trkpt>
      <trkpt lat="44.62525" lon="-1.06227">
        <ele>8</ele>
        <time>2013-04-29T04:34:54Z</time>
      </trkpt>
      <trkpt lat="44.62532" lon="-1.06232">
        <ele>8</ele>
        <time>2013-04-29T04:34:55Z</time>
      </trkpt>
      <trkpt lat="44.62554" lon="-1.06256">
        <ele>7</ele>
        <time>2013-04-29T04:34:59Z</time>
      </trkpt>
      <trkpt lat="44.62556" lon="-1.06266">
        <ele>7</ele>
        <time>2013-04-29T04:35:00Z</time>
      </trkpt>
      <trkpt lat="44.62556" lon="-1.06272">
        <ele>7</ele>
        <time>2013-04-29T04:35:00Z</time>
      </trkpt>
      <trkpt lat="44.62533" lon="-1.06316">
        <ele>7</ele>
        <time>2013-04-29T04:35:06Z</time>
      </trkpt>
      <trkpt lat="44.62506" lon="-1.06363">
        <ele>7</ele>
        <time>2013-04-29T04:35:13Z</time>
      </trkpt>
      <trkpt lat="44.62494" lon="-1.06405">
        <ele>7</ele>
        <time>2013-04-29T04:35:18Z</time>
      </trkpt>
      <trkpt lat="44.62472" lon="-1.06523">
        <ele>9</ele>
        <time>2013-04-29T04:35:32Z</time>
      </trkpt>
      <trkpt lat="44.62436" lon="-1.06662">
        <ele>9</ele>
        <time>2013-04-29T04:35:46Z</time>
      </trkpt>
      <trkpt lat="44.6242" lon="-1.06711">
        <ele>8</ele>
        <time>2013-04-29T04:35:51Z</time>
      </trkpt>
      <trkpt lat="44.62408" lon="-1.06712">
        <ele>8</ele>
        <time>2013-04-29T04:35:53Z</time>
      </trkpt>
      <trkpt lat="44.62399" lon="-1.06713">
        <ele>8</ele>
        <time>2013-04-29T04:35:54Z</time>
      </trkpt>
      <trkpt lat="44.62394" lon="-1.0673">
        <ele>8</ele>
        <time>2013-04-29T04:35:56Z</time>
      </trkpt>
      <trkpt lat="44.62355" lon="-1.06855">
        <ele>8</ele>
        <time>2013-04-29T04:36:09Z</time>
      </trkpt>
      <trkpt lat="44.62303" lon="-1.0705">
        <ele>8</ele>
        <time>2013-04-29T04:36:29Z</time>
      </trkpt>
      <trkpt lat="44.62296" lon="-1.07075">
        <ele>8</ele>
        <time>2013-04-29T04:36:31Z</time>
      </trkpt>
      <trkpt lat="44.6228" lon="-1.07134">
        <ele>8</ele>
        <time>2013-04-29T04:36:37Z</time>
      </trkpt>
      <trkpt lat="44.62267" lon="-1.07187">
        <ele>8</ele>
        <time>2013-04-29T04:36:43Z</time>
      </trkpt>
      <trkpt lat="44.6226" lon="-1.07215">
        <ele>8</ele>
        <time>2013-04-29T04:36:46Z</time>
      </trkpt>
      <trkpt lat="44.62256" lon="-1.07225">
        <ele>8</ele>
        <time>2013-04-29T04:36:47Z</time>
      </trkpt>
      <trkpt lat="44.62249" lon="-1.07247">
        <ele>8</ele>
        <time>2013-04-29T04:36:50Z</time>
      </trkpt>
      <trkpt lat="44.62244" lon="-1.0726">
        <ele>8</ele>
        <time>2013-04-29T04:36:52Z</time>
      </trkpt>
      <trkpt lat="44.62235" lon="-1.07273">
        <ele>8</ele>
        <time>2013-04-29T04:36:54Z</time>
      </trkpt>
      <trkpt lat="44.62225" lon="-1.07285">
        <ele>8</ele>
        <time>2013-04-29T04:36:56Z</time>
      </trkpt>
      <trkpt lat="44.62217" lon="-1.07292">
        <ele>9</ele>
        <time>2013-04-29T04:36:57Z</time>
      </trkpt>
      <trkpt lat="44.62204" lon="-1.07298">
        <ele>9</ele>
        <time>2013-04-29T04:37:00Z</time>
      </trkpt>
      <trkpt lat="44.62193" lon="-1.073">
        <ele>9</ele>
        <time>2013-04-29T04:37:02Z</time>
      </trkpt>
      <trkpt lat="44.62177" lon="-1.07301">
        <ele>9</ele>
        <time>2013-04-29T04:37:05Z</time>
      </trkpt>
      <trkpt lat="44.62136" lon="-1.07302">
        <ele>10</ele>
        <time>2013-04-29T04:37:12Z</time>
      </trkpt>
      <trkpt lat="44.62119" lon="-1.07302">
        <ele>11</ele>
        <time>2013-04-29T04:37:15Z</time>
      </trkpt>
      <trkpt lat="44.62103" lon="-1.07303">
        <ele>11</ele>
        <time>2013-04-29T04:37:18Z</time>
      </trkpt>
      <trkpt lat="44.62083" lon="-1.07304">
        <ele>11</ele>
        <time>2013-04-29T04:37:21Z</time>
      </trkpt>
      <trkpt lat="44.62062" lon="-1.07306">
        <ele>11</ele>
        <time>2013-04-29T04:37:24Z</time>
      </trkpt>
      <trkpt lat="44.62034" lon="-1.07311">
        <ele>11</ele>
        <time>2013-04-29T04:37:29Z</time>
      </trkpt>
      <trkpt lat="44.62034" lon="-1.07316">
        <ele>11</ele>
        <time>2013-04-29T04:37:29Z</time>
      </trkpt>
      <trkpt lat="44.62035" lon="-1.07322">
        <ele>11</ele>
        <time>2013-04-29T04:37:30Z</time>
      </trkpt>
      <trkpt lat="44.62033" lon="-1.07346">
        <ele>12</ele>
        <time>2013-04-29T04:37:32Z</time>
      </trkpt>
      <trkpt lat="44.62034" lon="-1.07381">
        <ele>11</ele>
        <time>2013-04-29T04:37:36Z</time>
      </trkpt>
      <trkpt lat="44.62033" lon="-1.07387">
        <ele>11</ele>
        <time>2013-04-29T04:37:36Z</time>
      </trkpt>
      <trkpt lat="44.62031" lon="-1.07395">
        <ele>11</ele>
        <time>2013-04-29T04:37:37Z</time>
      </trkpt>
      <trkpt lat="44.62032" lon="-1.07401">
        <ele>10</ele>
        <time>2013-04-29T04:37:38Z</time>
      </trkpt>
      <trkpt lat="44.62034" lon="-1.07412">
        <ele>10</ele>
        <time>2013-04-29T04:37:39Z</time>
      </trkpt>
      <trkpt lat="44.62014" lon="-1.07451">
        <ele>9</ele>
        <time>2013-04-29T04:37:43Z</time>
      </trkpt>
      <trkpt lat="44.62012" lon="-1.07502">
        <ele>9</ele>
        <time>2013-04-29T04:37:48Z</time>
      </trkpt>
      <trkpt lat="44.62014" lon="-1.07515">
        <ele>9</ele>
        <time>2013-04-29T04:37:50Z</time>
      </trkpt>
      <trkpt lat="44.62015" lon="-1.07519">
        <ele>9</ele>
        <time>2013-04-29T04:37:50Z</time>
      </trkpt>
      <trkpt lat="44.62014" lon="-1.07524">
        <ele>9</ele>
        <time>2013-04-29T04:37:51Z</time>
      </trkpt>
      <trkpt lat="44.62006" lon="-1.07547">
        <ele>9</ele>
        <time>2013-04-29T04:37:54Z</time>
      </trkpt>
      <trkpt lat="44.62006" lon="-1.0757">
        <ele>9</ele>
        <time>2013-04-29T04:37:56Z</time>
      </trkpt>
      <trkpt lat="44.62002" lon="-1.07596">
        <ele>9</ele>
        <time>2013-04-29T04:37:59Z</time>
      </trkpt>
      <trkpt lat="44.62001" lon="-1.07637">
        <ele>10</ele>
        <time>2013-04-29T04:38:04Z</time>
      </trkpt>
      <trkpt lat="44.62" lon="-1.07665">
        <ele>10</ele>
        <time>2013-04-29T04:38:07Z</time>
      </trkpt>
      <trkpt lat="44.61996" lon="-1.07706">
        <ele>10</ele>
        <time>2013-04-29T04:38:12Z</time>
      </trkpt>
      <trkpt lat="44.61995" lon="-1.07746">
        <ele>10</ele>
        <time>2013-04-29T04:38:16Z</time>
      </trkpt>
      <trkpt lat="44.61993" lon="-1.07773">
        <ele>11</ele>
        <time>2013-04-29T04:38:19Z</time>
      </trkpt>
      <trkpt lat="44.61992" lon="-1.07789">
        <ele>11</ele>
        <time>2013-04-29T04:38:21Z</time>
      </trkpt>
      <trkpt lat="44.61988" lon="-1.07853">
        <ele>11</ele>
        <time>2013-04-29T04:38:27Z</time>
      </trkpt>
      <trkpt lat="44.61979" lon="-1.08007">
        <ele>11</ele>
        <time>2013-04-29T04:38:42Z</time>
      </trkpt>
      <trkpt lat="44.61969" lon="-1.08086">
        <ele>10</ele>
        <time>2013-04-29T04:38:49Z</time>
      </trkpt>
      <trkpt lat="44.61966" lon="-1.08147">
        <ele>10</ele>
        <time>2013-04-29T04:38:55Z</time>
      </trkpt>
      <trkpt lat="44.61963" lon="-1.08279">
        <ele>8</ele>
        <time>2013-04-29T04:39:08Z</time>
      </trkpt>
      <trkpt lat="44.61958" lon="-1.08384">
        <ele>9</ele>
        <time>2013-04-29T04:39:21Z</time>
      </trkpt>
      <trkpt lat="44.61953" lon="-1.08502">
        <ele>11</ele>
        <time>2013-04-29T04:39:36Z</time>
      </trkpt>
      <trkpt lat="44.61958" lon="-1.08584">
        <ele>12</ele>
        <time>2013-04-29T04:39:47Z</time>
      </trkpt>
      <trkpt lat="44.61956" lon="-1.08644">
        <ele>13</ele>
        <time>2013-04-29T04:39:54Z</time>
      </trkpt>
      <trkpt lat="44.61974" lon="-1.08771">
        <ele>15</ele>
        <time>2013-04-29T04:40:12Z</time>
      </trkpt>
      <trkpt lat="44.61987" lon="-1.08906">
        <ele>15</ele>
        <time>2013-04-29T04:40:24Z</time>
      </trkpt>
      <trkpt lat="44.6199" lon="-1.08937">
        <ele>14</ele>
        <time>2013-04-29T04:40:27Z</time>
      </trkpt>
      <trkpt lat="44.62017" lon="-1.09125">
        <ele>12</ele>
        <time>2013-04-29T04:40:46Z</time>
      </trkpt>
      <trkpt lat="44.6203" lon="-1.09217">
        <ele>12</ele>
        <time>2013-04-29T04:40:55Z</time>
      </trkpt>
      <trkpt lat="44.62037" lon="-1.09266">
        <ele>12</ele>
        <time>2013-04-29T04:40:59Z</time>
      </trkpt>
      <trkpt lat="44.62044" lon="-1.0931">
        <ele>11</ele>
        <time>2013-04-29T04:41:04Z</time>
      </trkpt>
      <trkpt lat="44.62055" lon="-1.0937">
        <ele>11</ele>
        <time>2013-04-29T04:41:10Z</time>
      </trkpt>
      <trkpt lat="44.62093" lon="-1.09576">
        <ele>11</ele>
        <time>2013-04-29T04:41:30Z</time>
      </trkpt>
      <trkpt lat="44.62103" lon="-1.09624">
        <ele>11</ele>
        <time>2013-04-29T04:41:35Z</time>
      </trkpt>
      <trkpt lat="44.6211" lon="-1.09669">
        <ele>11</ele>
        <time>2013-04-29T04:41:39Z</time>
      </trkpt>
      <trkpt lat="44.6215" lon="-1.09836">
        <ele>11</ele>
        <time>2013-04-29T04:41:56Z</time>
      </trkpt>
      <trkpt lat="44.62169" lon="-1.09914">
        <ele>11</ele>
        <time>2013-04-29T04:42:03Z</time>
      </trkpt>
      <trkpt lat="44.62189" lon="-1.09979">
        <ele>11</ele>
        <time>2013-04-29T04:42:10Z</time>
      </trkpt>
      <trkpt lat="44.62221" lon="-1.1009">
        <ele>11</ele>
        <time>2013-04-29T04:42:22Z</time>
      </trkpt>
      <trkpt lat="44.62246" lon="-1.10195">
        <ele>11</ele>
        <time>2013-04-29T04:42:32Z</time>
      </trkpt>
      <trkpt lat="44.62251" lon="-1.10205">
        <ele>10</ele>
        <time>2013-04-29T04:42:33Z</time>
      </trkpt>
      <trkpt lat="44.62252" lon="-1.10213">
        <ele>10</ele>
        <time>2013-04-29T04:42:34Z</time>
      </trkpt>
      <trkpt lat="44.62254" lon="-1.1022">
        <ele>10</ele>
        <time>2013-04-29T04:42:35Z</time>
      </trkpt>
      <trkpt lat="44.62257" lon="-1.10236">
        <ele>10</ele>
        <time>2013-04-29T04:42:36Z</time>
      </trkpt>
      <trkpt lat="44.62259" lon="-1.10258">
        <ele>10</ele>
        <time>2013-04-29T04:42:38Z</time>
      </trkpt>
      <trkpt lat="44.6226" lon="-1.10274">
        <ele>10</ele>
        <time>2013-04-29T04:42:40Z</time>
      </trkpt>
      <trkpt lat="44.62265" lon="-1.10285">
        <ele>10</ele>
        <time>2013-04-29T04:42:41Z</time>
      </trkpt>
      <trkpt lat="44.6227" lon="-1.10294">
        <ele>10</ele>
        <time>2013-04-29T04:42:42Z</time>
      </trkpt>
      <trkpt lat="44.62275" lon="-1.10304">
        <ele>10</ele>
        <time>2013-04-29T04:42:43Z</time>
      </trkpt>
      <trkpt lat="44.62286" lon="-1.10336">
        <ele>10</ele>
        <time>2013-04-29T04:42:47Z</time>
      </trkpt>
      <trkpt lat="44.62294" lon="-1.10376">
        <ele>9</ele>
        <time>2013-04-29T04:42:51Z</time>
      </trkpt>
      <trkpt lat="44.6232" lon="-1.10415">
        <ele>8</ele>
        <time>2013-04-29T04:42:56Z</time>
      </trkpt>
      <trkpt lat="44.62347" lon="-1.10443">
        <ele>8</ele>
        <time>2013-04-29T04:43:00Z</time>
      </trkpt>
      <trkpt lat="44.62362" lon="-1.10452">
        <ele>8</ele>
        <time>2013-04-29T04:43:03Z</time>
      </trkpt>
      <trkpt lat="44.6237" lon="-1.10455">
        <ele>8</ele>
        <time>2013-04-29T04:43:04Z</time>
      </trkpt>
      <trkpt lat="44.62391" lon="-1.10448">
        <ele>8</ele>
        <time>2013-04-29T04:43:08Z</time>
      </trkpt>
      <trkpt lat="44.62394" lon="-1.1045">
        <ele>8</ele>
        <time>2013-04-29T04:43:08Z</time>
      </trkpt>
      <trkpt lat="44.62397" lon="-1.10457">
        <ele>8</ele>
        <time>2013-04-29T04:43:09Z</time>
      </trkpt>
      <trkpt lat="44.624" lon="-1.10463">
        <ele>8</ele>
        <time>2013-04-29T04:43:10Z</time>
      </trkpt>
      <trkpt lat="44.62407" lon="-1.10473">
        <ele>8</ele>
        <time>2013-04-29T04:43:12Z</time>
      </trkpt>
      <trkpt lat="44.6241" lon="-1.10479">
        <ele>8</ele>
        <time>2013-04-29T04:43:13Z</time>
      </trkpt>
      <trkpt lat="44.62412" lon="-1.10486">
        <ele>9</ele>
        <time>2013-04-29T04:43:14Z</time>
      </trkpt>
      <trkpt lat="44.62412" lon="-1.10486">
        <ele>9</ele>
        <time>2013-04-29T04:43:15Z</time>
      </trkpt>
      <trkpt lat="44.62413" lon="-1.10491">
        <ele>9</ele>
        <time>2013-04-29T04:43:15Z</time>
      </trkpt>
      <trkpt lat="44.62418" lon="-1.10504">
        <ele>9</ele>
        <time>2013-04-29T04:43:16Z</time>
      </trkpt>
      <trkpt lat="44.62421" lon="-1.1051">
        <ele>9</ele>
        <time>2013-04-29T04:43:17Z</time>
      </trkpt>
      <trkpt lat="44.62424" lon="-1.10517">
        <ele>9</ele>
        <time>2013-04-29T04:43:18Z</time>
      </trkpt>
      <trkpt lat="44.62427" lon="-1.10523">
        <ele>9</ele>
        <time>2013-04-29T04:43:19Z</time>
      </trkpt>
      <trkpt lat="44.62431" lon="-1.1053">
        <ele>9</ele>
        <time>2013-04-29T04:43:20Z</time>
      </trkpt>
      <trkpt lat="44.62436" lon="-1.10537">
        <ele>9</ele>
        <time>2013-04-29T04:43:20Z</time>
      </trkpt>
      <trkpt lat="44.62438" lon="-1.10542">
        <ele>9</ele>
        <time>2013-04-29T04:43:21Z</time>
      </trkpt>
      <trkpt lat="44.62446" lon="-1.10565">
        <ele>9</ele>
        <time>2013-04-29T04:43:23Z</time>
      </trkpt>
      <trkpt lat="44.62456" lon="-1.10594">
        <ele>9</ele>
        <time>2013-04-29T04:43:26Z</time>
      </trkpt>
      <trkpt lat="44.62461" lon="-1.10605">
        <ele>9</ele>
        <time>2013-04-29T04:43:28Z</time>
      </trkpt>
      <trkpt lat="44.62466" lon="-1.10616">
        <ele>9</ele>
        <time>2013-04-29T04:43:29Z</time>
      </trkpt>
      <trkpt lat="44.62484" lon="-1.10675">
        <ele>9</ele>
        <time>2013-04-29T04:43:36Z</time>
      </trkpt>
      <trkpt lat="44.62482" lon="-1.10678">
        <ele>9</ele>
        <time>2013-04-29T04:43:36Z</time>
      </trkpt>
      <trkpt lat="44.62465" lon="-1.10676">
        <ele>9</ele>
        <time>2013-04-29T04:43:39Z</time>
      </trkpt>
      <trkpt lat="44.62452" lon="-1.10673">
        <ele>9</ele>
        <time>2013-04-29T04:43:41Z</time>
      </trkpt>
      <trkpt lat="44.6244" lon="-1.10673">
        <ele>9</ele>
        <time>2013-04-29T04:43:43Z</time>
      </trkpt>
      <trkpt lat="44.62431" lon="-1.10673">
        <ele>9</ele>
        <time>2013-04-29T04:43:44Z</time>
      </trkpt>
      <trkpt lat="44.62424" lon="-1.10673">
        <ele>9</ele>
        <time>2013-04-29T04:43:45Z</time>
      </trkpt>
      <trkpt lat="44.62417" lon="-1.10675">
        <ele>9</ele>
        <time>2013-04-29T04:43:46Z</time>
      </trkpt>
      <trkpt lat="44.62408" lon="-1.10681">
        <ele>9</ele>
        <time>2013-04-29T04:43:48Z</time>
      </trkpt>
      <trkpt lat="44.62398" lon="-1.10689">
        <ele>9</ele>
        <time>2013-04-29T04:43:49Z</time>
      </trkpt>
      <trkpt lat="44.62387" lon="-1.107">
        <ele>10</ele>
        <time>2013-04-29T04:43:51Z</time>
      </trkpt>
      <trkpt lat="44.62378" lon="-1.10711">
        <ele>10</ele>
        <time>2013-04-29T04:43:53Z</time>
      </trkpt>
      <trkpt lat="44.62372" lon="-1.1072">
        <ele>10</ele>
        <time>2013-04-29T04:43:54Z</time>
      </trkpt>
      <trkpt lat="44.62368" lon="-1.10729">
        <ele>10</ele>
        <time>2013-04-29T04:43:55Z</time>
      </trkpt>
      <trkpt lat="44.62362" lon="-1.10743">
        <ele>10</ele>
        <time>2013-04-29T04:43:57Z</time>
      </trkpt>
      <trkpt lat="44.62341" lon="-1.10803">
        <ele>10</ele>
        <time>2013-04-29T04:44:03Z</time>
      </trkpt>
      <trkpt lat="44.62322" lon="-1.10788">
        <ele>10</ele>
        <time>2013-04-29T04:44:06Z</time>
      </trkpt>
      <trkpt lat="44.62219" lon="-1.107">
        <ele>9</ele>
        <time>2013-04-29T04:44:22Z</time>
      </trkpt>
      <trkpt lat="44.62159" lon="-1.1065">
        <ele>10</ele>
        <time>2013-04-29T04:44:34Z</time>
      </trkpt>
      <trkpt lat="44.62117" lon="-1.10608">
        <ele>11</ele>
        <time>2013-04-29T04:44:43Z</time>
      </trkpt>
      <trkpt lat="44.62083" lon="-1.10582">
        <ele>11</ele>
        <time>2013-04-29T04:44:50Z</time>
      </trkpt>
      <trkpt lat="44.6208" lon="-1.10582">
        <ele>11</ele>
        <time>2013-04-29T04:44:51Z</time>
      </trkpt>
      <trkpt lat="44.62077" lon="-1.10587">
        <ele>12</ele>
        <time>2013-04-29T04:44:52Z</time>
      </trkpt>
      <trkpt lat="44.62073" lon="-1.10597">
        <ele>12</ele>
        <time>2013-04-29T04:44:53Z</time>
      </trkpt>
      <trkpt lat="44.6207" lon="-1.10604">
        <ele>12</ele>
        <time>2013-04-29T04:44:54Z</time>
      </trkpt>
      <trkpt lat="44.62067" lon="-1.10609">
        <ele>12</ele>
        <time>2013-04-29T04:44:55Z</time>
      </trkpt>
      <trkpt lat="44.62063" lon="-1.10613">
        <ele>12</ele>
        <time>2013-04-29T04:44:56Z</time>
      </trkpt>
      <trkpt lat="44.6206" lon="-1.10614">
        <ele>12</ele>
        <time>2013-04-29T04:44:57Z</time>
      </trkpt>
      <trkpt lat="44.61967" lon="-1.10643">
        <ele>15</ele>
        <time>2013-04-29T04:45:15Z</time>
      </trkpt>
      <trkpt lat="44.61938" lon="-1.10652">
        <ele>14</ele>
        <time>2013-04-29T04:45:19Z</time>
      </trkpt>
      <trkpt lat="44.61906" lon="-1.10662">
        <ele>13</ele>
        <time>2013-04-29T04:45:23Z</time>
      </trkpt>
      <trkpt lat="44.61892" lon="-1.10665">
        <ele>13</ele>
        <time>2013-04-29T04:45:25Z</time>
      </trkpt>
      <trkpt lat="44.61855" lon="-1.10672">
        <ele>13</ele>
        <time>2013-04-29T04:45:30Z</time>
      </trkpt>
      <trkpt lat="44.61841" lon="-1.10677">
        <ele>12</ele>
        <time>2013-04-29T04:45:32Z</time>
      </trkpt>
      <trkpt lat="44.61827" lon="-1.10683">
        <ele>12</ele>
        <time>2013-04-29T04:45:34Z</time>
      </trkpt>
      <trkpt lat="44.6182" lon="-1.10686">
        <ele>12</ele>
        <time>2013-04-29T04:45:35Z</time>
      </trkpt>
      <trkpt lat="44.61803" lon="-1.10691">
        <ele>12</ele>
        <time>2013-04-29T04:45:37Z</time>
      </trkpt>
      <trkpt lat="44.61783" lon="-1.10696">
        <ele>12</ele>
        <time>2013-04-29T04:45:40Z</time>
      </trkpt>
      <trkpt lat="44.61768" lon="-1.10697">
        <ele>12</ele>
        <time>2013-04-29T04:45:42Z</time>
      </trkpt>
      <trkpt lat="44.61757" lon="-1.107">
        <ele>12</ele>
        <time>2013-04-29T04:45:44Z</time>
      </trkpt>
      <trkpt lat="44.61741" lon="-1.10703">
        <ele>12</ele>
        <time>2013-04-29T04:45:47Z</time>
      </trkpt>
      <trkpt lat="44.61721" lon="-1.10708">
        <ele>12</ele>
        <time>2013-04-29T04:45:51Z</time>
      </trkpt>
      <trkpt lat="44.61715" lon="-1.1071">
        <ele>13</ele>
        <time>2013-04-29T04:45:52Z</time>
      </trkpt>
      <trkpt lat="44.61715" lon="-1.1071">
        <ele>13</ele>
        <time>2013-04-29T04:45:53Z</time>
      </trkpt>
      <trkpt lat="44.617" lon="-1.10715">
        <ele>12</ele>
        <time>2013-04-29T04:45:55Z</time>
      </trkpt>
      <trkpt lat="44.61682" lon="-1.10722">
        <ele>12</ele>
        <time>2013-04-29T04:45:57Z</time>
      </trkpt>
      <trkpt lat="44.61674" lon="-1.10725">
        <ele>12</ele>
        <time>2013-04-29T04:45:58Z</time>
      </trkpt>
      <trkpt lat="44.61672" lon="-1.10728">
        <ele>12</ele>
        <time>2013-04-29T04:45:59Z</time>
      </trkpt>
      <trkpt lat="44.61673" lon="-1.10731">
        <ele>12</ele>
        <time>2013-04-29T04:45:59Z</time>
      </trkpt>
      <trkpt lat="44.61675" lon="-1.10751">
        <ele>12</ele>
        <time>2013-04-29T04:46:01Z</time>
      </trkpt>
      <trkpt lat="44.61676" lon="-1.10781">
        <ele>12</ele>
        <time>2013-04-29T04:46:04Z</time>
      </trkpt>
      <trkpt lat="44.61677" lon="-1.10791">
        <ele>12</ele>
        <time>2013-04-29T04:46:05Z</time>
      </trkpt>
      <trkpt lat="44.61677" lon="-1.10806">
        <ele>12</ele>
        <time>2013-04-29T04:46:06Z</time>
      </trkpt>
      <trkpt lat="44.61676" lon="-1.10816">
        <ele>12</ele>
        <time>2013-04-29T04:46:07Z</time>
      </trkpt>
      <trkpt lat="44.61675" lon="-1.10826">
        <ele>12</ele>
        <time>2013-04-29T04:46:08Z</time>
      </trkpt>
      <trkpt lat="44.61678" lon="-1.10847">
        <ele>11</ele>
        <time>2013-04-29T04:46:10Z</time>
      </trkpt>
      <trkpt lat="44.61679" lon="-1.10863">
        <ele>11</ele>
        <time>2013-04-29T04:46:12Z</time>
      </trkpt>
      <trkpt lat="44.61683" lon="-1.10889">
        <ele>11</ele>
        <time>2013-04-29T04:46:14Z</time>
      </trkpt>
      <trkpt lat="44.61688" lon="-1.10929">
        <ele>11</ele>
        <time>2013-04-29T04:46:18Z</time>
      </trkpt>
      <trkpt lat="44.61716" lon="-1.11174">
        <ele>11</ele>
        <time>2013-04-29T04:46:42Z</time>
      </trkpt>
      <trkpt lat="44.61717" lon="-1.11177">
        <ele>11</ele>
        <time>2013-04-29T04:46:42Z</time>
      </trkpt>
      <trkpt lat="44.61716" lon="-1.1118">
        <ele>11</ele>
        <time>2013-04-29T04:46:43Z</time>
      </trkpt>
      <trkpt lat="44.61713" lon="-1.11183">
        <ele>11</ele>
        <time>2013-04-29T04:46:43Z</time>
      </trkpt>
      <trkpt lat="44.61709" lon="-1.11186">
        <ele>11</ele>
        <time>2013-04-29T04:46:44Z</time>
      </trkpt>
      <trkpt lat="44.61709" lon="-1.11191">
        <ele>11</ele>
        <time>2013-04-29T04:46:45Z</time>
      </trkpt>
      <trkpt lat="44.61709" lon="-1.11194">
        <ele>11</ele>
        <time>2013-04-29T04:46:45Z</time>
      </trkpt>
      <trkpt lat="44.61718" lon="-1.11257">
        <ele>11</ele>
        <time>2013-04-29T04:46:52Z</time>
      </trkpt>
      <trkpt lat="44.61722" lon="-1.11257">
        <ele>11</ele>
        <time>2013-04-29T04:46:53Z</time>
      </trkpt>
      <trkpt lat="44.61746" lon="-1.11254">
        <ele>12</ele>
        <time>2013-04-29T04:46:57Z</time>
      </trkpt>
      <trkpt lat="44.61773" lon="-1.1147">
        <ele>14</ele>
        <time>2013-04-29T04:47:22Z</time>
      </trkpt>
      <trkpt lat="44.61797" lon="-1.11674">
        <ele>13</ele>
        <time>2013-04-29T04:47:42Z</time>
      </trkpt>
      <trkpt lat="44.61831" lon="-1.11962">
        <ele>13</ele>
        <time>2013-04-29T04:48:10Z</time>
      </trkpt>
      <trkpt lat="44.61835" lon="-1.12019">
        <ele>12</ele>
        <time>2013-04-29T04:48:15Z</time>
      </trkpt>
      <trkpt lat="44.61826" lon="-1.12046">
        <ele>12</ele>
        <time>2013-04-29T04:48:18Z</time>
      </trkpt>
      <trkpt lat="44.61826" lon="-1.1205">
        <ele>12</ele>
        <time>2013-04-29T04:48:18Z</time>
      </trkpt>
      <trkpt lat="44.61826" lon="-1.12055">
        <ele>12</ele>
        <time>2013-04-29T04:48:19Z</time>
      </trkpt>
      <trkpt lat="44.61826" lon="-1.12061">
        <ele>12</ele>
        <time>2013-04-29T04:48:19Z</time>
      </trkpt>
      <trkpt lat="44.61826" lon="-1.12065">
        <ele>12</ele>
        <time>2013-04-29T04:48:20Z</time>
      </trkpt>
      <trkpt lat="44.61826" lon="-1.1207">
        <ele>12</ele>
        <time>2013-04-29T04:48:20Z</time>
      </trkpt>
      <trkpt lat="44.61827" lon="-1.12077">
        <ele>12</ele>
        <time>2013-04-29T04:48:21Z</time>
      </trkpt>
      <trkpt lat="44.61827" lon="-1.1209">
        <ele>12</ele>
        <time>2013-04-29T04:48:22Z</time>
      </trkpt>
      <trkpt lat="44.61827" lon="-1.12093">
        <ele>11</ele>
        <time>2013-04-29T04:48:22Z</time>
      </trkpt>
      <trkpt lat="44.61827" lon="-1.12098">
        <ele>11</ele>
        <time>2013-04-29T04:48:23Z</time>
      </trkpt>
      <trkpt lat="44.61838" lon="-1.1216">
        <ele>10</ele>
        <time>2013-04-29T04:48:29Z</time>
      </trkpt>
      <trkpt lat="44.61842" lon="-1.12185">
        <ele>9</ele>
        <time>2013-04-29T04:48:31Z</time>
      </trkpt>
      <trkpt lat="44.61843" lon="-1.12189">
        <ele>9</ele>
        <time>2013-04-29T04:48:32Z</time>
      </trkpt>
      <trkpt lat="44.61846" lon="-1.12193">
        <ele>9</ele>
        <time>2013-04-29T04:48:32Z</time>
      </trkpt>
      <trkpt lat="44.61849" lon="-1.12199">
        <ele>9</ele>
        <time>2013-04-29T04:48:33Z</time>
      </trkpt>
      <trkpt lat="44.61851" lon="-1.12206">
        <ele>9</ele>
        <time>2013-04-29T04:48:34Z</time>
      </trkpt>
      <trkpt lat="44.61862" lon="-1.1225">
        <ele>8</ele>
        <time>2013-04-29T04:48:38Z</time>
      </trkpt>
      <trkpt lat="44.61863" lon="-1.12256">
        <ele>7</ele>
        <time>2013-04-29T04:48:39Z</time>
      </trkpt>
      <trkpt lat="44.61865" lon="-1.12261">
        <ele>7</ele>
        <time>2013-04-29T04:48:39Z</time>
      </trkpt>
      <trkpt lat="44.61866" lon="-1.12269">
        <ele>7</ele>
        <time>2013-04-29T04:48:40Z</time>
      </trkpt>
      <trkpt lat="44.61866" lon="-1.12275">
        <ele>7</ele>
        <time>2013-04-29T04:48:41Z</time>
      </trkpt>
      <trkpt lat="44.61865" lon="-1.12283">
        <ele>7</ele>
        <time>2013-04-29T04:48:41Z</time>
      </trkpt>
      <trkpt lat="44.61863" lon="-1.12291">
        <ele>7</ele>
        <time>2013-04-29T04:48:42Z</time>
      </trkpt>
      <trkpt lat="44.61861" lon="-1.12302">
        <ele>7</ele>
        <time>2013-04-29T04:48:43Z</time>
      </trkpt>
      <trkpt lat="44.6186" lon="-1.12311">
        <ele>7</ele>
        <time>2013-04-29T04:48:44Z</time>
      </trkpt>
      <trkpt lat="44.61861" lon="-1.12318">
        <ele>6</ele>
        <time>2013-04-29T04:48:45Z</time>
      </trkpt>
      <trkpt lat="44.61862" lon="-1.12327">
        <ele>6</ele>
        <time>2013-04-29T04:48:46Z</time>
      </trkpt>
      <trkpt lat="44.61865" lon="-1.12338">
        <ele>6</ele>
        <time>2013-04-29T04:48:47Z</time>
      </trkpt>
      <trkpt lat="44.61877" lon="-1.12369">
        <ele>6</ele>
        <time>2013-04-29T04:48:50Z</time>
      </trkpt>
      <trkpt lat="44.6188" lon="-1.1238">
        <ele>6</ele>
        <time>2013-04-29T04:48:51Z</time>
      </trkpt>
      <trkpt lat="44.61882" lon="-1.12388">
        <ele>6</ele>
        <time>2013-04-29T04:48:53Z</time>
      </trkpt>
      <trkpt lat="44.61883" lon="-1.12395">
        <ele>6</ele>
        <time>2013-04-29T04:48:54Z</time>
      </trkpt>
      <trkpt lat="44.61886" lon="-1.12405">
        <ele>6</ele>
        <time>2013-04-29T04:48:55Z</time>
      </trkpt>
      <trkpt lat="44.61887" lon="-1.12415">
        <ele>6</ele>
        <time>2013-04-29T04:48:56Z</time>
      </trkpt>
      <trkpt lat="44.6189" lon="-1.12425">
        <ele>6</ele>
        <time>2013-04-29T04:48:58Z</time>
      </trkpt>
      <trkpt lat="44.61898" lon="-1.1244">
        <ele>7</ele>
        <time>2013-04-29T04:49:00Z</time>
      </trkpt>
      <trkpt lat="44.61902" lon="-1.12448">
        <ele>7</ele>
        <time>2013-04-29T04:49:02Z</time>
      </trkpt>
      <trkpt lat="44.61905" lon="-1.12454">
        <ele>7</ele>
        <time>2013-04-29T04:49:03Z</time>
      </trkpt>
      <trkpt lat="44.61916" lon="-1.12487">
        <ele>8</ele>
        <time>2013-04-29T04:49:08Z</time>
      </trkpt>
      <trkpt lat="44.61887" lon="-1.12529">
        <ele>9</ele>
        <time>2013-04-29T04:49:16Z</time>
      </trkpt>
      <trkpt lat="44.61884" lon="-1.12537">
        <ele>8</ele>
        <time>2013-04-29T04:49:16Z</time>
      </trkpt>
      <trkpt lat="44.61882" lon="-1.12549">
        <ele>8</ele>
        <time>2013-04-29T04:49:18Z</time>
      </trkpt>
      <trkpt lat="44.61875" lon="-1.12553">
        <ele>8</ele>
        <time>2013-04-29T04:49:19Z</time>
      </trkpt>
      <trkpt lat="44.61897" lon="-1.12622">
        <ele>8</ele>
        <time>2013-04-29T04:49:26Z</time>
      </trkpt>
      <trkpt lat="44.6189" lon="-1.12637">
        <ele>8</ele>
        <time>2013-04-29T04:49:27Z</time>
      </trkpt>
      <trkpt lat="44.61837" lon="-1.12986">
        <ele>8</ele>
        <time>2013-04-29T04:50:01Z</time>
      </trkpt>
      <trkpt lat="44.61836" lon="-1.12988">
        <ele>7</ele>
        <time>2013-04-29T04:50:02Z</time>
      </trkpt>
      <trkpt lat="44.61835" lon="-1.12992">
        <ele>7</ele>
        <time>2013-04-29T04:50:02Z</time>
      </trkpt>
      <trkpt lat="44.61834" lon="-1.12996">
        <ele>7</ele>
        <time>2013-04-29T04:50:02Z</time>
      </trkpt>
      <trkpt lat="44.61823" lon="-1.13116">
        <ele>7</ele>
        <time>2013-04-29T04:50:14Z</time>
      </trkpt>
      <trkpt lat="44.61823" lon="-1.13128">
        <ele>7</ele>
        <time>2013-04-29T04:50:15Z</time>
      </trkpt>
      <trkpt lat="44.61809" lon="-1.13232">
        <ele>7</ele>
        <time>2013-04-29T04:50:26Z</time>
      </trkpt>
      <trkpt lat="44.61792" lon="-1.13336">
        <ele>8</ele>
        <time>2013-04-29T04:50:38Z</time>
      </trkpt>
      <trkpt lat="44.61773" lon="-1.13454">
        <ele>6</ele>
        <time>2013-04-29T04:50:49Z</time>
      </trkpt>
      <trkpt lat="44.61755" lon="-1.13543">
        <ele>6</ele>
        <time>2013-04-29T04:50:58Z</time>
      </trkpt>
      <trkpt lat="44.61735" lon="-1.13629">
        <ele>6</ele>
        <time>2013-04-29T04:51:08Z</time>
      </trkpt>
      <trkpt lat="44.6172" lon="-1.13698">
        <ele>7</ele>
        <time>2013-04-29T04:51:16Z</time>
      </trkpt>
      <trkpt lat="44.61711" lon="-1.13739">
        <ele>7</ele>
        <time>2013-04-29T04:51:21Z</time>
      </trkpt>
      <trkpt lat="44.6171" lon="-1.13747">
        <ele>7</ele>
        <time>2013-04-29T04:51:22Z</time>
      </trkpt>
      <trkpt lat="44.61704" lon="-1.13761">
        <ele>7</ele>
        <time>2013-04-29T04:51:25Z</time>
      </trkpt>
      <trkpt lat="44.61704" lon="-1.13767">
        <ele>8</ele>
        <time>2013-04-29T04:51:25Z</time>
      </trkpt>
      <trkpt lat="44.61706" lon="-1.13779">
        <ele>8</ele>
        <time>2013-04-29T04:51:27Z</time>
      </trkpt>
      <trkpt lat="44.61708" lon="-1.13793">
        <ele>8</ele>
        <time>2013-04-29T04:51:29Z</time>
      </trkpt>
      <trkpt lat="44.6171" lon="-1.13804">
        <ele>8</ele>
        <time>2013-04-29T04:51:30Z</time>
      </trkpt>
      <trkpt lat="44.61708" lon="-1.13814">
        <ele>8</ele>
        <time>2013-04-29T04:51:32Z</time>
      </trkpt>
      <trkpt lat="44.61704" lon="-1.13828">
        <ele>9</ele>
        <time>2013-04-29T04:51:34Z</time>
      </trkpt>
      <trkpt lat="44.617" lon="-1.1383">
        <ele>9</ele>
        <time>2013-04-29T04:51:34Z</time>
      </trkpt>
      <trkpt lat="44.61695" lon="-1.13834">
        <ele>9</ele>
        <time>2013-04-29T04:51:35Z</time>
      </trkpt>
      <trkpt lat="44.6169" lon="-1.13838">
        <ele>9</ele>
        <time>2013-04-29T04:51:36Z</time>
      </trkpt>
      <trkpt lat="44.6168" lon="-1.1385">
        <ele>9</ele>
        <time>2013-04-29T04:51:39Z</time>
      </trkpt>
      <trkpt lat="44.61663" lon="-1.13896">
        <ele>10</ele>
        <time>2013-04-29T04:51:45Z</time>
      </trkpt>
      <trkpt lat="44.61613" lon="-1.14045">
        <ele>12</ele>
        <time>2013-04-29T04:52:05Z</time>
      </trkpt>
      <trkpt lat="44.61601" lon="-1.14082">
        <ele>11</ele>
        <time>2013-04-29T04:52:09Z</time>
      </trkpt>
      <trkpt lat="44.61491" lon="-1.14402">
        <ele>10</ele>
        <time>2013-04-29T04:52:43Z</time>
      </trkpt>
      <trkpt lat="44.61435" lon="-1.14544">
        <ele>14</ele>
        <time>2013-04-29T04:53:08Z</time>
      </trkpt>
      <trkpt lat="44.61402" lon="-1.14639">
        <ele>15</ele>
        <time>2013-04-29T04:53:23Z</time>
      </trkpt>
      <trkpt lat="44.61375" lon="-1.1474">
        <ele>18</ele>
        <time>2013-04-29T04:53:38Z</time>
      </trkpt>
      <trkpt lat="44.61375" lon="-1.1475">
        <ele>17</ele>
        <time>2013-04-29T04:53:39Z</time>
      </trkpt>
      <trkpt lat="44.61375" lon="-1.14753">
        <ele>17</ele>
        <time>2013-04-29T04:53:39Z</time>
      </trkpt>
      <trkpt lat="44.61377" lon="-1.14765">
        <ele>17</ele>
        <time>2013-04-29T04:53:40Z</time>
      </trkpt>
      <trkpt lat="44.61378" lon="-1.1477">
        <ele>17</ele>
        <time>2013-04-29T04:53:41Z</time>
      </trkpt>
      <trkpt lat="44.61377" lon="-1.14776">
        <ele>17</ele>
        <time>2013-04-29T04:53:41Z</time>
      </trkpt>
      <trkpt lat="44.61375" lon="-1.14785">
        <ele>17</ele>
        <time>2013-04-29T04:53:42Z</time>
      </trkpt>
      <trkpt lat="44.61342" lon="-1.14782">
        <ele>16</ele>
        <time>2013-04-29T04:53:47Z</time>
      </trkpt>
      <trkpt lat="44.61342" lon="-1.14787">
        <ele>16</ele>
        <time>2013-04-29T04:53:47Z</time>
      </trkpt>
      <trkpt lat="44.61329" lon="-1.14785">
        <ele>16</ele>
        <time>2013-04-29T04:53:49Z</time>
      </trkpt>
      <trkpt lat="44.61309" lon="-1.14784">
        <ele>16</ele>
        <time>2013-04-29T04:53:52Z</time>
      </trkpt>
      <trkpt lat="44.61295" lon="-1.14782">
        <ele>16</ele>
        <time>2013-04-29T04:53:54Z</time>
      </trkpt>
      <trkpt lat="44.6129" lon="-1.14781">
        <ele>16</ele>
        <time>2013-04-29T04:53:54Z</time>
      </trkpt>
      <trkpt lat="44.6128" lon="-1.14779">
        <ele>16</ele>
        <time>2013-04-29T04:53:56Z</time>
      </trkpt>
      <trkpt lat="44.61263" lon="-1.14774">
        <ele>16</ele>
        <time>2013-04-29T04:53:59Z</time>
      </trkpt>
      <trkpt lat="44.61247" lon="-1.14776">
        <ele>16</ele>
        <time>2013-04-29T04:54:01Z</time>
      </trkpt>
      <trkpt lat="44.6123" lon="-1.14777">
        <ele>16</ele>
        <time>2013-04-29T04:54:04Z</time>
      </trkpt>
      <trkpt lat="44.61227" lon="-1.14777">
        <ele>16</ele>
        <time>2013-04-29T04:54:05Z</time>
      </trkpt>
      <trkpt lat="44.61216" lon="-1.14779">
        <ele>17</ele>
        <time>2013-04-29T04:54:07Z</time>
      </trkpt>
      <trkpt lat="44.61212" lon="-1.14781">
        <ele>17</ele>
        <time>2013-04-29T04:54:07Z</time>
      </trkpt>
      <trkpt lat="44.61211" lon="-1.14792">
        <ele>17</ele>
        <time>2013-04-29T04:54:09Z</time>
      </trkpt>
      <trkpt lat="44.61206" lon="-1.14876">
        <ele>18</ele>
        <time>2013-04-29T04:54:19Z</time>
      </trkpt>
      <trkpt lat="44.61206" lon="-1.14882">
        <ele>18</ele>
        <time>2013-04-29T04:54:19Z</time>
      </trkpt>
      <trkpt lat="44.61203" lon="-1.14913">
        <ele>18</ele>
        <time>2013-04-29T04:54:24Z</time>
      </trkpt>
      <trkpt lat="44.61204" lon="-1.14926">
        <ele>19</ele>
        <time>2013-04-29T04:54:26Z</time>
      </trkpt>
      <trkpt lat="44.6121" lon="-1.15003">
        <ele>21</ele>
        <time>2013-04-29T04:54:38Z</time>
      </trkpt>
      <trkpt lat="44.61221" lon="-1.15088">
        <ele>18</ele>
        <time>2013-04-29T04:54:46Z</time>
      </trkpt>
      <trkpt lat="44.61223" lon="-1.15164">
        <ele>17</ele>
        <time>2013-04-29T04:54:53Z</time>
      </trkpt>
      <trkpt lat="44.61226" lon="-1.15184">
        <ele>17</ele>
        <time>2013-04-29T04:54:56Z</time>
      </trkpt>
      <trkpt lat="44.61242" lon="-1.15269">
        <ele>18</ele>
        <time>2013-04-29T04:55:08Z</time>
      </trkpt>
      <trkpt lat="44.61237" lon="-1.15286">
        <ele>19</ele>
        <time>2013-04-29T04:55:10Z</time>
      </trkpt>
      <trkpt lat="44.61237" lon="-1.15286">
        <ele>19</ele>
        <time>2013-04-29T04:55:11Z</time>
      </trkpt>
      <trkpt lat="44.61226" lon="-1.15298">
        <ele>19</ele>
        <time>2013-04-29T04:55:13Z</time>
      </trkpt>
      <trkpt lat="44.61216" lon="-1.15294">
        <ele>19</ele>
        <time>2013-04-29T04:55:14Z</time>
      </trkpt>
      <trkpt lat="44.61208" lon="-1.15283">
        <ele>19</ele>
        <time>2013-04-29T04:55:16Z</time>
      </trkpt>
      <trkpt lat="44.61195" lon="-1.15259">
        <ele>19</ele>
        <time>2013-04-29T04:55:19Z</time>
      </trkpt>
      <trkpt lat="44.61174" lon="-1.15223">
        <ele>19</ele>
        <time>2013-04-29T04:55:23Z</time>
      </trkpt>
      <trkpt lat="44.61164" lon="-1.1515">
        <ele>19</ele>
        <time>2013-04-29T04:55:30Z</time>
      </trkpt>
      <trkpt lat="44.61162" lon="-1.15142">
        <ele>19</ele>
        <time>2013-04-29T04:55:31Z</time>
      </trkpt>
      <trkpt lat="44.6116" lon="-1.15135">
        <ele>19</ele>
        <time>2013-04-29T04:55:32Z</time>
      </trkpt>
      <trkpt lat="44.61153" lon="-1.15127">
        <ele>19</ele>
        <time>2013-04-29T04:55:34Z</time>
      </trkpt>
      <trkpt lat="44.61113" lon="-1.15095">
        <ele>20</ele>
        <time>2013-04-29T04:55:43Z</time>
      </trkpt>
      <trkpt lat="44.61102" lon="-1.15067">
        <ele>20</ele>
        <time>2013-04-29T04:55:47Z</time>
      </trkpt>
      <trkpt lat="44.61068" lon="-1.15017">
        <ele>22</ele>
        <time>2013-04-29T04:55:56Z</time>
      </trkpt>
      <trkpt lat="44.60994" lon="-1.14995">
        <ele>21</ele>
        <time>2013-04-29T04:56:06Z</time>
      </trkpt>
      <trkpt lat="44.60981" lon="-1.14984">
        <ele>21</ele>
        <time>2013-04-29T04:56:08Z</time>
      </trkpt>
      <trkpt lat="44.60968" lon="-1.1496">
        <ele>21</ele>
        <time>2013-04-29T04:56:13Z</time>
      </trkpt>
      <trkpt lat="44.60961" lon="-1.14961">
        <ele>22</ele>
        <time>2013-04-29T04:56:15Z</time>
      </trkpt>
      <trkpt lat="44.60939" lon="-1.14978">
        <ele>23</ele>
        <time>2013-04-29T04:56:21Z</time>
      </trkpt>
      <trkpt lat="44.60931" lon="-1.14984">
        <ele>23</ele>
        <time>2013-04-29T04:56:23Z</time>
      </trkpt>
      <trkpt lat="44.60923" lon="-1.1499">
        <ele>24</ele>
        <time>2013-04-29T04:56:25Z</time>
      </trkpt>
      <trkpt lat="44.60907" lon="-1.15001">
        <ele>24</ele>
        <time>2013-04-29T04:56:30Z</time>
      </trkpt>
      <trkpt lat="44.60884" lon="-1.15013">
        <ele>26</ele>
        <time>2013-04-29T04:56:35Z</time>
      </trkpt>
      <trkpt lat="44.60878" lon="-1.15017">
        <ele>26</ele>
        <time>2013-04-29T04:56:36Z</time>
      </trkpt>
      <trkpt lat="44.6087" lon="-1.15019">
        <ele>26</ele>
        <time>2013-04-29T04:56:37Z</time>
      </trkpt>
      <trkpt lat="44.60851" lon="-1.15025">
        <ele>26</ele>
        <time>2013-04-29T04:56:40Z</time>
      </trkpt>
      <trkpt lat="44.60819" lon="-1.15033">
        <ele>26</ele>
        <time>2013-04-29T04:56:44Z</time>
      </trkpt>
      <trkpt lat="44.60809" lon="-1.15035">
        <ele>26</ele>
        <time>2013-04-29T04:56:46Z</time>
      </trkpt>
      <trkpt lat="44.60802" lon="-1.15038">
        <ele>26</ele>
        <time>2013-04-29T04:56:47Z</time>
      </trkpt>
      <trkpt lat="44.60798" lon="-1.15039">
        <ele>26</ele>
        <time>2013-04-29T04:56:47Z</time>
      </trkpt>
      <trkpt lat="44.60793" lon="-1.15043">
        <ele>26</ele>
        <time>2013-04-29T04:56:48Z</time>
      </trkpt>
      <trkpt lat="44.60789" lon="-1.15045">
        <ele>25</ele>
        <time>2013-04-29T04:56:48Z</time>
      </trkpt>
      <trkpt lat="44.60757" lon="-1.15076">
        <ele>24</ele>
        <time>2013-04-29T04:56:54Z</time>
      </trkpt>
      <trkpt lat="44.60758" lon="-1.15082">
        <ele>24</ele>
        <time>2013-04-29T04:56:54Z</time>
      </trkpt>
      <trkpt lat="44.60757" lon="-1.15091">
        <ele>23</ele>
        <time>2013-04-29T04:56:55Z</time>
      </trkpt>
      <trkpt lat="44.60754" lon="-1.15096">
        <ele>23</ele>
        <time>2013-04-29T04:56:56Z</time>
      </trkpt>
      <trkpt lat="44.60748" lon="-1.15101">
        <ele>23</ele>
        <time>2013-04-29T04:56:57Z</time>
      </trkpt>
      <trkpt lat="44.60741" lon="-1.151">
        <ele>23</ele>
        <time>2013-04-29T04:56:58Z</time>
      </trkpt>
      <trkpt lat="44.60738" lon="-1.15098">
        <ele>23</ele>
        <time>2013-04-29T04:56:58Z</time>
      </trkpt>
      <trkpt lat="44.60736" lon="-1.15096">
        <ele>22</ele>
        <time>2013-04-29T04:56:58Z</time>
      </trkpt>
      <trkpt lat="44.6072" lon="-1.15122">
        <ele>22</ele>
        <time>2013-04-29T04:57:02Z</time>
      </trkpt>
      <trkpt lat="44.60713" lon="-1.15135">
        <ele>22</ele>
        <time>2013-04-29T04:57:03Z</time>
      </trkpt>
      <trkpt lat="44.60708" lon="-1.15148">
        <ele>22</ele>
        <time>2013-04-29T04:57:05Z</time>
      </trkpt>
      <trkpt lat="44.60706" lon="-1.15158">
        <ele>22</ele>
        <time>2013-04-29T04:57:06Z</time>
      </trkpt>
      <trkpt lat="44.60703" lon="-1.15175">
        <ele>22</ele>
        <time>2013-04-29T04:57:07Z</time>
      </trkpt>
      <trkpt lat="44.60702" lon="-1.15191">
        <ele>22</ele>
        <time>2013-04-29T04:57:09Z</time>
      </trkpt>
      <trkpt lat="44.60701" lon="-1.15211">
        <ele>22</ele>
        <time>2013-04-29T04:57:11Z</time>
      </trkpt>
      <trkpt lat="44.60701" lon="-1.15221">
        <ele>22</ele>
        <time>2013-04-29T04:57:12Z</time>
      </trkpt>
      <trkpt lat="44.60702" lon="-1.15229">
        <ele>22</ele>
        <time>2013-04-29T04:57:12Z</time>
      </trkpt>
      <trkpt lat="44.60704" lon="-1.15244">
        <ele>22</ele>
        <time>2013-04-29T04:57:14Z</time>
      </trkpt>
      <trkpt lat="44.60708" lon="-1.15264">
        <ele>22</ele>
        <time>2013-04-29T04:57:16Z</time>
      </trkpt>
      <trkpt lat="44.60714" lon="-1.15286">
        <ele>21</ele>
        <time>2013-04-29T04:57:18Z</time>
      </trkpt>
      <trkpt lat="44.60718" lon="-1.15297">
        <ele>21</ele>
        <time>2013-04-29T04:57:19Z</time>
      </trkpt>
      <trkpt lat="44.60734" lon="-1.15332">
        <ele>20</ele>
        <time>2013-04-29T04:57:23Z</time>
      </trkpt>
      <trkpt lat="44.60736" lon="-1.15336">
        <ele>20</ele>
        <time>2013-04-29T04:57:24Z</time>
      </trkpt>
      <trkpt lat="44.6074" lon="-1.15342">
        <ele>20</ele>
        <time>2013-04-29T04:57:24Z</time>
      </trkpt>
      <trkpt lat="44.60748" lon="-1.15355">
        <ele>20</ele>
        <time>2013-04-29T04:57:26Z</time>
      </trkpt>
      <trkpt lat="44.60763" lon="-1.15375">
        <ele>20</ele>
        <time>2013-04-29T04:57:29Z</time>
      </trkpt>
      <trkpt lat="44.60777" lon="-1.15394">
        <ele>19</ele>
        <time>2013-04-29T04:57:31Z</time>
      </trkpt>
      <trkpt lat="44.60787" lon="-1.15407">
        <ele>19</ele>
        <time>2013-04-29T04:57:33Z</time>
      </trkpt>
      <trkpt lat="44.60797" lon="-1.15422">
        <ele>19</ele>
        <time>2013-04-29T04:57:35Z</time>
      </trkpt>
      <trkpt lat="44.608" lon="-1.15427">
        <ele>19</ele>
        <time>2013-04-29T04:57:36Z</time>
      </trkpt>
      <trkpt lat="44.60813" lon="-1.1545">
        <ele>18</ele>
        <time>2013-04-29T04:57:39Z</time>
      </trkpt>
      <trkpt lat="44.60817" lon="-1.15457">
        <ele>18</ele>
        <time>2013-04-29T04:57:40Z</time>
      </trkpt>
      <trkpt lat="44.60823" lon="-1.15467">
        <ele>18</ele>
        <time>2013-04-29T04:57:41Z</time>
      </trkpt>
      <trkpt lat="44.60835" lon="-1.15489">
        <ele>18</ele>
        <time>2013-04-29T04:57:43Z</time>
      </trkpt>
      <trkpt lat="44.60841" lon="-1.15501">
        <ele>18</ele>
        <time>2013-04-29T04:57:45Z</time>
      </trkpt>
      <trkpt lat="44.60848" lon="-1.15517">
        <ele>18</ele>
        <time>2013-04-29T04:57:47Z</time>
      </trkpt>
      <trkpt lat="44.60854" lon="-1.15515">
        <ele>18</ele>
        <time>2013-04-29T04:57:48Z</time>
      </trkpt>
      <trkpt lat="44.60858" lon="-1.15515">
        <ele>18</ele>
        <time>2013-04-29T04:57:49Z</time>
      </trkpt>
      <trkpt lat="44.60862" lon="-1.15519">
        <ele>18</ele>
        <time>2013-04-29T04:57:49Z</time>
      </trkpt>
      <trkpt lat="44.60864" lon="-1.15523">
        <ele>18</ele>
        <time>2013-04-29T04:57:50Z</time>
      </trkpt>
      <trkpt lat="44.60866" lon="-1.15531">
        <ele>18</ele>
        <time>2013-04-29T04:57:51Z</time>
      </trkpt>
      <trkpt lat="44.60864" lon="-1.1554">
        <ele>18</ele>
        <time>2013-04-29T04:57:52Z</time>
      </trkpt>
      <trkpt lat="44.60859" lon="-1.15546">
        <ele>18</ele>
        <time>2013-04-29T04:57:53Z</time>
      </trkpt>
      <trkpt lat="44.60862" lon="-1.15567">
        <ele>18</ele>
        <time>2013-04-29T04:57:55Z</time>
      </trkpt>
      <trkpt lat="44.60864" lon="-1.15585">
        <ele>18</ele>
        <time>2013-04-29T04:57:57Z</time>
      </trkpt>
      <trkpt lat="44.60866" lon="-1.15606">
        <ele>18</ele>
        <time>2013-04-29T04:58:00Z</time>
      </trkpt>
      <trkpt lat="44.60866" lon="-1.15619">
        <ele>19</ele>
        <time>2013-04-29T04:58:01Z</time>
      </trkpt>
      <trkpt lat="44.60867" lon="-1.15638">
        <ele>19</ele>
        <time>2013-04-29T04:58:03Z</time>
      </trkpt>
      <trkpt lat="44.60867" lon="-1.15654">
        <ele>19</ele>
        <time>2013-04-29T04:58:04Z</time>
      </trkpt>
      <trkpt lat="44.6087" lon="-1.15672">
        <ele>19</ele>
        <time>2013-04-29T04:58:06Z</time>
      </trkpt>
      <trkpt lat="44.60872" lon="-1.1568">
        <ele>19</ele>
        <time>2013-04-29T04:58:07Z</time>
      </trkpt>
      <trkpt lat="44.60886" lon="-1.15676">
        <ele>19</ele>
        <time>2013-04-29T04:58:09Z</time>
      </trkpt>
      <trkpt lat="44.60898" lon="-1.15681">
        <ele>19</ele>
        <time>2013-04-29T04:58:11Z</time>
      </trkpt>
      <trkpt lat="44.60904" lon="-1.15687">
        <ele>19</ele>
        <time>2013-04-29T04:58:12Z</time>
      </trkpt>
      <trkpt lat="44.60911" lon="-1.15698">
        <ele>19</ele>
        <time>2013-04-29T04:58:13Z</time>
      </trkpt>
      <trkpt lat="44.60912" lon="-1.15701">
        <ele>19</ele>
        <time>2013-04-29T04:58:13Z</time>
      </trkpt>
      <trkpt lat="44.60914" lon="-1.15713">
        <ele>19</ele>
        <time>2013-04-29T04:58:14Z</time>
      </trkpt>
      <trkpt lat="44.60913" lon="-1.15716">
        <ele>19</ele>
        <time>2013-04-29T04:58:15Z</time>
      </trkpt>
      <trkpt lat="44.60912" lon="-1.15733">
        <ele>19</ele>
        <time>2013-04-29T04:58:16Z</time>
      </trkpt>
      <trkpt lat="44.60906" lon="-1.15745">
        <ele>19</ele>
        <time>2013-04-29T04:58:18Z</time>
      </trkpt>
      <trkpt lat="44.60894" lon="-1.15755">
        <ele>19</ele>
        <time>2013-04-29T04:58:20Z</time>
      </trkpt>
      <trkpt lat="44.60878" lon="-1.15757">
        <ele>19</ele>
        <time>2013-04-29T04:58:23Z</time>
      </trkpt>
      <trkpt lat="44.60866" lon="-1.15748">
        <ele>19</ele>
        <time>2013-04-29T04:58:25Z</time>
      </trkpt>
      <trkpt lat="44.6086" lon="-1.15738">
        <ele>19</ele>
        <time>2013-04-29T04:58:27Z</time>
      </trkpt>
      <trkpt lat="44.60844" lon="-1.15741">
        <ele>19</ele>
        <time>2013-04-29T04:58:29Z</time>
      </trkpt>
      <trkpt lat="44.60838" lon="-1.15751">
        <ele>20</ele>
        <time>2013-04-29T04:58:31Z</time>
      </trkpt>
      <trkpt lat="44.60729" lon="-1.15895">
        <ele>22</ele>
        <time>2013-04-29T04:58:55Z</time>
      </trkpt>
      <trkpt lat="44.60594" lon="-1.16146">
        <ele>24</ele>
        <time>2013-04-29T04:59:30Z</time>
      </trkpt>
      <trkpt lat="44.60425" lon="-1.16465">
        <ele>27</ele>
        <time>2013-04-29T05:00:15Z</time>
      </trkpt>
      <trkpt lat="44.60372" lon="-1.16606">
        <ele>27</ele>
        <time>2013-04-29T05:00:30Z</time>
      </trkpt>
      <trkpt lat="44.60357" lon="-1.16695">
        <ele>28</ele>
        <time>2013-04-29T05:00:42Z</time>
      </trkpt>
      <trkpt lat="44.6037" lon="-1.16807">
        <ele>30</ele>
        <time>2013-04-29T05:00:57Z</time>
      </trkpt>
      <trkpt lat="44.6037" lon="-1.1695">
        <ele>27</ele>
        <time>2013-04-29T05:01:11Z</time>
      </trkpt>
      <trkpt lat="44.60347" lon="-1.17058">
        <ele>27</ele>
        <time>2013-04-29T05:01:21Z</time>
      </trkpt>
      <trkpt lat="44.60172" lon="-1.17362">
        <ele>27</ele>
        <time>2013-04-29T05:01:59Z</time>
      </trkpt>
      <trkpt lat="44.60096" lon="-1.1754">
        <ele>27</ele>
        <time>2013-04-29T05:02:18Z</time>
      </trkpt>
      <trkpt lat="44.60056" lon="-1.17657">
        <ele>26</ele>
        <time>2013-04-29T05:02:31Z</time>
      </trkpt>
      <trkpt lat="44.60051" lon="-1.17763">
        <ele>24</ele>
        <time>2013-04-29T05:02:41Z</time>
      </trkpt>
      <trkpt lat="44.60053" lon="-1.17865">
        <ele>24</ele>
        <time>2013-04-29T05:02:50Z</time>
      </trkpt>
      <trkpt lat="44.60062" lon="-1.18012">
        <ele>26</ele>
        <time>2013-04-29T05:03:09Z</time>
      </trkpt>
      <trkpt lat="44.60073" lon="-1.18162">
        <ele>30</ele>
        <time>2013-04-29T05:03:33Z</time>
      </trkpt>
      <trkpt lat="44.60078" lon="-1.1826">
        <ele>34</ele>
        <time>2013-04-29T05:03:54Z</time>
      </trkpt>
      <trkpt lat="44.60071" lon="-1.18385">
        <ele>41</ele>
        <time>2013-04-29T05:04:21Z</time>
      </trkpt>
      <trkpt lat="44.60059" lon="-1.18429">
        <ele>40</ele>
        <time>2013-04-29T05:04:25Z</time>
      </trkpt>
      <trkpt lat="44.60046" lon="-1.18474">
        <ele>40</ele>
        <time>2013-04-29T05:04:30Z</time>
      </trkpt>
      <trkpt lat="44.59982" lon="-1.18616">
        <ele>40</ele>
        <time>2013-04-29T05:04:46Z</time>
      </trkpt>
      <trkpt lat="44.59878" lon="-1.18857">
        <ele>36</ele>
        <time>2013-04-29T05:05:13Z</time>
      </trkpt>
      <trkpt lat="44.59829" lon="-1.19046">
        <ele>34</ele>
        <time>2013-04-29T05:05:32Z</time>
      </trkpt>
      <trkpt lat="44.59827" lon="-1.19072">
        <ele>34</ele>
        <time>2013-04-29T05:05:36Z</time>
      </trkpt>
      <trkpt lat="44.59825" lon="-1.19141">
        <ele>35</ele>
        <time>2013-04-29T05:05:45Z</time>
      </trkpt>
      <trkpt lat="44.59848" lon="-1.1935">
        <ele>40</ele>
        <time>2013-04-29T05:06:15Z</time>
      </trkpt>
      <trkpt lat="44.59849" lon="-1.19479">
        <ele>36</ele>
        <time>2013-04-29T05:06:28Z</time>
      </trkpt>
      <trkpt lat="44.59848" lon="-1.1952">
        <ele>36</ele>
        <time>2013-04-29T05:06:32Z</time>
      </trkpt>
      <trkpt lat="44.59845" lon="-1.19562">
        <ele>36</ele>
        <time>2013-04-29T05:06:36Z</time>
      </trkpt>
      <trkpt lat="44.59826" lon="-1.19609">
        <ele>36</ele>
        <time>2013-04-29T05:06:41Z</time>
      </trkpt>
      <trkpt lat="44.5983" lon="-1.19609">
        <ele>36</ele>
        <time>2013-04-29T05:06:41Z</time>
      </trkpt>
      <trkpt lat="44.59838" lon="-1.19609">
        <ele>36</ele>
        <time>2013-04-29T05:06:43Z</time>
      </trkpt>
      <trkpt lat="44.59845" lon="-1.19611">
        <ele>36</ele>
        <time>2013-04-29T05:06:44Z</time>
      </trkpt>
      <trkpt lat="44.59842" lon="-1.19626">
        <ele>36</ele>
        <time>2013-04-29T05:06:46Z</time>
      </trkpt>
      <trkpt lat="44.59856" lon="-1.19638">
        <ele>36</ele>
        <time>2013-04-29T05:06:48Z</time>
      </trkpt>
      <trkpt lat="44.59865" lon="-1.19659">
        <ele>36</ele>
        <time>2013-04-29T05:06:51Z</time>
      </trkpt>
      <trkpt lat="44.59865" lon="-1.19689">
        <ele>37</ele>
        <time>2013-04-29T05:06:55Z</time>
      </trkpt>
      <trkpt lat="44.59857" lon="-1.19708">
        <ele>37</ele>
        <time>2013-04-29T05:06:57Z</time>
      </trkpt>
      <trkpt lat="44.59849" lon="-1.19718">
        <ele>37</ele>
        <time>2013-04-29T05:06:59Z</time>
      </trkpt>
      <trkpt lat="44.59832" lon="-1.19726">
        <ele>37</ele>
        <time>2013-04-29T05:07:02Z</time>
      </trkpt>
      <trkpt lat="44.59824" lon="-1.19724">
        <ele>37</ele>
        <time>2013-04-29T05:07:03Z</time>
      </trkpt>
      <trkpt lat="44.59815" lon="-1.19722">
        <ele>37</ele>
        <time>2013-04-29T05:07:05Z</time>
      </trkpt>
      <trkpt lat="44.59806" lon="-1.19713">
        <ele>38</ele>
        <time>2013-04-29T05:07:07Z</time>
      </trkpt>
    </trkseg>
  </trk>
</gpx>